[[{"header":{"parameterUnit":"m.s-1","parameterCategory":1,"la1":31.0,"la2":29.5877,"lo1":-88.7671,"lo2":-86.6584,"dy":0.0162,"dx":0.0185,"nx":115,"ny":88,"refTime":"2026-05-20T00:00:00:Z","depth":0,"parameterNumber":2,"parameterNumberName":"U-component_of_WINDS"},"data":[0.0,0.0,0.0,0.0,0.0,0.0,0.0,0.0,0.0,0.0,0.0,0.0,0.0,0.0,0.0,0.0,0.0,0.0,0.0,0.0,0.0,0.0,0.0,0.0,0.0,0.0,0.0,0.0,0.0,0.0,0.0,0.0,0.0,0.0,0.0,0.0,0.0,0.0,0.0,0.0,0.0,0.0,0.0,0.0,0.0,0.0,0.0,0.0,0.0,0.0,0.0,0.0,0.0,0.0,0.0,0.0,0.0,0.0,0.0,0.0,0.0,0.0,0.0,0.0,0.0,0.0,0.0,0.0,0.0,0.0,0.0,0.0,0.0,0.0,0.0,0.0,0.0,0.0,0.0,0.0,0.0,0.0,0.0,0.0,0.0,0.0,0.0,0.0,0.0,0.0,0.0,0.0,0.0,0.0,0.0,0.0,0.0,0.0,0.0,0.0,0.0,0.0,0.0,0.0,0.0,0.0,0.0,0.0,0.0,0.0,0.0,0.0,0.0,0.0,0.0,0.0,0.0,0.0,0.0,0.0,0.0,0.0,0.0,0.0,0.0,0.0,0.0,0.0,0.0,0.0,0.0,0.0,0.0,0.0,0.0,0.0,0.0,0.0,0.0,0.0,0.0,0.0,0.0,0.0,0.0,0.0,0.0,0.0,0.0,0.0,0.0,0.0,0.0,0.0,0.0,0.0,0.0,0.0,0.0,0.0,0.0,0.0,0.0,0.0,0.0,0.0,0.0,0.0,0.0,0.0,0.0,0.0,0.0,0.0,0.0,0.0,0.0,0.0,0.0,0.0,0.0,0.0,0.0,0.0,0.0,0.0,0.0,0.0,0.0,0.0,0.0,0.0,0.0,0.0,0.0,0.0,0.0,0.0,0.0,0.0,0.0,0.0,0.0,0.0,0.0,0.0,0.0,0.0,0.0,0.0,0.0,0.0,0.0,0.0,0.0,0.0,0.0,0.0,0.0,0.0,0.0,0.0,0.0,0.0,0.0,0.0,0.0,0.0,0.0,0.0,0.0,0.0,0.0,0.0,0.0,0.0,0.0,0.0,0.0,0.0,0.0,0.0,0.0,0.0,0.0,0.0,0.0,0.0,0.0,0.0,0.0,0.0,0.0,0.0,0.0,0.0,0.0,0.0,0.0,0.0,0.0,0.0,0.0,0.0,0.0,0.0,0.0,0.0,0.0,0.0,0.0,0.0,0.0,0.0,0.0,0.0,0.0,0.0,0.0,0.0,0.0,0.0,0.0,0.0,0.0,0.0,0.0,0.0,0.0,0.0,0.0,0.0,0.0,0.0,0.0,0.0,0.0,0.0,0.0,0.0,0.0,0.0,0.0,0.0,0.0,0.0,0.0,0.0,0.0,0.0,0.0,0.0,0.0,0.0,0.0,0.0,0.0,0.0,0.0,0.0,0.0,0.0,0.0,0.0,0.0,0.0,0.0,0.0,0.0,0.0,0.0,0.0,0.0,0.0,0.0,0.0,0.0,0.0,0.0,0.0,0.0,0.0,0.0,0.0,0.0,0.0,0.0,0.0,0.0,0.0,0.0,0.0,0.0,0.0,0.0,0.0,0.0,0.0,0.0,0.0,0.0,0.0,0.0,0.0,0.0,0.0,0.0,0.0,0.0,0.0,0.0,0.0,0.0,0.0,0.0,0.0,0.0,0.0,0.0,0.0,0.0,0.0,0.0,0.0,0.0,0.0,0.0,0.0,0.0,0.0,0.0,0.0,0.0,0.0,0.0,0.0,0.0,0.0,0.0,0.0,0.0,0.0,0.0,0.0,0.0,0.0,0.0,0.0,0.0,0.0,0.0,0.0,0.0,0.0,0.0,0.0,0.0,0.0,0.0,0.0,0.0,0.0,0.0,0.0,0.0,0.0,0.0,0.0,0.0,0.0,0.0,0.0,0.0,0.0,0.0,0.0,0.0,0.0,0.0,0.0,0.0,0.0,0.0,0.0,0.0,0.0,0.0,0.0,0.0,0.0,0.0,0.0,0.0,0.0,0.0,0.0,0.0,0.0,0.0,0.0,0.0,0.0,0.0,0.0,0.0,0.0,0.0,0.0,0.0,0.0,0.0,0.0,0.0,0.0,0.0,0.0,0.0,0.0,0.0,0.0,0.0,0.0,0.0,0.0,0.0,0.0,0.0,0.0,0.0,0.0,0.0,0.0,0.0,0.0,0.0,0.0,0.0,0.0,0.0,0.0,0.0,0.0,0.0,0.0,0.0,0.0,0.0,0.0,0.0,0.0,0.0,0.0,0.0,0.0,0.0,0.0,0.0,0.0,0.0,0.0,0.0,0.0,0.0,0.0,0.0,0.0,0.0,0.0,0.0,0.0,0.0,0.0,0.0,0.0,0.0,0.0,0.0,0.0,0.0,0.0,0.0,0.0,0.0,0.0,0.0,0.0,0.0,0.0,0.0,0.0,0.0,0.0,0.0,0.0,0.0,0.0,0.0,0.0,0.0,0.0,0.0,0.0,0.0,0.0,0.0,0.0,0.0,0.0,0.0,0.0,0.0,0.0,0.0,0.0,0.0,0.0,0.0,0.0,0.0,0.0,0.0,0.0,0.0,0.0,0.0,0.0,0.0,0.0,0.0,0.0,0.0,0.0,0.0,0.0,0.0,0.0,0.0,0.0,0.0,0.0,0.0,0.0,0.0,0.0,0.0,0.0,0.0,0.0,0.0,0.0,0.0,0.0,0.0,0.0,0.0,0.0,0.0,0.0,0.0,0.0,0.0,0.0,0.0,0.0,0.0,0.0,0.0,0.0,0.0,0.0,0.0,0.0,0.0,0.0,0.0,0.0,0.0,0.0,0.0,0.0,0.0,0.0,0.0,0.0,0.0,0.0,0.0,0.0,0.0,0.0,0.0,0.0,0.0,0.0,0.0,0.0,0.0,0.0,0.0,0.0,0.0,0.0,0.0,0.0,0.0,0.0,0.0,0.0,0.0,0.0,0.0,0.0,0.0,0.0,0.0,0.0,0.0,0.0,0.0,0.0,0.0,0.0,0.0,0.0,0.0,0.0,0.0,0.0,0.0,0.0,0.0,0.0,0.0,0.0,0.0,0.0,0.0,0.0,0.0,0.0,0.0,0.0,0.0,0.0,0.0,0.0,0.0,0.0,0.0,0.0,0.0,0.0,0.0,0.0,0.0,0.0,0.0,0.0,0.0,0.0,0.0,0.0,0.0,0.0,0.0,0.0,0.0,0.0,0.0,0.0,0.0,0.0,0.0,0.0,0.0,0.0,0.0,0.0,0.0,0.0,0.0,0.0,0.0,0.0,0.0,0.0,0.0,0.0,0.0,0.0,0.0,0.0,0.0,0.0,0.0,0.0,0.0,0.0,0.0,0.0,0.0,0.0,0.0,0.0,0.0,0.0,0.0,0.0,0.0,0.0,0.0,0.0,0.0,0.0,0.0,0.0,0.0,0.0,0.0,0.0,0.0,0.0,0.0,0.0,0.0,0.0,0.0,0.0,0.0,0.0,0.0,0.0,0.0,0.0,0.0,0.0,0.0,0.0,0.0,0.0,0.0,0.0,0.0,0.0,0.0,0.0,0.0,0.0,0.0,0.0,0.0,0.0,0.0,0.0,0.0,0.0,0.0,0.0,0.0,0.0,0.0,0.0,0.0,0.0,0.0,0.0,0.0,0.0,0.0,0.0,0.0,0.0,0.0,0.0,0.0,0.0,0.0,0.0,0.0,0.0,0.0,0.0,0.0,0.0,0.0,0.0,0.0,0.0,0.0,0.0,0.0,0.0,0.0,0.0,0.0,0.0,0.0,0.0,0.0,0.0,0.0,0.0,0.0,0.0,0.0,0.0,0.0,0.0,0.0,0.0,0.0,0.0,0.0,0.0,0.0,0.0,0.0,0.0,0.0,0.0,0.0,0.0,0.0,0.0,0.0,0.0,0.0,0.0,0.0,0.0,0.0,0.0,0.0,0.0,0.0,0.0,0.0,0.0,0.0,0.0,0.0,0.0,0.0,0.0,0.0,0.0,0.0,0.0,0.0,0.0,0.0,0.0,0.0,0.0,0.0,0.0,0.0,0.0,0.0,0.0,0.0,0.0,0.0,0.0,0.0,0.0,0.0,0.0,0.0,0.0,0.0,0.0,0.0,0.0,0.0,0.0,0.0,0.0,0.0,0.0,0.0,0.0,0.0,0.0,0.0,0.0,0.0,0.0,0.0,0.0,0.0,0.0,0.0,0.0,0.0,0.0,0.0,0.0,0.0,0.0,0.0,0.0,0.0,0.0,0.0,0.0,-0.4444,0.0,0.0,0.0,0.0,0.0,0.0,0.0,0.0,0.0,0.0,0.0,0.0,0.0,0.0,0.0,0.0,0.0,0.0,0.0,0.0,0.0,0.0,0.0,0.0,0.0,0.0,0.0,0.0,0.0,0.0,0.0,0.0,0.0,0.0,0.0,0.0,0.0,0.0,0.0,0.0,0.0,0.0,0.0,0.0,0.0,0.0,0.0,0.0,0.0,0.0,0.0,0.0,0.0,0.0,0.0,0.0,0.0,0.0,0.0,0.0,0.0,0.0,0.0,0.0,0.0,0.0,0.0,0.0,0.0,0.0,0.0,0.0,0.0,0.0,0.0,0.0,0.0,0.0,0.0,0.0,0.0,0.0,0.0,0.0,0.0,0.0,0.0,0.0,0.0,0.0,0.0,0.0,0.0,0.0,0.0,0.0,0.0,0.0,0.0,0.0,0.0,0.0,0.0,0.0,0.0,0.0,0.0,0.0,0.0,0.0,0.0,0.0,-0.3126,-0.4789,-0.4771,0.0,0.0,0.0,0.0,0.0,0.0,0.0,0.0,0.0,0.0,0.0,0.0,0.0,0.0,0.0,0.0,0.0,0.0,0.0,0.0,0.0,0.0,0.0,0.0,0.0,0.0,0.0,0.0,0.0,0.0,0.0,0.0,0.0,0.0,0.0,0.0,0.0,0.0,0.0,0.0,0.0,0.0,0.0,0.0,0.0,0.0,0.0,0.0,0.0,0.0,0.0,0.0,0.0,0.0,0.0,0.0,0.0,0.0,0.0,0.0,0.0,0.0,0.0,0.0,0.0,0.0,0.0,0.0,0.0,0.0,0.0,0.0,0.0,0.0,0.0,0.0,0.0,0.0,0.0,0.0,0.0,0.0,0.0,0.0,0.0,0.0,0.0,0.0,0.0,0.0,0.0,0.0,0.0,0.0,0.0,0.0,0.0,0.0,0.0,0.0,0.0,0.0,0.0,0.0,0.0,0.0,0.0,0.0,0.0,0.0,0.0,0.0,-0.4603,-0.5735,-0.5385,0.0,0.0,0.0,0.0,0.0,0.0,0.0,0.0,0.0,0.0,0.0,0.0,0.0,0.0,0.0,0.0,0.0,0.0,0.0,0.0,0.0,0.0,0.0,0.0,0.0,0.0,0.0,0.0,0.0,0.0,0.0,0.0,0.0,0.0,0.0,0.0,0.0,0.0,0.0,0.0,0.0,0.0,0.0,0.0,0.0,0.0,0.0,0.0,0.0,0.0,0.0,0.0,0.0,0.0,0.0,0.0,0.0,0.0,0.0,0.0,0.0,0.0,0.0,0.0,0.0,0.0,0.0,0.0,0.0,0.0,0.0,0.0,0.0,0.0,0.0,0.0,0.0,0.0,0.0,0.0,0.0,0.0,0.0,0.0,0.0,0.0,0.0,0.0,0.0,0.0,0.0,0.0,0.0,0.0,0.0,0.0,0.0,0.0,0.0,0.0,0.0,0.0,0.0,0.0,0.0,0.0,0.0,0.0,0.0,0.0,-0.281,-0.8618,-0.9055,0.0,-0.7169,0.0,0.0,0.0,0.0,0.0,0.0,0.0,0.0,0.0,0.0,0.0,0.0,0.0,0.0,0.0,0.0,0.0,0.0,0.0,0.0,0.0,0.0,0.0,0.0,0.0,0.0,0.0,0.0,0.0,0.0,0.0,0.0,0.0,0.0,0.0,0.0,0.0,0.0,0.0,0.0,0.0,0.0,0.0,0.0,0.0,0.0,0.0,0.0,0.0,0.0,0.0,0.0,0.0,0.0,0.0,0.0,0.0,0.0,0.0,0.0,0.0,0.0,0.0,0.0,0.0,0.0,0.0,0.0,0.0,0.0,0.0,0.0,0.0,0.0,0.0,0.0,0.0,0.0,0.0,0.0,0.0,0.0,0.0,0.0,0.0,0.0,0.0,0.0,0.0,0.0,0.0,0.0,0.0,0.0,0.0,0.0,0.0,0.0,0.0,0.0,0.0,0.0,0.0,0.0,0.0,0.0,0.0,0.0,0.0,0.0,-0.7246,-0.9873,-0.8937,-0.805,0.0,0.0,0.0,0.0,0.0,0.0,0.0,0.0,0.0,0.0,0.0,0.0,0.0,0.0,0.0,0.0,0.0,0.0,0.0,0.0,0.0,0.0,0.0,0.0,0.0,0.0,0.0,0.0,0.0,0.0,0.0,0.0,0.0,0.0,0.0,0.0,0.0,0.0,0.0,0.0,0.0,0.0,0.0,0.0,0.0,0.0,0.0,0.0,0.0,0.0,0.0,0.0,0.0,0.0,0.0,0.0,0.0,0.0,0.0,0.0,0.0,0.0,0.0,0.0,0.0,0.0,0.0,0.0,0.0,0.0,0.0,0.0,0.0,0.0,0.0,0.0,0.0,0.0,0.0,0.0,0.0,0.0,0.0,0.0,0.0,0.0,0.0,0.0,0.0,0.0,0.0,0.0,0.0,0.0,0.0,0.0,0.0,0.0,0.0,0.0,0.0,0.0,0.0,0.0,0.0,0.0,0.0,0.0,0.0,0.0,-0.9615,0.0,-0.9967,-0.835,-0.7617,-0.7929,0.0,0.0,0.0,0.0,0.0,0.0,0.0,0.0,0.0,0.0,0.0,0.0,0.0,0.0,0.0,0.0,0.0,0.0,0.0,0.0,0.0,0.0,0.0,0.0,0.0,0.0,0.0,0.0,0.0,0.0,0.0,0.0,0.0,0.0,0.0,0.0,0.0,0.0,0.0,0.0,0.0,0.0,0.0,0.0,0.0,0.0,0.0,0.0,0.0,0.0,0.0,0.0,0.0,0.0,0.0,0.0,0.0,0.0,0.0,0.0,0.0,0.0,0.0,0.0,0.0,0.0,0.0,0.0,0.0,0.0,0.0,0.0,0.0,0.0,0.0,0.0,0.0,0.0,0.0,0.0,0.0,0.0,0.0,0.0,0.0,0.0,0.0,0.0,0.0,0.0,0.0,0.0,0.0,0.0,0.0,0.0,0.0,0.0,0.0,0.0,0.0,0.0,0.0,0.0,0.0,0.0,0.0,0.0,0.0,-0.8479,-1.0022,-0.9803,-0.8212,-0.8027,0.0,0.0,0.0,0.0,0.0,0.0,0.0,0.0,0.0,0.0,0.0,0.0,0.0,0.0,0.0,0.0,0.0,0.0,0.0,0.0,0.0,0.0,0.0,0.0,0.0,0.0,0.0,0.0,0.0,0.0,0.0,0.0,0.0,0.0,0.0,0.0,0.0,0.0,0.0,0.0,0.0,0.0,0.0,0.0,0.0,0.0,0.0,0.0,0.0,0.0,0.0,0.0,0.0,0.0,0.0,0.0,0.0,0.0,0.0,0.0,0.0,0.0,0.0,0.0,0.0,0.0,0.0,0.0,0.0,0.0,0.0,0.0,0.0,0.0,0.0,0.0,0.0,0.0,0.0,0.0,0.0,0.0,0.0,0.0,0.0,0.0,0.0,0.0,0.0,0.0,0.0,0.0,0.0,0.0,0.0,0.0,0.0,0.0,0.0,0.0,0.0,0.0,0.0,0.0,0.0,0.0,0.0,0.0,0.0,-0.8095,-0.9481,-0.9038,-0.6993,-0.828,-0.8813,0.0,0.0,0.0,0.0,0.0,0.0,0.0,0.0,0.0,0.0,0.0,0.0,0.0,0.0,0.0,0.0,0.0,0.0,0.0,0.0,0.0,0.0,0.0,0.0,0.0,0.0,0.0,0.0,0.0,0.0,0.0,0.0,0.0,0.0,0.0,0.0,0.0,0.0,0.0,0.0,0.0,0.0,0.0,0.0,0.0,0.0,0.0,0.0,0.0,0.0,0.0,0.0,0.0,0.0,0.0,0.0,0.0,0.0,0.0,0.0,0.0,0.0,0.0,0.0,0.0,0.0,0.0,0.0,0.0,0.0,0.0,0.0,0.0,0.0,0.0,0.0,0.0,0.0,0.0,0.0,0.0,0.0,0.0,0.0,0.0,0.0,0.0,0.0,0.0,0.0,0.0,0.0,0.0,0.0,0.0,0.0,0.0,0.0,0.0,0.0,0.0,0.0,0.0,0.0,0.0,0.0,0.0,0.0,0.0,-0.8275,0.0,-0.7375,0.0,-0.7268,-0.735,0.0,0.0,0.0,0.0,0.0,0.0,0.0,0.0,0.0,0.0,0.0,0.0,0.0,0.0,0.0,0.0,0.0,0.0,0.0,0.0,0.0,0.0,0.0,0.0,0.0,0.0,0.0,0.0,0.0,0.0,0.0,0.0,0.0,0.0,0.0,0.0,0.0,0.0,0.0,0.0,0.0,0.0,0.0,0.0,0.0,0.0,0.0,0.0,0.0,0.0,0.0,0.0,0.0,0.0,0.0,0.0,0.0,0.0,0.0,0.0,0.0,0.0,0.0,0.0,0.0,0.0,0.0,0.0,0.0,0.0,0.0,0.0,0.0,0.0,0.0,0.0,0.0,0.0,0.0,0.0,0.0,0.0,0.0,0.0,0.0,0.0,0.0,0.0,0.0,0.0,0.0,0.0,0.0,0.0,0.0,0.0,0.0,0.0,0.0,0.0,0.0,0.0,0.0,0.0,0.0,0.0,0.0,0.0,-0.5176,-0.5254,-0.5296,-0.5382,-0.514,-0.5117,-0.3498,0.0,0.0,0.0,0.0,0.0,0.0,0.0,0.0,0.0,0.0,0.0,0.0,0.0,0.0,0.0,0.0,0.0,0.0,0.0,0.0,0.0,0.0,0.0,0.0,0.0,0.0,0.0,0.0,0.0,0.0,0.0,0.0,0.0,0.0,0.0,0.0,0.0,0.0,0.0,0.0,0.0,0.0,0.0,0.0,0.0,0.0,0.0,0.0,0.0,0.0,0.0,0.0,0.0,0.0,0.0,0.0,0.0,0.0,0.0,0.0,0.0,0.0,0.0,0.0,0.0,0.0,0.0,0.0,0.0,0.0,0.0,0.0,0.0,0.0,0.0,0.0,0.0,0.0,0.0,0.0,0.0,0.0,0.0,0.0,0.0,0.0,0.0,0.0,0.0,0.0,0.0,0.0,0.0,0.0,0.0,0.0,0.0,0.0,0.0,0.0,0.0,0.0,0.0,0.0,0.0,0.0,0.0,0.0,0.0,-0.8613,-0.7513,-0.7084,-0.735,-0.4737,-0.2773,0.0,0.0,0.0,0.0,0.0,0.0,0.0,0.0,0.0,0.0,0.0,0.0,0.0,0.0,0.0,0.0,0.0,0.0,0.0,0.0,0.0,0.0,0.0,0.0,0.0,0.0,0.0,0.0,0.0,0.0,0.0,0.0,0.0,0.0,0.0,0.0,0.0,0.0,0.0,0.0,0.0,0.0,0.0,0.0,0.0,0.0,0.0,0.0,0.0,0.0,0.0,0.0,0.0,0.0,0.0,0.0,0.0,0.0,0.0,0.0,0.0,0.0,0.0,0.0,0.0,0.0,0.0,0.0,0.0,0.0,0.0,0.0,0.0,0.0,0.0,0.0,0.0,0.0,0.0,0.0,0.0,0.0,0.0,0.0,0.0,0.0,0.0,0.0,0.0,0.0,0.0,0.0,0.0,0.0,0.0,0.0,0.0,0.0,0.0,0.0,0.0,0.0,0.0,0.0,0.0,0.0,0.0,0.0,0.0,-0.9258,-0.857,-0.8069,-0.7891,-0.5409,-0.3883,-0.3448,0.0,0.0,0.0,0.0,0.0,0.0,0.0,0.0,0.0,0.0,0.0,0.0,0.0,0.0,0.0,0.0,0.0,0.0,0.0,0.0,0.0,0.0,0.0,0.0,0.0,0.0,0.0,0.0,0.0,0.0,0.0,0.0,0.0,0.0,0.0,0.0,0.0,0.0,0.0,0.0,0.0,0.0,0.0,0.0,0.0,0.0,0.0,0.0,0.0,0.0,0.0,0.0,0.0,0.0,0.0,0.0,0.0,0.0,0.0,0.0,0.0,0.0,0.0,0.0,0.0,0.0,0.0,0.0,0.0,0.0,0.0,0.0,0.0,0.0,0.0,0.0,0.0,0.0,0.0,0.0,0.0,0.0,0.0,0.0,0.0,0.0,0.0,0.0,0.0,0.0,0.0,0.0,0.0,0.0,0.0,0.0,0.0,0.0,0.0,0.0,0.0,0.0,0.0,0.0,0.0,0.0,0.0,0.0,-0.7754,-0.8609,-0.8403,-0.7101,-0.6846,-0.6261,0.0,0.0,0.0,0.0,0.0,0.0,0.0,0.0,0.0,0.0,0.0,0.0,0.0,0.0,0.0,0.0,0.0,0.0,0.0,0.0,0.0,0.0,0.0,0.0,0.0,0.0,0.0,0.0,0.0,0.0,0.0,0.0,0.0,0.0,0.0,0.0,0.0,0.0,0.0,0.0,0.0,0.0,0.0,0.0,0.0,0.0,0.0,0.0,0.0,0.0,0.0,0.0,0.0,0.0,0.0,0.0,0.0,0.0,0.0,0.0,0.0,0.0,0.0,0.0,0.0,0.0,0.0,0.0,0.0,0.0,0.0,0.0,0.0,0.0,0.0,0.0,0.0,0.0,0.0,0.0,0.0,0.0,0.0,0.0,0.0,0.0,0.0,0.0,0.0,0.0,0.0,0.0,0.0,0.0,0.0,0.0,0.0,0.0,0.0,0.0,0.0,0.0,0.0,0.0,0.0,0.0,0.0,0.0,0.0,-0.8398,-0.9361,-0.9696,-0.928,-0.7437,-0.6394,0.0,0.0,0.0,0.0,0.0,0.0,0.0,0.0,0.0,0.0,0.0,0.0,0.0,0.0,0.0,0.0,0.0,0.0,0.0,0.0,0.0,0.0,0.0,0.0,0.0,0.0,0.0,0.0,0.0,0.0,0.0,0.0,0.0,0.0,0.0,0.0,0.0,0.0,0.0,0.0,0.0,0.0,0.0,0.0,0.0,0.0,0.0,0.0,0.0,0.0,0.0,0.0,0.0,0.0,0.0,0.0,0.0,0.0,0.0,0.0,0.0,0.0,0.0,0.0,0.0,0.0,0.0,0.0,0.0,0.0,0.0,0.0,0.0,0.0,0.0,0.0,0.0,0.0,0.0,0.0,0.0,0.0,0.0,0.0,0.0,0.0,0.0,0.0,0.0,0.0,0.0,0.0,0.0,0.0,0.0,0.0,0.0,0.0,0.0,0.0,0.0,0.0,0.0,0.0,0.0,0.0,0.0,0.0,-0.8336,-0.8742,-0.968,-1.019,-1.0198,-0.8387,-0.7137,0.0,0.0,0.0,0.0,0.0,0.0,0.0,0.0,0.0,0.0,0.0,0.0,0.0,0.0,0.0,0.0,0.0,0.0,0.0,0.0,0.0,0.0,0.0,0.0,0.0,0.0,0.0,0.0,0.0,0.0,0.0,0.0,0.0,0.0,0.0,0.0,0.0,0.0,0.0,0.0,0.0,0.0,0.0,0.0,0.0,0.0,0.0,0.0,0.0,0.0,0.0,0.0,0.0,0.0,0.0,0.0,0.0,0.0,0.0,0.0,0.0,0.0,0.0,0.0,0.0,0.0,0.0,0.0,0.0,0.0,0.0,0.0,0.0,0.0,0.0,0.0,0.0,0.0,0.0,0.0,0.0,0.0,0.0,0.0,0.0,0.0,0.0,0.0,0.0,0.0,0.0,0.0,0.0,0.0,0.0,0.0,0.0,0.0,0.0,0.0,0.0,0.0,0.0,0.0,0.0,0.0,0.0,0.0,-0.8136,-0.9017,-0.9799,-1.0199,-1.0172,-0.9354,-0.8135,0.0,0.0,0.0,0.0,0.0,0.0,0.0,0.0,0.0,0.0,0.0,0.0,0.0,0.0,0.0,0.0,0.0,0.0,0.0,0.0,0.0,0.0,0.0,0.0,0.0,0.0,0.0,0.0,0.0,0.0,0.0,0.0,0.0,0.0,0.0,0.0,0.0,0.0,0.0,0.0,0.0,0.0,0.0,0.0,0.0,0.0,0.0,0.0,0.0,0.0,0.0,0.0,0.0,0.0,0.0,0.0,0.0,0.0,0.0,0.0,0.0,0.0,0.0,0.0,0.0,0.0,0.0,0.0,0.0,0.0,0.0,0.0,0.0,0.0,0.0,0.0,0.0,0.0,0.0,0.0,0.0,0.0,0.0,0.0,0.0,0.0,0.0,0.0,0.0,0.0,0.0,0.0,0.0,0.0,0.0,0.0,0.0,0.0,0.0,0.0,0.0,0.0,0.0,0.0,0.0,0.0,0.0,0.0,-0.8374,-0.9876,-1.0105,-1.0198,-1.019,-0.9353,-0.8404,0.0,0.0,0.0,0.0,0.0,0.0,0.0,0.0,0.0,0.0,0.0,0.0,0.0,0.0,0.0,0.0,0.0,0.0,0.0,0.0,0.0,0.0,0.0,0.0,0.0,0.0,0.0,0.0,0.0,0.0,0.0,0.0,0.0,0.0,0.0,0.0,0.0,0.0,0.0,0.0,0.0,0.0,0.0,0.0,0.0,0.0,0.0,0.0,-0.3366,0.0,0.0,0.0,0.0,0.0,0.0,0.0,0.0,0.0,0.0,0.0,0.0,0.0,0.0,0.0,0.0,0.0,0.0,0.0,0.0,0.0,0.0,0.0,0.0,0.0,0.0,0.0,0.0,0.0,0.0,0.0,0.0,0.0,0.0,0.0,0.0,0.0,0.0,0.0,0.0,0.0,0.0,0.0,0.0,0.0,0.0,0.0,0.0,0.0,0.0,0.0,0.0,0.0,0.0,0.0,0.0,0.0,0.0,0.0,-0.8451,-1.0091,-1.0198,-1.0197,-1.0159,-0.9686,-0.8886,0.0,0.0,0.0,0.0,0.0,0.0,0.0,0.0,0.0,0.0,0.0,0.0,0.0,0.0,0.0,0.0,0.0,0.0,0.0,0.0,0.0,0.0,0.0,0.0,0.0,0.0,0.0,0.0,0.0,0.0,0.0,0.0,0.0,0.0,0.0,0.0,0.0,0.0,0.0,0.0,0.0,0.0,0.0,0.0,0.0,0.0,0.0,0.0,0.0,0.0,0.0,0.0,0.0,0.0,0.0,0.0,0.0,0.0,0.0,0.0,0.0,0.0,0.0,0.0,0.0,0.0,0.0,0.0,0.0,0.0,0.0,0.0,0.0,0.0,0.0,0.0,0.0,0.0,0.0,0.0,0.0,0.0,0.0,0.0,0.0,0.0,0.0,0.0,0.0,0.0,0.0,0.0,0.0,0.0,0.0,0.0,0.0,0.0,0.0,0.0,0.0,0.0,0.0,0.0,0.0,0.0,0.0,-0.7895,-0.8475,-1.0027,-1.0151,-1.0154,-1.0098,-1.0094,-0.9308,-0.7673,0.0,0.0,0.0,0.0,0.0,0.0,0.0,0.0,0.0,0.0,0.0,0.0,0.0,0.0,0.0,0.0,0.0,0.0,0.0,0.0,0.0,0.0,0.0,0.0,0.0,0.0,0.0,0.0,0.0,0.0,0.0,0.0,0.0,0.0,0.0,0.0,0.0,0.0,-0.5093,-0.5095,0.0,0.0,0.0,0.0,0.0,0.0,0.0,0.0,-0.4639,0.0,0.0,0.0,0.0,0.0,0.0,0.0,0.0,0.0,0.0,0.0,0.0,0.0,0.0,0.0,0.0,0.0,0.0,0.0,0.0,0.0,0.0,0.0,0.0,0.0,0.0,0.0,0.0,0.0,0.0,0.0,0.0,0.0,0.0,0.0,0.0,0.0,0.0,0.0,0.0,0.0,0.0,0.0,0.0,0.0,0.0,0.0,0.0,0.0,0.0,0.0,0.0,0.0,0.0,0.0,0.0,-0.7717,-0.7664,-0.8429,-1.0058,-1.0111,-1.0111,-1.0094,-1.0094,-0.9274,-0.7637,0.0,0.0,0.0,0.0,0.0,0.0,0.0,0.0,0.0,0.0,0.0,0.0,0.0,0.0,0.0,0.0,0.0,0.0,0.0,0.0,0.0,0.0,0.0,0.0,0.0,0.0,0.0,0.0,0.0,0.0,0.0,0.0,0.0,0.0,0.0,0.0,0.0,0.0,0.0,-0.5089,-0.5093,0.0,0.0,0.0,0.0,0.0,0.0,0.0,0.0,-0.3943,0.0,0.0,0.0,0.0,0.0,0.0,0.0,0.0,0.0,0.0,0.0,0.0,0.0,0.0,0.0,0.0,0.0,0.0,0.0,0.0,0.0,0.0,0.0,0.0,0.0,0.0,0.0,0.0,0.0,0.0,0.0,0.0,0.0,0.0,0.0,0.0,0.0,0.0,0.0,0.0,0.0,0.0,0.0,0.0,0.0,0.0,0.0,0.0,0.0,0.0,0.0,0.0,0.0,0.0,0.0,-0.7588,-0.8052,-0.8875,-1.0058,-1.0124,-1.0124,-1.0094,-0.9658,-0.8808,0.0,0.0,0.0,0.0,0.0,0.0,0.0,0.0,0.0,0.0,0.0,0.0,0.0,0.0,0.0,0.0,0.0,0.0,0.0,0.0,0.0,0.0,0.0,0.0,0.0,0.0,0.0,0.0,0.0,0.0,0.0,0.0,0.0,0.0,0.0,0.0,0.0,0.0,0.0,0.0,-0.5093,-0.5094,-0.5093,0.0,0.0,0.0,0.0,0.0,0.0,-0.4016,-0.4549,0.0,0.0,0.0,0.0,0.0,0.0,0.0,0.0,0.0,0.0,0.0,0.0,0.0,0.0,0.0,0.0,0.0,0.0,0.0,0.0,0.0,0.0,0.0,0.0,0.0,0.0,0.0,0.0,0.0,0.0,0.0,0.0,0.0,0.0,0.0,0.0,0.0,0.0,0.0,0.0,0.0,0.0,0.0,0.0,0.0,0.0,0.0,0.0,0.0,0.0,0.0,0.0,0.0,0.0,0.0,-0.7625,-0.8465,-0.9288,-1.0062,-1.0159,-1.0159,-1.0096,-0.942,-0.8582,0.0,0.0,0.0,0.0,0.0,0.0,0.0,0.0,0.0,0.0,0.0,0.0,0.0,0.0,0.0,0.0,0.0,0.0,0.0,0.0,0.0,0.0,0.0,0.0,0.0,0.0,0.0,0.0,0.0,0.0,0.0,0.0,0.0,0.0,0.0,0.0,0.0,0.0,0.0,0.0,0.0,-0.5095,-0.5098,-0.5098,0.0,0.0,0.0,0.0,-0.5098,-0.5098,0.0,0.0,0.0,0.0,0.0,0.0,0.0,0.0,0.0,0.0,0.0,0.0,0.0,0.0,0.0,0.0,0.0,0.0,0.0,0.0,0.0,0.0,0.0,0.0,0.0,0.0,0.0,0.0,0.0,0.0,0.0,0.0,0.0,0.0,0.0,0.0,0.0,0.0,0.0,0.0,0.0,0.0,0.0,0.0,0.0,0.0,0.0,0.0,0.0,0.0,0.0,0.0,0.0,0.0,0.0,0.0,-0.7623,-0.845,-0.9294,-1.0058,-1.0104,-1.0102,-1.0094,-0.9996,-0.9182,0.0,0.0,0.0,0.0,0.0,0.0,0.0,0.0,0.0,0.0,0.0,0.0,0.0,0.0,0.0,0.0,0.0,0.0,0.0,0.0,0.0,0.0,0.0,0.0,0.0,0.0,0.0,0.0,0.0,0.0,0.0,0.0,0.0,0.0,0.0,0.0,0.0,0.0,0.0,0.0,0.0,-0.5092,-0.5098,-0.5098,-0.5645,0.0,0.0,0.0,-0.5098,-0.5098,0.0,0.0,0.0,0.0,0.0,0.0,0.0,0.0,0.0,0.0,0.0,0.0,0.0,0.0,0.0,0.0,0.0,0.0,0.0,0.0,0.0,0.0,0.0,0.0,0.0,0.0,0.0,0.0,0.0,0.0,0.0,0.0,0.0,0.0,0.0,0.0,0.0,0.0,0.0,0.0,0.0,0.0,0.0,0.0,0.0,0.0,0.0,0.0,0.0,0.0,0.0,0.0,0.0,0.0,0.0,-0.7602,-0.7642,-0.8907,-0.9748,-1.0075,-1.0094,-1.0094,-1.0094,-0.946,-0.8622,0.0,0.0,0.0,0.0,0.0,0.0,0.0,0.0,0.0,0.0,0.0,0.0,0.0,0.0,0.0,0.0,0.0,0.0,0.0,0.0,0.0,0.0,0.0,0.0,0.0,0.0,0.0,0.0,0.0,0.0,0.0,0.0,0.0,0.0,0.0,0.0,0.0,0.0,0.0,0.0,0.0,0.0,-0.5188,-0.5097,0.0,0.0,0.0,-0.7715,-0.6719,0.0,0.0,0.0,0.0,0.0,0.0,0.0,0.0,0.0,0.0,0.0,0.0,0.0,0.0,0.0,0.0,0.0,0.0,0.0,0.0,0.0,0.0,0.0,0.0,0.0,0.0,0.0,0.0,0.0,0.0,0.0,0.0,0.0,0.0,0.0,0.0,0.0,0.0,0.0,0.0,0.0,0.0,0.0,0.0,0.0,0.0,0.0,0.0,0.0,0.0,0.0,0.0,0.0,0.0,0.0,0.0,0.0,-0.7623,-0.9252,-1.0094,-1.0094,-1.0094,-1.0094,-1.0094,-0.9279,0.0,0.0,0.0,0.0,0.0,0.0,0.0,0.0,0.0,0.0,0.0,0.0,0.0,0.0,0.0,0.0,0.0,0.0,0.0,0.0,0.0,0.0,0.0,0.0,0.0,0.0,0.0,0.0,0.0,0.0,0.0,0.0,0.0,0.0,0.0,0.0,0.0,0.0,0.0,0.0,0.0,0.0,-0.6387,-0.5263,-0.5454,-0.6343,0.0,0.0,-0.9844,-0.8555,-0.6523,-0.5097,0.0,0.0,0.0,0.0,0.0,0.0,0.0,0.0,0.0,0.0,0.0,0.0,0.0,0.0,0.0,0.0,0.0,0.0,0.0,0.0,0.0,0.0,0.0,0.0,0.0,0.0,0.0,0.0,0.0,0.0,0.0,0.0,0.0,0.0,0.0,0.0,0.0,0.0,0.0,0.0,0.0,0.0,0.0,0.0,0.0,0.0,0.0,0.0,0.0,0.0,0.0,0.0,0.0,0.0,0.0,-0.7661,-0.9252,-1.0094,-1.0094,-1.0094,-1.0094,-1.0094,-1.0015,-0.9201,0.0,0.0,0.0,0.0,0.0,0.0,0.0,0.0,0.0,0.0,0.0,0.0,0.0,0.0,0.0,0.0,0.0,0.0,0.0,0.0,0.0,0.0,0.0,0.0,0.0,0.0,0.0,0.0,0.0,0.0,0.0,0.0,0.0,0.0,0.0,0.0,0.0,0.0,0.0,0.0,0.0,-0.6391,-0.5258,-0.6436,-0.8053,0.0,0.0,-1.0254,-1.0156,-0.7285,-0.5098,-0.5098,0.0,0.0,0.0,0.0,0.0,0.0,0.0,0.0,0.0,0.0,0.0,0.0,0.0,0.0,0.0,0.0,0.0,0.0,0.0,0.0,0.0,0.0,0.0,0.0,0.0,0.0,0.0,0.0,0.0,0.0,0.0,0.0,0.0,0.0,0.0,0.0,0.0,0.0,0.0,0.0,0.0,0.0,0.0,0.0,0.0,0.0,0.0,0.0,0.0,0.0,0.0,0.0,0.0,-0.7602,-0.7623,-0.925,-1.0094,-1.0094,-1.0094,-1.0094,-1.0094,-1.0094,-0.9279,0.0,0.0,0.0,0.0,0.0,0.0,0.0,0.0,0.0,0.0,0.0,0.0,0.0,0.0,0.0,0.0,0.0,0.0,0.0,0.0,0.0,0.0,0.0,0.0,0.0,0.0,0.0,0.0,0.0,0.0,0.0,0.0,0.0,0.0,0.0,0.0,0.0,0.0,0.0,0.0,0.0,-0.8117,-0.8176,-0.8731,0.0,0.0,-1.0312,-1.0312,-1.0312,-0.7383,-0.5098,-0.5098,-0.5094,0.0,0.0,0.0,0.0,0.0,0.0,0.0,0.0,0.0,0.0,0.0,0.0,0.0,0.0,0.0,0.0,0.0,0.0,0.0,0.0,0.0,0.0,0.0,0.0,0.0,0.0,0.0,0.0,0.0,0.0,0.0,0.0,0.0,0.0,0.0,0.0,0.0,0.0,0.0,0.0,0.0,0.0,0.0,0.0,0.0,0.0,0.0,0.0,0.0,0.0,0.0,0.0,-0.7602,-0.7602,-0.9254,-1.0094,-1.0094,-1.0094,-1.0094,-1.0094,-1.0094,-0.9266,0.0,0.0,0.0,0.0,0.0,0.0,0.0,0.0,0.0,0.0,0.0,0.0,0.0,0.0,0.0,0.0,0.0,0.0,0.0,0.0,0.0,0.0,0.0,0.0,0.0,0.0,0.0,0.0,0.0,0.0,0.0,0.0,0.0,0.0,0.0,0.0,0.0,0.0,0.0,0.0,0.0,-0.9174,-0.9987,-1.0121,-1.0167,-1.0292,-1.0312,-1.0312,-1.0312,-0.8242,-0.6289,-0.5273,0.0,0.0,0.0,0.0,0.0,0.0,0.0,0.0,0.0,0.0,0.0,0.0,0.0,0.0,0.0,0.0,0.0,0.0,0.0,0.0,0.0,0.0,0.0,0.0,0.0,0.0,0.0,0.0,0.0,0.0,0.0,0.0,0.0,0.0,0.0,0.0,0.0,0.0,0.0,0.0,0.0,0.0,0.0,0.0,0.0,0.0,0.0,0.0,0.0,0.0,0.0,0.0,0.0,0.0,-0.7642,-0.9271,-1.0094,-1.0094,-1.0094,-1.0094,-1.0094,-1.0094,-0.9272,-0.7544,0.0,0.0,0.0,0.0,0.0,0.0,0.0,0.0,0.0,0.0,0.0,0.0,0.0,0.0,0.0,0.0,0.0,0.0,0.0,0.0,0.0,0.0,0.0,0.0,0.0,0.0,0.0,0.0,0.0,0.0,0.0,0.0,0.0,0.0,0.0,0.0,0.0,0.0,0.0,-0.9351,-0.919,-0.9992,-1.017,-1.0226,-1.0292,-1.0312,-1.0312,-1.0312,-1.0195,-0.9043,0.0,0.0,0.0,0.0,0.0,0.0,0.0,0.0,0.0,0.0,0.0,0.0,0.0,0.0,0.0,0.0,0.0,0.0,0.0,0.0,0.0,0.0,0.0,0.0,0.0,0.0,0.0,0.0,0.0,0.0,0.0,0.0,0.0,0.0,0.0,0.0,0.0,0.0,0.0,0.0,-0.9217,-0.9746,0.0,0.0,0.0,0.0,0.0,0.0,0.0,0.0,0.0,0.0,0.0,0.0,-0.8234,-0.85,-0.9538,-1.0094,-1.0094,-1.0094,-1.0094,-1.0094,-1.0094,-0.9116,-0.7041,0.0,0.0,0.0,0.0,0.0,0.0,0.0,0.0,0.0,0.0,0.0,0.0,0.0,0.0,0.0,0.0,0.0,0.0,0.0,0.0,0.0,0.0,0.0,0.0,0.0,0.0,0.0,0.0,0.0,0.0,0.0,0.0,0.0,0.0,0.0,0.0,0.0,-0.9566,-1.0036,-0.988,-0.9833,-1.0172,-1.0154,-1.0155,0.0,0.0,0.0,0.0,0.0,0.0,0.0,0.0,0.0,0.0,0.0,0.0,0.0,0.0,-0.6055,-0.3807,-0.3402,-0.3342,-0.3208,0.0,0.0,0.0,0.0,0.0,0.0,0.0,0.0,0.0,0.0,0.0,0.0,0.0,0.0,0.0,0.0,-0.8936,0.0,0.0,0.0,0.0,0.0,0.0,0.0,0.0,-1.0577,-1.104,-1.0962,-1.1484,-1.1469,0.0,-1.0722,-0.9436,0.0,0.0,0.0,0.0,0.0,0.0,0.0,0.0,-0.8902,-0.8787,-0.9942,-1.0404,-1.0135,-1.0383,-1.0404,-1.0113,-0.9825,-0.8982,-0.7487,-0.6043,-0.5131,0.0,0.0,0.0,0.0,0.0,0.0,0.0,0.0,0.0,0.0,0.0,0.0,0.0,0.0,0.0,0.0,0.0,0.0,0.0,0.0,0.0,0.0,0.0,0.0,0.0,0.0,0.0,0.0,0.0,0.0,0.0,0.0,0.0,-0.5097,-0.8125,-1.0269,-1.0177,-1.0144,-1.0172,-1.0292,0.0,0.0,0.0,0.0,0.0,0.0,0.0,-1.0312,-1.0312,-1.0232,-1.0145,-1.0106,-0.8297,-0.7564,-0.9703,0.0,0.0,-0.7088,-0.5917,-0.5034,-0.4919,-0.4842,-0.4935,-0.5424,-0.51,-0.4706,0.0,0.0,0.0,0.0,0.0,0.0,0.0,0.0,-1.0363,-1.0351,0.0,0.0,0.0,0.0,0.0,0.0,0.0,0.0,0.0,0.0,-1.2724,-1.3179,-1.26,-1.2609,-1.2659,-1.2808,-1.3424,-1.2855,-1.1141,-0.8385,0.0,0.0,0.0,0.0,0.0,0.0,-0.9594,-0.8673,-1.0464,-1.1021,-1.0229,-1.0964,-1.0983,-1.0109,-0.9358,-0.8898,-0.8724,-0.7114,-0.579,-0.4894,-0.4775,0.0,0.0,0.0,0.0,0.0,0.0,0.0,0.0,0.0,0.0,0.0,0.0,0.0,0.0,0.0,0.0,0.0,0.0,0.0,0.0,-0.0078,0.0,0.0,0.0,0.0,0.0,0.0,0.0,0.0,0.0,0.0,-0.5389,-0.8242,-1.0312,-1.0312,0.0,0.0,0.0,0.0,-1.0271,-1.0224,-1.0139,-1.0129,-1.0185,-1.0246,-1.0312,-1.0312,0.0,0.0,-1.0094,-1.0077,-1.0002,-1.0094,-1.0056,-1.0135,-1.0152,-0.7401,-0.531,-0.5359,-0.5309,-0.5535,-0.6757,-0.5952,-0.4827,-1.5214,0.0,0.0,0.0,0.0,-1.4003,-1.4423,-1.5484,-1.4907,-1.3962,-1.2809,-1.2813,0.0,0.0,0.0,0.0,0.0,0.0,-1.162,-1.2885,-1.3349,-1.3876,-1.4419,-1.4419,-1.4469,-1.4481,-1.4068,-1.3615,-1.3076,-1.1702,-1.0033,-0.8202,0.0,0.0,0.0,0.0,-1.0964,-1.0906,-1.1829,-1.1985,-1.1327,-1.137,-1.0968,-1.0058,-0.9758,-0.9331,-0.8738,-0.7594,-0.6617,-0.5836,-0.5163,0.0,0.0,0.0,0.0,0.0,0.0,0.0,0.0,0.0,0.0,0.0,0.0,0.0,0.0,0.0,0.0,0.0,0.0,0.0,-0.3405,-0.1443,0.0,0.0,0.0,0.0,0.0,0.0,0.0,0.0,0.0,0.0,-0.8677,-0.9614,-1.0312,0.0,0.0,-1.0291,-1.0293,-1.0312,-1.0293,-1.029,0.0,0.0,0.0,-1.0212,-1.0312,-1.0312,-1.0186,-1.0094,-1.0094,-1.0094,-1.0094,-1.0094,-1.0094,-1.0117,-1.0023,-0.8389,-0.7368,-0.8322,-0.8553,-0.8117,-0.7437,-0.7011,-0.6401,-1.9119,-1.8096,-1.6753,-1.6484,-1.6926,-1.641,-1.6776,-1.768,-1.7199,-1.6388,-1.5401,-1.5408,-1.4278,-1.2335,-1.1882,0.0,0.0,0.0,-1.2984,-1.4117,-1.4113,-1.4505,-1.517,-1.5195,-1.5195,-1.5173,-1.467,-1.4403,-1.4335,-1.3909,-1.2676,-1.0798,0.0,0.0,-1.1139,-1.1641,-1.2101,-1.2478,-1.2945,-1.2945,-1.2459,-1.1755,-1.0919,-1.0035,-0.9938,-0.9675,-0.916,-0.8005,-0.714,-0.6667,-0.5474,-0.4789,0.0,0.0,0.0,0.0,0.0,0.0,0.0,0.0,0.0,0.0,0.0,-0.0548,-0.1813,0.0,0.0,0.0,0.0,-0.1941,-0.6635,-0.4018,0.0,0.0,0.0,0.0,0.0,0.0,0.0,-0.9885,-1.0094,-1.0126,-1.019,-1.085,-1.1348,-1.1328,-1.0723,-1.0312,-1.0312,0.0,-1.0312,-1.0312,-1.0235,-1.0157,-1.0092,-1.0205,-1.0292,-1.0233,-1.0153,-1.0098,-1.0094,-1.0094,-1.0094,-1.0094,-1.0094,-1.0094,-1.0094,-0.9252,-0.885,-0.9883,-0.9996,-0.95,-0.8436,-0.7912,-0.7293,-2.2797,-2.2528,-1.9411,-1.8122,-1.8084,-1.8045,-1.8003,-1.7988,-1.7949,-1.7869,-1.7815,-1.7795,-1.7218,-1.6144,-1.5143,0.0,0.0,-1.4714,-1.4828,-1.5075,-1.5069,-1.5205,-1.5369,-1.5337,-1.5318,-1.5392,-1.5257,-1.5146,-1.509,-1.5153,-1.4772,-1.3907,-1.3221,-1.2851,-1.2808,-1.2844,-1.313,-1.3621,-1.3843,-1.3843,-1.3495,-1.2052,-1.0888,-1.0108,-0.9965,-0.9846,-0.9755,-0.825,-0.7371,-0.7261,-0.5696,-0.4789,-0.4789,0.0,0.0,0.0,0.0,0.0,0.0,0.0,0.0,0.0,0.0,0.0,0.0,0.0,0.0,0.0,-0.0405,0.0,-0.9133,-0.7172,0.0,0.0,0.0,-0.55,-0.55,-0.8212,-1.0094,-1.0094,0.0,0.0,0.0,0.0,-1.3086,-1.3085,-1.1641,-1.0547,-1.0508,-1.041,-1.0332,-1.0566,-1.0391,-1.0254,-1.0145,-1.0203,-1.0237,-1.0141,-1.0094,-1.0094,-1.0094,-1.0094,-1.0094,-1.0094,-1.0094,-1.0094,-1.0094,-1.0038,-1.0094,-1.0077,-0.9999,-0.9847,-0.9559,-0.8515,-0.7933,-2.2797,-2.2735,-2.1932,-2.1581,-2.1543,-2.0869,-2.06,-2.0523,-1.9946,-1.9308,-1.8692,-1.8684,-1.8078,-1.6998,-1.6534,-1.634,-1.6321,-1.6321,-1.6411,-1.6588,-1.6684,-1.6791,-1.6926,-1.6315,-1.635,-1.6853,-1.5647,-1.5342,-1.586,-1.543,-1.5087,-1.4877,-1.4687,-1.4241,-1.3602,-1.4144,-1.4516,-1.4644,-1.4661,-1.4304,-1.3569,-1.1985,-1.102,-1.0768,-1.0155,-0.9516,-0.892,-0.7881,-0.707,-0.6502,-0.5402,-0.4789,-0.4789,-0.4789,0.0,0.0,0.0,0.0,0.0,0.0,0.0,0.0,0.0,-0.1355,-0.4559,0.0,-0.3723,0.0,-0.3905,-0.4559,-0.6135,-0.7848,0.0,0.0,-0.7385,-0.8921,-0.8902,-0.9614,-1.0094,-1.0094,-1.0094,-1.1092,-1.3698,-1.4385,-1.4657,-1.4686,-1.3665,-1.2754,-1.2324,-1.1094,-1.0781,-1.1895,-1.123,-1.0293,-1.0254,-1.0184,-1.0133,-1.0104,-1.0094,-1.0094,-1.0094,-1.0094,-1.0094,-1.0094,-1.0094,-1.0094,-1.0094,-1.0094,-1.0094,-1.0088,-0.9996,-0.9869,-0.9721,-0.9263,-0.9092,-2.3908,-2.3904,-2.3908,-2.3908,-2.3812,-2.2601,-2.2081,-2.2008,-2.1196,-2.0529,-1.9994,-1.9488,-1.8914,-1.8327,-1.8074,-1.7777,-1.744,-1.744,-1.7308,-1.7113,-1.7251,-1.7325,-1.7406,-1.7005,-1.7038,-1.7369,-1.6525,-1.615,-1.6191,-1.591,-1.558,-1.5212,-1.5195,-1.4903,-1.4381,-1.4781,-1.4981,-1.4952,-1.4925,-1.4491,-1.3599,-1.232,-1.142,-1.1001,-1.0183,-0.9539,-0.9104,-0.8282,-0.7483,-0.6687,-0.5472,-0.4789,-0.4789,-0.4789,-0.3369,0.0,0.0,0.0,0.0,0.0,0.0,0.0,0.0,0.0,0.0,0.0,-0.4879,0.0,-0.5099,0.0,-0.7192,-0.9017,-0.9346,-0.7537,-0.8981,-1.0094,-1.0094,-1.0094,-1.069,-1.2209,-1.2365,-1.3077,-1.4945,-1.5195,-1.5204,-1.5244,-1.4787,-1.4352,-1.4023,-1.3145,-1.293,-1.3809,-1.3203,-1.1934,-1.0605,-1.0183,-1.0094,-1.0094,-1.0094,-1.0094,-1.0094,-1.0094,-1.0094,-1.0094,-1.0094,-1.0094,-1.0094,-1.0094,-1.0094,-1.0086,-1.0044,-0.9927,-0.9739,-0.9652,-0.9617,-2.5308,-2.5303,-2.5269,-2.5239,-2.5148,-2.3693,-2.3007,-2.2867,-2.198,-2.1469,-2.12,-2.0208,-1.9701,-1.9601,-1.9387,-1.893,-1.828,-1.8262,-1.7928,-1.7399,-1.7538,-1.7592,-1.7592,-1.76,-1.7614,-1.7597,-1.752,-1.7087,-1.6352,-1.6462,-1.6061,-1.5234,-1.5195,-1.513,-1.4996,-1.4992,-1.495,-1.4841,-1.4859,-1.4465,-1.3726,-1.284,-1.1981,-1.1168,-1.0205,-0.9661,-0.9537,-0.8865,-0.8115,-0.7301,-0.5703,-0.4789,-0.4789,-0.4789,-0.3548,0.0,-0.3251,0.0,0.0,0.0,0.0,0.0,0.0,0.0,0.0,-0.4836,-0.5092,-0.5686,-0.5729,-0.6941,-0.9844,-1.0094,-1.0094,-1.0094,-1.0094,-1.025,-1.0671,-1.075,-1.1885,-1.4862,-1.5195,-1.5195,-1.5195,-1.5195,-1.5195,-1.5196,-1.5243,-1.5237,-1.5324,-1.5215,-1.5176,-1.541,-1.541,-1.4102,-1.1855,-1.1021,-1.0748,-1.0327,-1.0094,-1.0094,-1.0094,-1.0094,-1.0094,-1.0094,-1.0094,-1.0094,-1.0094,-1.0094,-1.0094,-1.0094,-1.0088,-1.0011,-0.9767,-0.9698,-0.9698,-2.5308,-2.5279,-2.5135,-2.5071,-2.5021,-2.46,-2.41,-2.3539,-2.2507,-2.1676,-2.1035,-2.0704,-2.0197,-1.9613,-1.9405,-1.9231,-1.9077,-1.9077,-1.9,-1.889,-1.9072,-1.9169,-1.9125,-1.8522,-1.8572,-1.9051,-1.7936,-1.7258,-1.7091,-1.6693,-1.6061,-1.5214,-1.5195,-1.5101,0.0,0.0,0.0,0.0,-1.4578,-1.4499,-1.4303,-1.3303,-1.2506,-1.1889,-1.0478,0.0,-0.8776,-0.8574,-0.8119,-0.7298,-0.5703,0.0,0.0,0.0,0.0,0.0,0.0,0.0,0.0,0.0,0.0,0.0,-0.4789,-0.4789,-0.4795,-0.4956,-0.6189,-0.8864,-0.915,-0.9404,-1.0038,-1.0094,-1.0094,-1.0094,-1.0113,-1.1171,-1.3808,-1.4192,-1.4558,-1.5077,-1.5195,-1.5195,-1.5195,-1.5195,-1.5195,-1.5195,-1.5226,-1.5233,-1.5238,-1.5345,-1.541,-1.541,-1.541,-1.5195,-1.4551,-1.418,-1.2978,-1.1019,-1.0094,-1.0171,-1.0115,-1.0094,-1.0094,-1.0094,-1.0094,-1.0094,-1.0094,-1.0094,-1.0094,-1.0094,-1.0094,-1.0006,-0.975,-0.9698,-0.9698,-2.5308,0.0,-2.5088,-2.4991,0.0,-2.4737,-2.4456,-2.4103,-2.3208,-2.2344,-2.1496,-2.1346,-2.1058,-2.0688,-2.0586,-2.0288,-1.9887,-1.9895,-1.9683,-1.9323,-1.9513,-1.9548,-1.9445,-1.9134,-1.9146,-1.9415,-1.8832,-1.8109,-1.7323,-1.7164,-1.6465,-1.5214,-1.5195,-1.5111,-1.4954,-1.4863,-1.4702,-1.4493,-1.4488,-1.4488,-1.4451,-1.3453,-1.264,-1.2076,0.0,0.0,0.0,0.0,0.0,0.0,0.0,0.0,0.0,0.0,0.0,-0.71,-0.7225,-0.7225,-0.721,-0.7301,-0.7277,-0.7225,-0.721,-0.7231,-0.7225,-0.7303,-0.8054,-0.9694,-0.9907,-0.9904,-0.9889,-0.9889,-1.0552,-1.2016,-1.2279,-1.3111,-1.4798,-1.4996,-1.4961,-1.5146,-1.5195,-1.5195,-1.5195,-1.5195,-1.5195,-1.5195,-1.5195,-1.5195,-1.5221,-1.5308,-1.541,-1.541,-1.541,-1.541,-1.5391,-1.5276,-1.4772,-1.2997,-1.2615,-1.1902,-1.0365,-1.0094,-1.0094,-1.0094,-1.0094,-1.0094,-1.0094,-1.0094,-1.0094,-1.0094,-1.0094,-1.0068,-0.9922,-0.9822,-0.9743,-2.5367,-2.5187,-2.5036,-2.4949,-2.4872,-2.4572,-2.4454,-2.4397,0.0,0.0,0.0,-2.2065,-2.1941,-2.1794,-2.1794,-2.1335,-2.0529,-2.0503,-2.0071,-1.9323,-1.9478,-1.9471,-1.9331,-1.9471,-1.9445,-1.932,-1.9638,-1.8919,-1.7361,-1.7565,-1.6853,-1.5324,-1.518,-1.5085,-1.4935,-1.4771,-1.4608,-1.4499,-1.4488,-1.4488,-1.4475,-1.3631,-1.2829,-1.2136,-1.0686,-0.9849,-0.9698,-0.9698,-0.9386,-0.8773,-0.9346,-0.9099,-0.7779,-0.6421,-0.6859,-0.9441,-0.9698,-0.9698,-0.968,-0.8478,-0.8294,-0.9629,-0.9698,-0.9698,-0.9698,-0.9698,-0.9698,-0.9698,-0.9698,-0.9919,-1.0474,-1.0562,-1.1581,-1.4237,-1.4488,-1.4639,-1.4989,-1.4738,-1.4663,-1.5007,-1.513,-1.5195,-1.5195,-1.5195,-1.5195,-1.5195,-1.5195,-1.5207,-1.5238,-1.5318,-1.541,-1.541,-1.541,-1.541,-1.5391,-1.5334,-1.5238,-1.5018,-1.5027,-1.4154,-1.1825,-1.0498,-1.0133,-1.0094,-1.0094,-1.0094,-1.0094,-1.0094,-1.0094,-1.0094,-1.0094,-1.0094,-1.0086,-0.9977,-0.9853,-2.5659,-2.4874,-2.4835,-2.4746,-2.4559,-2.433,-2.4228,-2.4228,-2.4128,-2.3621,-2.2859,-2.2832,-2.2446,-2.1794,-2.1794,-2.1327,-2.0521,-2.0503,-2.0079,0.0,-1.9346,-1.9346,-1.9297,-1.9346,-1.9346,-1.9327,-1.9632,-1.8938,-1.75,-1.7565,-1.6849,-1.5376,-1.5088,-1.4938,-1.4752,-1.4598,-1.4535,-1.4488,-1.4488,-1.4488,-1.4488,-1.4365,-1.3558,-1.215,-1.1209,-1.0406,-0.9739,-0.9698,-0.9643,-0.9551,-0.9625,-0.9573,-0.939,-0.9074,-0.9217,-0.9661,-0.9698,-0.9698,-0.9698,-0.9485,-0.9459,-0.968,-0.9698,-0.9698,-0.9698,-0.9698,-0.9698,-0.9717,-0.9864,-1.0869,-1.3338,-1.3704,-1.3833,-1.4378,-1.4488,-1.4539,-1.4624,-1.4567,-1.4528,-1.463,-1.4965,-1.5183,-1.5192,-1.5195,-1.5195,-1.5195,-1.5195,-1.5215,-1.5274,-1.5357,-1.5391,-1.541,-1.541,-1.541,-1.5391,-1.5391,-1.5352,-1.5366,-1.5276,-1.5011,-1.425,-1.2113,-1.0635,-1.0229,-1.0363,-1.021,-1.0133,-1.0094,-1.0094,-1.0094,-1.0094,-1.0094,-1.0094,-1.0051,-1.005,-2.586,-2.5409,-2.4865,-2.4575,-2.4486,-2.4284,-2.4199,-2.4199,-2.4199,-2.4006,-2.3676,-2.363,-2.3456,-2.3134,-2.3116,-2.24,-2.1198,-2.1198,-2.0509,-1.9334,-1.9279,-1.9279,-1.9279,-1.9279,-1.9279,-1.9312,-1.957,-1.9058,-1.7929,-1.7606,-1.6878,-1.5711,-1.5136,-1.4785,-1.4688,-1.4573,-1.4488,-1.4488,-1.4488,-1.4488,-1.4488,-1.4488,-1.393,-1.2761,-1.1576,-1.0728,-1.0351,-0.9937,-0.9698,-0.9698,-0.9698,-0.9698,-0.9698,-0.9698,-0.9698,-0.9698,-0.9698,-0.9698,-0.9698,-0.9698,-0.9698,-0.9753,-1.1328,-1.2297,-1.2315,-1.069,-1.0433,-1.2095,-1.232,-1.2879,-1.4347,-1.4488,-1.4488,-1.4488,-1.4488,-1.4488,-1.4488,-1.4488,-1.4488,-1.4511,-1.4678,-1.4925,-1.5174,-1.5195,-1.5195,-1.5195,-1.5195,-1.5229,-1.525,-1.532,-1.5362,-1.5391,-1.541,-1.541,-1.541,-1.541,-1.541,-1.541,-1.5332,-1.5252,-1.5182,-1.3596,-1.3019,-1.2769,-1.2192,-1.1156,-1.0423,-1.0094,-1.0094,-1.0094,-1.0094,-1.0094,-1.0094,-1.0094,-1.0094,-2.5957,-2.5514,-2.4806,-2.4469,-2.4428,-2.4257,-2.4199,-2.4199,-2.4199,-2.4199,-2.4199,-2.4199,-2.4199,-2.4199,-2.4199,-2.3318,-2.1941,-2.1794,-2.0894,-1.9407,-1.9279,-1.9279,-1.9279,-1.9279,-1.9279,-1.932,-1.9506,-1.9136,-1.8317,-1.778,-1.7053,-1.6062,-1.5163,-1.4692,-1.4656,-1.4537,-1.4488,-1.4488,-1.4488,-1.4488,-1.4488,-1.4488,-1.4132,-1.328,-1.21,-1.1352,-1.1173,-1.0553,-1.0157,-0.9974,-0.979,-0.9698,-0.9698,-0.9698,-0.9698,-0.9698,-0.9698,-0.9698,-0.9753,-1.041,-1.0778,-1.0814,-1.3068,-1.4488,-1.4292,-1.226,-1.1769,-1.4047,-1.4359,-1.4433,-1.4488,-1.4488,-1.4488,-1.4488,-1.4488,-1.4488,-1.4488,-1.4488,-1.4488,-1.4488,-1.4488,-1.4688,-1.5054,-1.5195,-1.5195,-1.5195,-1.5195,-1.5195,-1.519,-1.5268,-1.5349,-1.5356,-1.5388,-1.541,-1.541,-1.541,-1.541,-1.541,-1.5362,-1.5295,-1.5196,-1.521,-1.5138,-1.4827,-1.408,-1.2964,-1.1577,-1.0517,-1.0229,-1.0094,-1.0094,-1.0094,-1.0094,-1.0094,-1.0094,-2.5876,-2.4487,-2.4529,-2.4393,-2.4247,-2.4209,-2.4199,-2.4199,-2.4199,-2.4199,-2.4199,-2.4199,-2.4199,-2.4199,-2.4199,-2.3336,-2.1886,-2.1794,-2.0913,-1.9444,-1.9279,-1.9279,-1.9279,-1.9279,-1.9279,-1.932,-1.9499,-1.9153,-1.8396,-1.8314,-1.753,-1.6017,-1.5112,-1.4635,-1.4528,-1.4499,-1.4488,-1.4488,-1.4488,-1.4488,-1.4488,-1.4488,-1.4114,-1.334,-1.3157,-1.2724,-1.2021,-1.1934,-1.1526,-1.0824,-1.0102,-0.9717,-0.9698,-0.9698,-0.9698,-0.9698,-0.9753,-0.9698,-0.9937,-1.2425,-1.3925,-1.4071,-1.4213,-1.4488,-1.4488,-1.4194,-1.409,-1.4493,-1.4488,-1.4488,-1.4488,-1.4488,-1.4488,-1.4488,-1.4488,-1.4488,-1.4488,-1.4488,-1.4488,-1.4488,-1.4488,-1.4692,-1.5044,-1.5174,-1.5195,-1.5195,-1.5195,-1.5195,-1.5212,-1.5295,-1.5319,-1.5278,-1.5328,-1.5391,-1.541,-1.541,-1.541,-1.541,-1.541,-1.5352,-1.5297,-1.5243,-1.5201,-1.5193,-1.5061,-1.4563,-1.3865,-1.2462,-1.0346,-1.0121,-1.0123,-1.0146,-1.0117,-1.0137,-1.0156,-2.7001,-2.6248,-2.5391,-2.4718,-2.4236,-2.4199,-2.4199,-2.4199,-2.4199,-2.4199,-2.4199,-2.4199,-2.4199,-2.4199,-2.4199,-2.3566,-2.2501,-2.2006,-2.117,-2.0023,-1.9546,-1.9279,-1.9279,-1.9279,-1.9279,-1.9297,-1.938,-1.9217,-1.88,-1.7991,-1.6954,-1.5826,-1.4971,-1.4556,-1.4512,-1.4488,-1.4488,-1.4488,-1.4488,-1.4488,-1.4488,-1.4488,-1.4347,-1.4004,-1.3532,-1.317,-1.2797,-1.2352,-1.1948,-1.1595,-1.0975,-1.0359,-0.9735,-0.9698,-0.9698,-0.9808,-1.153,-1.2535,-1.2554,-1.3796,-1.4488,-1.4488,-1.4488,-1.4488,-1.4488,-1.4488,-1.4488,-1.4488,-1.4488,-1.4488,-1.4488,-1.4488,-1.4488,-1.4488,-1.4488,-1.4488,-1.4488,-1.4488,-1.4488,-1.4488,-1.4488,-1.4549,-1.4785,-1.5026,-1.518,-1.5195,-1.5195,-1.5195,-1.5207,-1.5257,-1.5261,-1.522,-1.5237,-1.5307,-1.5391,-1.541,-1.541,-1.541,-1.541,-1.5391,-1.5352,-1.5273,-1.522,-1.5289,-1.5285,-1.5245,-1.5069,-1.4275,-1.2752,-1.1509,-1.0377,-1.0716,-1.2772,-1.1527,-1.041,-2.764,-2.7284,-2.5962,-2.5062,-2.4511,-2.4281,-2.4199,-2.4199,-2.4199,-2.4199,-2.4199,-2.4199,-2.4199,-2.4199,-2.4199,-2.3768,-2.2988,-2.2391,-2.1528,-2.0529,-1.9887,-1.9517,-1.9315,-1.9279,-1.9279,-1.9279,-1.9286,-1.9286,-1.9113,-1.7693,-1.6578,-1.5967,-1.5007,-1.4488,-1.4488,-1.4488,-1.4488,-1.4488,-1.4488,-1.4488,-1.4488,-1.4488,-1.4488,-1.4451,-1.3949,-1.3624,-1.3605,-1.3073,-1.2645,-1.2435,-1.2265,-1.1618,-1.047,-1.0764,-1.1021,-1.1182,-1.3178,-1.4488,-1.4488,-1.4488,-1.4488,-1.4488,-1.4488,-1.4488,-1.4488,-1.4488,-1.4488,-1.4488,-1.4488,-1.4488,-1.4488,-1.4488,-1.4488,-1.4488,-1.4488,-1.4488,-1.4488,-1.4488,-1.4488,-1.4488,-1.4488,-1.4533,-1.4645,-1.495,-1.5195,-1.5195,-1.5195,-1.5195,-1.5195,-1.5201,-1.5201,-1.5195,-1.5195,-1.5238,-1.5319,-1.5352,-1.5338,-1.5391,-1.541,-1.541,-1.541,-1.5312,-1.5261,-1.5337,-1.533,-1.5289,-1.5223,-1.4887,-1.4722,-1.2614,-1.1738,-1.2363,-1.4434,-1.2891,-1.1445,-2.7346,-2.6612,-2.5778,-2.5429,-2.5264,-2.4548,-2.4208,-2.4199,-2.4199,-2.4199,-2.4199,-2.4199,-2.4199,-2.4199,-2.4199,-2.3758,-2.3079,-2.2933,-2.2089,-2.0723,-2.0456,-2.0016,-1.9315,-1.9279,-1.9279,-1.9279,-1.9279,-1.9279,-1.9187,-1.7704,-1.689,-1.6743,-1.5258,-1.4488,-1.4488,-1.4488,-1.4488,-1.4488,-1.4488,-1.4488,-1.4488,-1.4488,-1.4488,-1.4488,-1.4438,-1.4383,-1.4383,-1.4402,-1.4022,-1.328,-1.3851,-1.3558,-1.2297,-1.3361,-1.4071,-1.4163,-1.4359,-1.4488,-1.4488,-1.4488,-1.4488,-1.4488,-1.4488,-1.4488,-1.4488,-1.4488,-1.4488,-1.4488,-1.4488,-1.4488,-1.4488,-1.4488,-1.4488,-1.4488,-1.4488,-1.4488,-1.4488,-1.4488,-1.4488,-1.4488,-1.4488,-1.4573,-1.4809,-1.5059,-1.5177,-1.5195,-1.5195,-1.5195,-1.5195,-1.5195,-1.5195,-1.5195,-1.5195,-1.5204,-1.5218,-1.5238,-1.5297,-1.5371,-1.541,-1.541,-1.541,-1.541,-1.5391,-1.5391,-1.5391,-1.5332,-1.5234,-1.5197,-1.5188,-1.4453,-1.4355,-1.5156,-1.5273,-1.5352,-1.4062,-2.8088,-2.7365,-2.7064,-2.6366,-2.5393,-2.5081,-2.4677,-2.4218,-2.4199,-2.4199,-2.4199,-2.4199,-2.4199,-2.4199,-2.4199,-2.4043,-2.3749,-2.3226,-2.2657,-2.1979,-2.0998,-2.0346,-2.0052,-1.9546,-1.9279,-1.9279,-1.9279,-1.9279,-1.9113,-1.7686,-1.6908,-1.6633,-1.5301,-1.4488,-1.4488,-1.4488,-1.4488,-1.4488,-1.4488,-1.4488,-1.4488,-1.4488,-1.4488,-1.4488,-1.4488,-1.4488,-1.4488,-1.4488,-1.4365,-1.4071,-1.4347,-1.4237,-1.376,-1.4181,-1.4488,-1.4488,-1.4488,-1.4488,-1.4488,-1.4488,-1.4488,-1.4488,-1.4488,-1.4488,-1.4488,-1.4488,-1.4488,-1.4488,-1.4488,-1.4488,-1.4488,-1.4488,-1.4488,-1.4488,-1.4488,-1.4488,-1.4488,-1.4488,-1.4488,-1.4488,-1.4488,-1.4545,-1.4692,-1.4965,-1.5186,-1.5195,-1.5195,-1.5195,-1.5195,-1.5195,-1.5195,-1.5195,-1.5195,-1.5195,-1.5195,-1.5198,-1.5234,-1.5352,-1.541,-1.541,-1.541,-1.541,-1.5391,-1.5391,-1.541,-1.5352,-1.5257,-1.529,-1.5332,-1.5371,-1.541,-1.541,-1.541,-1.541,-1.4824,-2.8693,-2.8191,-2.7897,-2.7181,-2.6164,-2.5623,-2.5099,-2.4566,-2.4328,-2.4199,-2.4199,-2.4199,-2.4199,-2.4199,-2.4199,-2.4199,-2.4144,-2.363,-2.3263,-2.2878,-2.1557,-2.0768,-2.0382,-1.9683,-1.9279,-1.9279,-1.9279,-1.9279,-1.9095,-1.7686,-1.6945,-1.6817,-1.5301,-1.4488,-1.4488,-1.4488,-1.4488,-1.4488,-1.4488,-1.4488,-1.4488,-1.4488,-1.4488,-1.4488,-1.4488,-1.4488,-1.4488,-1.4488,-1.4488,-1.4488,-1.4488,-1.4488,-1.4488,-1.4488,-1.4488,-1.4482,-1.4356,-1.4375,-1.4464,-1.4429,-1.4417,-1.4482,-1.4488,-1.4488,-1.4488,-1.4488,-1.4488,-1.4488,-1.4488,-1.4488,-1.4488,-1.4488,-1.4488,-1.4488,-1.4488,-1.4488,-1.4488,-1.4488,-1.4488,-1.4488,-1.4488,-1.4488,-1.4641,-1.5481,-1.5677,-1.5343,-1.5195,-1.5195,-1.5195,-1.5195,-1.5195,-1.5195,-1.5195,-1.5195,-1.5195,-1.5195,-1.5195,-1.5293,-1.5391,-1.5391,-1.5391,-1.541,-1.541,-1.541,-1.5371,-1.5312,-1.5304,-1.5332,-1.5371,-1.541,-1.541,-1.5391,-1.5391,-1.5391,-1.4923,-2.8987,-2.884,-2.8154,-2.7787,-2.7412,-2.6211,-2.5495,-2.5301,-2.4603,-2.4337,-2.4365,-2.4236,-2.4199,-2.4199,-2.4199,-2.4199,-2.4171,-2.4098,-2.3731,-2.3061,-2.2134,-2.129,-2.0603,-1.9711,-1.9279,-1.9279,-1.9279,-1.9279,-1.9187,-1.7814,-1.7018,-1.662,-1.5331,-1.4568,-1.4482,-1.447,-1.4476,-1.4488,-1.4488,-1.4488,-1.4488,-1.4488,-1.4488,-1.4488,-1.4488,-1.4482,-1.4476,-1.4482,-1.4482,-1.4476,-1.4488,-1.4488,-1.4488,-1.4488,-1.4488,-1.4453,-1.4156,-1.4143,-1.4362,-1.4264,-1.4295,-1.4447,-1.4488,-1.4488,-1.4488,-1.4488,-1.4488,-1.4488,-1.4488,-1.4488,-1.4506,-1.486,-1.4818,-1.4488,-1.4488,-1.4488,-1.4488,-1.4488,-1.4488,-1.4488,-1.4488,-1.4488,-1.4918,-1.6078,-1.6735,-1.6082,-1.5607,-1.5373,-1.5247,-1.5195,-1.5195,-1.5346,-1.5308,-1.5195,-1.5195,-1.5195,-1.5195,-1.5215,-1.5312,-1.5371,-1.5371,-1.5371,-1.5371,-1.5371,-1.541,-1.5352,-1.5312,-1.5332,-1.5391,-1.541,-1.5391,-1.5371,-1.5369,-1.5365,-1.5316,-2.8987,-2.8968,-2.873,-2.8301,-2.7798,-2.7247,-2.677,-2.6164,-2.5374,-2.5044,-2.4934,-2.4438,-2.4199,-2.4199,-2.4199,-2.4199,-2.4199,-2.4199,-2.4043,-2.3602,-2.2428,-2.1675,-2.1161,-1.995,-1.9279,-1.9279,-1.9279,-1.9279,-1.9095,-1.8225,-1.7416,-1.6605,-1.5651,-1.4827,-1.4343,-1.4289,-1.4356,-1.4476,-1.4488,-1.4488,-1.4488,-1.4488,-1.4488,-1.4488,-1.4488,-1.4428,-1.4325,-1.4435,-1.4435,-1.4301,-1.4416,-1.4488,-1.4482,-1.4488,-1.4488,-1.45,-1.4411,-1.4087,-1.3833,-1.4154,-1.4387,-1.4476,-1.4506,-1.4488,-1.4488,-1.4488,-1.4543,-1.4543,-1.4506,-1.4488,-1.4824,-1.6628,-1.6738,-1.4756,-1.4488,-1.461,-1.4477,-1.4592,-1.4488,-1.4488,-1.4488,-1.4488,-1.4841,-1.6231,-1.7495,-1.7999,-1.7346,-1.6506,-1.5482,-1.5311,-1.5811,-1.658,-1.6003,-1.5522,-1.5561,-1.5465,-1.5195,-1.5195,-1.5252,-1.5306,-1.5331,-1.5313,-1.5324,-1.5371,-1.5391,-1.5391,-1.5352,-1.5352,-1.5391,-1.541,-1.541,-1.5391,-1.5352,-1.5335,-1.5331,-2.8987,-2.8987,-2.8987,-2.8712,-2.8209,-2.7963,-2.7346,-2.6557,-2.576,-2.5246,-2.4879,-2.441,-2.4199,-2.4199,-2.4199,-2.4199,-2.4199,-2.4199,-2.4199,-2.4034,-2.2905,-2.2125,-2.1629,-2.0087,-1.9279,-1.9279,-1.9279,-1.9279,-1.9242,-1.8493,-1.772,-1.6971,-1.5944,-1.5112,-1.4522,-1.4313,-1.4276,-1.4387,-1.4477,-1.4488,-1.4482,-1.4422,-1.4405,-1.4393,-1.4458,-1.4338,-1.4136,-1.4107,-1.4089,-1.411,-1.4207,-1.4225,-1.4114,-1.4098,-1.42,-1.4416,-1.4332,-1.411,-1.3877,-1.4167,-1.4417,-1.4447,-1.4256,-1.4232,-1.4411,-1.4488,-1.4805,-1.6071,-1.6383,-1.6291,-1.6665,-1.792,-1.8214,-1.6603,-1.6408,-1.5608,-1.4828,-1.5473,-1.5496,-1.5062,-1.4488,-1.5019,-1.6218,-1.7002,-1.8218,-1.9201,-1.8677,-1.7201,-1.6003,-1.5808,-1.6946,-1.7946,-1.8058,-1.7346,-1.6308,-1.5788,-1.5253,-1.5195,-1.5199,-1.5241,-1.5268,-1.5257,-1.5254,-1.5352,-1.541,-1.541,-1.5371,-1.5391,-1.541,-1.541,-1.541,-1.5391,-1.5385,-1.5365,-1.5348,-2.8987,-2.8987,-2.8987,-2.8987,-2.884,-2.8209,-2.7512,-2.6667,-2.587,-2.5117,-2.4493,-2.4263,-2.4199,-2.4199,-2.4199,-2.4199,-2.4199,-2.4199,-2.4199,-2.4025,-2.3345,-2.2575,-2.1288,-1.9903,-1.9315,-1.9279,-1.9279,-1.9279,-1.926,-1.8629,-1.7979,-1.7479,-1.6329,-1.5296,-1.4927,-1.448,-1.4257,-1.4263,-1.4368,-1.4416,-1.4447,-1.4282,-1.4182,-1.4188,-1.4301,-1.422,-1.3913,-1.3659,-1.363,-1.3849,-1.3892,-1.3764,-1.3486,-1.3396,-1.3759,-1.4294,-1.4063,-1.4076,-1.4238,-1.4143,-1.4219,-1.4429,-1.3927,-1.3827,-1.4659,-1.4763,-1.5557,-1.8005,-1.8665,-1.8967,-1.8948,-1.9187,-1.9132,-1.9234,-1.8565,-1.7133,-1.4632,-1.6931,-1.7288,-1.5685,-1.4989,-1.5796,-1.8519,-1.8985,-1.9147,-1.9224,-1.9,-1.7828,-1.6926,-1.7202,-1.8505,-1.91,-1.9365,-1.9,-1.7904,-1.7558,-1.7115,-1.7115,-1.6692,-1.6134,-1.5497,-1.5226,-1.5248,-1.5352,-1.541,-1.541,-1.541,-1.541,-1.541,-1.541,-1.541,-1.541,-1.541,-1.5391,-1.5357,-2.8987,-2.8987,-2.8987,-2.8987,-2.8987,-2.8748,-2.8198,-2.742,-2.6612,-2.576,-2.5062,-2.4438,-2.4199,-2.4199,-2.4199,-2.4199,-2.4199,-2.4199,-2.4199,-2.4171,-2.4025,-2.2281,-2.0399,-1.9572,-1.9279,-1.9279,-1.9279,-1.9279,-1.9279,-1.9025,-1.8453,-1.7575,-1.7103,-1.6187,-1.5058,-1.4762,-1.449,-1.4226,-1.4089,-1.4167,-1.422,-1.4072,-1.3983,-1.3965,-1.3941,-1.3838,-1.3693,-1.3502,-1.3502,-1.3691,-1.3588,-1.3511,-1.3413,-1.3396,-1.3511,-1.3661,-1.3646,-1.3567,-1.3682,-1.3793,-1.4028,-1.4375,-1.3862,-1.424,-1.6054,-1.5172,-1.5668,-1.7337,-1.8482,-1.9279,-1.9279,-1.9279,-1.9279,-1.9201,-1.8789,-1.787,-1.7024,-1.7422,-1.7995,-1.7992,-1.7869,-1.839,-1.8893,-1.9279,-1.9279,-1.9284,-1.9241,-1.9134,-1.8309,-1.8484,-1.9658,-1.9831,-2.0019,-1.9962,-1.9673,-1.9365,-1.9192,-1.9327,-1.8731,-1.7696,-1.6529,-1.5264,-1.5319,-1.541,-1.541,-1.541,-1.541,-1.541,-1.541,-1.541,-1.541,-1.541,-1.541,-1.541,-1.5371,-2.8987,-2.8987,-2.8987,-2.8987,-2.8987,-2.8987,-2.8345,-2.7365,-2.6785,-2.5933,-2.497,-2.4428,-2.4199,-2.4199,-2.4199,-2.4199,-2.4199,-2.4199,-2.4199,-2.4126,-2.3804,-2.2418,-2.0656,-1.9801,-1.9279,-1.9279,-1.9279,-1.9279,-1.9274,-1.9212,-1.8693,-1.803,-1.7541,-1.6709,-1.5758,-1.534,-1.4992,-1.4556,-1.4369,-1.4318,-1.4074,-1.3867,-1.3798,-1.3754,-1.3657,-1.3548,-1.3527,-1.3438,-1.3445,-1.3526,-1.3453,-1.3396,-1.3396,-1.3396,-1.3396,-1.3396,-1.3396,-1.3405,-1.3421,-1.3565,-1.3761,-1.3987,-1.3811,-1.4834,-1.6248,-1.6381,-1.697,-1.7,-1.8408,-1.9132,-1.9279,-1.9279,-1.9279,-1.9232,-1.8771,-1.8265,-1.7872,-1.7754,-1.8268,-1.8945,-1.9279,-1.9279,-1.9279,-1.9279,-1.9279,-1.9331,-1.946,-1.9557,-1.9586,-2.0098,-2.0288,-2.0288,-2.0288,-2.0173,-2.0115,-1.9885,-1.975,-2.0019,-1.9885,-1.8962,-1.729,-1.5636,-1.5415,-1.5469,-1.5449,-1.541,-1.541,-1.541,-1.541,-1.541,-1.541,-1.541,-1.541,-1.541,-1.5371,-2.8987,-2.8987,-2.8987,-2.8987,-2.8987,-2.8968,-2.8198,-2.6932,-2.6596,-2.5724,-2.4551,-2.4185,-2.3996,-2.4112,-2.3976,-2.4064,-2.4064,-2.3996,-2.4066,-2.3846,-2.339,-2.2374,-2.1527,-2.016,-1.9517,-1.9334,-1.9279,-1.9279,-1.9251,-1.9119,-1.8887,-1.8401,-1.7673,-1.708,-1.6506,-1.6147,-1.5571,-1.4881,-1.4746,-1.4422,-1.396,-1.3693,-1.3586,-1.358,-1.3519,-1.3429,-1.343,-1.3396,-1.3413,-1.3405,-1.3396,-1.3396,-1.3396,-1.3396,-1.3396,-1.3396,-1.3396,-1.3396,-1.3472,-1.3656,-1.3645,-1.3653,-1.4214,-1.5182,-1.6566,-1.785,-1.839,-1.7513,-1.85,-1.915,-1.9279,-1.9279,-1.9279,-1.9263,-1.9225,-1.8833,-1.8222,-1.7872,-1.8184,-1.9103,-1.9271,-1.9279,-1.9279,-1.9279,-1.9279,-1.9305,-1.9422,-1.9533,-1.9767,-2.0055,-2.0225,-2.0288,-2.0288,-2.0288,-2.0269,-2.025,-2.0192,-2.025,-2.0231,-1.9462,-1.7731,-1.6377,-1.5827,-1.5586,-1.5703,-1.5605,-1.541,-1.541,-1.543,-1.541,-1.541,-1.541,-1.541,-1.541,-1.5391,-2.8987,-2.8987,-2.8987,-2.8987,-2.8987,-2.8968,-2.8436,-2.7471,-2.6565,-2.5651,-2.4693,-2.3831,-2.3455,-2.3455,-2.3471,-2.3397,-2.35,-2.3522,-2.3544,-2.3687,-2.2988,-2.2345,-2.1687,-2.0658,-1.9932,-1.9462,-1.9279,-1.9279,-1.9243,-1.9076,-1.8852,-1.8541,-1.8111,-1.7549,-1.6819,-1.6632,-1.594,-1.5011,-1.4719,-1.434,-1.3781,-1.3534,-1.3453,-1.3462,-1.3421,-1.3405,-1.3396,-1.3396,-1.3396,-1.3396,-1.3396,-1.3396,-1.3396,-1.3396,-1.3396,-1.3396,-1.3396,-1.3396,-1.354,-1.4075,-1.4304,-1.3888,-1.4701,-1.5957,-1.7367,-1.8527,-1.9078,-1.8794,-1.9113,-1.9279,-1.9279,-1.9279,-1.9279,-1.9279,-1.9271,-1.9209,-1.8893,-1.8238,-1.8288,-1.897,-1.9279,-1.9279,-1.9279,-1.9279,-1.9305,-1.9312,-1.9365,-1.9419,-1.967,-1.9967,-2.0093,-2.0153,-2.0304,-2.0269,-2.0149,-2.0149,-2.0149,-2.0237,-2.0288,-2.0212,-1.8481,-1.7391,-1.6918,-1.6435,-1.6055,-1.5898,-1.5762,-1.5449,-1.5469,-1.5449,-1.5605,-1.5566,-1.5605,-1.5527,-1.541,-2.8987,-2.8987,-2.8987,-2.8987,-2.8987,-2.8987,-2.8429,-2.7462,-2.6517,-2.5535,-2.4581,-2.3602,-2.3218,-2.3189,-2.32,-2.3271,-2.3414,-2.3426,-2.3437,-2.3461,-2.3102,-2.2536,-2.1671,-2.1184,-2.0537,-1.9499,-1.9279,-1.9279,-1.9227,-1.8982,-1.8743,-1.8556,-1.8225,-1.7772,-1.7302,-1.7179,-1.6486,-1.5466,-1.5052,-1.4559,-1.3666,-1.3438,-1.3396,-1.3396,-1.3396,-1.3396,-1.3396,-1.3794,-1.3904,-1.3836,-1.3608,-1.3413,-1.3396,-1.3396,-1.3396,-1.3396,-1.3396,-1.3396,-1.365,-1.4665,-1.5554,-1.5419,-1.5663,-1.6373,-1.7576,-1.8708,-1.9225,-1.9279,-1.9279,-1.9279,-1.9279,-1.9279,-1.9279,-1.9279,-1.9279,-1.9279,-1.9146,-1.8426,-1.8184,-1.8996,-1.9279,-1.9279,-1.9279,-1.9279,-1.9279,-1.9305,-1.9305,-1.9354,-1.9354,-1.9645,-1.9813,-1.9946,-2.0195,-2.0216,-2.0026,-1.9957,-1.9965,-2.0102,-2.0288,-2.0288,-1.9615,-1.8788,-1.8145,-1.7852,-1.7629,-1.6568,-1.6328,-1.5957,-1.6328,-1.7559,-1.7773,-1.666,-1.5859,-1.5781,-1.5586,-2.8987,-2.8987,-2.8987,-2.8987,-2.8987,-2.8987,-2.842,-2.7398,-2.6393,-2.5445,-2.4375,-2.351,-2.2982,-2.3038,-2.3014,-2.3236,-2.3364,-2.3398,-2.3195,-2.3147,-2.314,-2.2419,-2.1575,-2.1224,-2.0674,-1.9407,-1.9279,-1.9279,-1.917,-1.8851,-1.8642,-1.8508,-1.8061,-1.7788,-1.7766,-1.7715,-1.7094,-1.5963,-1.5591,-1.4945,-1.382,-1.3515,-1.3396,-1.3396,-1.3396,-1.3523,-1.3726,-1.4141,-1.4504,-1.4605,-1.4082,-1.3803,-1.3701,-1.3447,-1.3396,-1.3447,-1.3972,-1.4556,-1.4843,-1.5731,-1.683,-1.7715,-1.6779,-1.6583,-1.7693,-1.8455,-1.8945,-1.9232,-1.9279,-1.9279,-1.9279,-1.9279,-1.9279,-1.9279,-1.9279,-1.9279,-1.9135,-1.8523,-1.8653,-1.9028,-1.9279,-1.9279,-1.9279,-1.9279,-1.9279,-1.9279,-1.9279,-1.9279,-1.9279,-1.9331,-1.9547,-1.9632,-1.9826,-1.9907,-1.9731,-2.0026,-1.9996,-2.0079,-2.0288,-2.0288,-2.0288,-1.9788,-1.9231,-1.9673,-1.9314,-1.8185,-1.7214,-1.6836,-1.7754,-1.9668,-1.9727,-1.8398,-1.7266,-1.6191,-1.5957,-2.8987,-2.8987,-2.8987,-2.8987,-2.8987,-2.8987,-2.8658,-2.7974,-2.6387,-2.5433,-2.476,-2.3251,-2.2511,-2.248,-2.2457,-2.2511,-2.2638,-2.2712,-2.2717,-2.2701,-2.2588,-2.1897,-2.1388,-2.0951,-2.0254,-1.9554,-1.9297,-1.9297,-1.9162,-1.8869,-1.8595,-1.8497,-1.8068,-1.7811,-1.7789,-1.7749,-1.736,-1.6462,-1.596,-1.5206,-1.4445,-1.3896,-1.3616,-1.3633,-1.3667,-1.3862,-1.4242,-1.447,-1.4791,-1.5341,-1.5291,-1.5266,-1.5063,-1.4251,-1.3803,-1.4158,-1.5595,-1.6498,-1.6701,-1.7124,-1.758,-1.7715,-1.7445,-1.736,-1.7754,-1.798,-1.8494,-1.9013,-1.9232,-1.9279,-1.9279,-1.9279,-1.9279,-1.9279,-1.9279,-1.9279,-1.9259,-1.9121,-1.8963,-1.924,-1.9279,-1.9279,-1.9279,-1.9279,-1.9279,-1.9279,-1.9279,-1.9279,-1.9279,-1.9279,-1.9361,-1.939,-1.939,-1.9419,-1.9387,-1.9877,-2.0144,-2.0171,-2.0288,-2.0288,-2.0288,-2.0288,-2.0288,-2.0288,-2.0288,-1.9638,-1.8761,-1.7985,-1.8555,-2.0019,-2.0039,-1.9922,-1.8965,-1.791,-1.707,-2.8987,-2.8987,-2.8987,-2.8987,-2.8952,-2.8773,-2.8476,-2.7879,-2.618,-2.5143,-2.4388,-2.3104,-2.2313,-2.2313,-2.2313,-2.2313,-2.2324,-2.2463,-2.25,-2.2461,-2.2146,-2.1638,-2.1123,-2.068,-2.0046,-1.9499,-1.9297,-1.9235,-1.9125,-1.878,-1.8556,-1.831,-1.7982,-1.78,-1.7789,-1.7772,-1.7377,-1.6783,-1.6316,-1.5791,-1.5138,-1.4657,-1.4539,-1.4505,-1.4505,-1.4733,-1.5003,-1.5511,-1.5781,-1.6164,-1.6542,-1.6695,-1.6475,-1.6109,-1.5612,-1.5866,-1.6971,-1.7789,-1.7789,-1.7789,-1.7783,-1.7772,-1.7789,-1.7789,-1.7789,-1.7861,-1.8044,-1.8455,-1.9154,-1.9279,-1.9279,-1.9279,-1.9279,-1.9279,-1.9389,-1.9426,-1.9352,-1.937,-1.9517,-1.9609,-1.9554,-1.9536,-1.9279,-1.9279,-1.9279,-1.9279,-1.9279,-1.9279,-1.9279,-1.9279,-1.9279,-1.9286,-1.9312,-1.9312,-1.9357,-1.9725,-2.0171,-2.0273,-2.0288,-2.0288,-2.0288,-2.0288,-2.0288,-2.0288,-2.0288,-2.0288,-2.0042,-1.9213,-1.9808,-2.0171,-2.0156,-2.0156,-2.0156,-1.9648,-1.8648,-2.8987,-2.8987,-2.8987,-2.8952,-2.8839,-2.8552,-2.817,-2.7483,-2.6085,-2.5045,-2.435,-2.319,-2.2465,-2.233,-2.2313,-2.2296,-2.2307,-2.251,-2.25,-2.2413,-2.2127,-2.1629,-2.1258,-2.0635,-2.0189,-1.9767,-1.9334,-1.9222,-1.9058,-1.8753,-1.8499,-1.829,-1.7986,-1.7789,-1.7789,-1.7789,-1.7354,-1.7094,-1.6699,-1.6333,-1.5808,-1.569,-1.5673,-1.5595,-1.5595,-1.5595,-1.5832,-1.6231,-1.6637,-1.6965,-1.736,-1.7721,-1.7772,-1.7772,-1.7772,-1.7789,-1.7789,-1.7789,-1.7789,-1.7789,-1.7789,-1.7789,-1.7789,-1.7789,-1.7789,-1.7789,-1.7828,-1.7954,-1.8387,-1.9079,-1.9209,-1.9279,-1.9279,-1.9536,-1.994,-2.0399,-2.0656,-2.0821,-2.0968,-2.0803,-2.027,-1.9903,-1.9756,-1.9279,-1.9279,-1.9279,-1.9279,-1.9279,-1.9279,-1.9279,-1.9279,-1.9279,-1.9286,-1.9286,-1.9398,-1.96,-2.0011,-2.0277,-2.0288,-2.0288,-2.0288,-2.0288,-2.0288,-2.0288,-2.0288,-2.0288,-2.0288,-2.0288,-2.0253,-2.0261,-2.0347,-2.0336,-2.0257,-2.0185,-1.9564,-2.8987,-2.8987,-2.8987,-2.8797,-2.8496,-2.842,-2.7984,-2.7287,-2.638,-2.545,-2.444,-2.3628,-2.2868,-2.2431,-2.2313,-2.2313,-2.2324,-2.2363,-2.2467,-2.247,-2.2146,-2.1972,-2.1957,-2.0979,-2.0423,-1.9955,-1.9512,-1.9326,-1.9115,-1.878,-1.8576,-1.841,-1.8018,-1.7789,-1.7789,-1.7789,-1.7766,-1.7557,-1.7033,-1.6417,-1.5917,-1.6086,-1.6035,-1.5832,-1.5781,-1.6018,-1.6502,-1.679,-1.6999,-1.7546,-1.7698,-1.7789,-1.7789,-1.7789,-1.7789,-1.7789,-1.7789,-1.7789,-1.7805,-1.7789,-1.7789,-1.7789,-1.7789,-1.7789,-1.8262,-1.8312,-1.8307,-1.7794,-1.8179,-1.8806,-1.9533,-1.946,-1.9358,-2.0358,-2.1597,-2.2694,-2.3208,-2.2271,-2.2418,-2.2602,-2.2271,-2.1096,-2.0399,-1.9774,-1.9279,-1.9279,-1.9297,-1.9334,-1.9462,-1.9591,-1.9315,-1.9315,-1.9297,-1.9279,-2.0154,-2.0251,-2.037,-2.0584,-2.0304,-2.0288,-2.0288,-2.0288,-2.0288,-2.0288,-2.0288,-2.0288,-2.0288,-2.0288,-2.0288,-2.0318,-2.0343,-2.0341,-2.029,-2.0215,-2.0131,-2.8987,-2.8987,-2.8987,-2.8761,-2.8407,-2.821,-2.7805,-2.7161,-2.6279,-2.5357,-2.4488,-2.3714,-2.2987,-2.2415,-2.2313,-2.2313,-2.2313,-2.2313,-2.2363,-2.2377,-2.201,-2.1703,-2.1313,-2.0688,-2.0188,-1.9925,-1.9417,-1.9127,-1.9008,-1.8816,-1.8547,-1.833,-1.8014,-1.7789,-1.7789,-1.7789,-1.7789,-1.7681,-1.7473,-1.7185,-1.6982,-1.7016,-1.7033,-1.6819,-1.6796,-1.6982,-1.7168,-1.7337,-1.7439,-1.78,-1.7789,-1.7789,-1.7789,-1.7789,-1.7789,-1.7867,-1.8662,-1.8645,-1.7957,-1.7873,-1.7918,-1.7867,-1.8036,-1.856,-1.9693,-2.0234,-2.0234,-2.0386,-2.0382,-2.0529,-2.0784,-2.0974,-2.1003,-2.1693,-2.2833,-2.3508,-2.417,-2.419,-2.3887,-2.4107,-2.4089,-2.2749,-2.1776,-2.1721,-2.1464,-2.1427,-2.0692,-1.9793,-2.0087,-2.0435,-1.9958,-1.9334,-1.9315,-1.9279,-2.0555,-2.1356,-2.1362,-2.1308,-2.0308,-2.0308,-2.0288,-2.0288,-2.0288,-2.0285,-2.03,-2.0304,-2.0285,-2.0288,-2.0288,-2.03,-2.0317,-2.0307,-2.03,-2.0292,-2.0253,-2.8987,-2.8987,-2.8987,-2.8725,-2.8264,-2.7992,-2.7604,-2.7029,-2.6296,-2.5489,-2.466,-2.3816,-2.3004,-2.2431,-2.2313,-2.2313,-2.2313,-2.2313,-2.2363,-2.2214,-2.2009,-2.1777,-2.1627,-2.1036,-2.058,-1.9934,-1.9684,-1.9389,-1.9111,-1.8755,-1.8371,-1.8205,-1.7938,-1.7811,-1.7789,-1.7789,-1.7789,-1.7772,-1.7749,-1.7698,-1.7681,-1.7687,-1.7732,-1.7721,-1.7789,-1.7789,-1.7789,-1.7755,-1.7783,-1.78,-1.7789,-1.7789,-1.7789,-1.7789,-1.7789,-1.7935,-1.8611,-1.9287,-1.8932,-1.8865,-1.8555,-1.8758,-1.9,-2.0099,-2.1536,-2.2313,-2.2279,-2.1924,-2.1958,-2.206,-2.2343,-2.2413,-2.2669,-2.2758,-2.3216,-2.3727,-2.4103,-2.4103,-2.4151,-2.4199,-2.4199,-2.4199,-2.3593,-2.3869,-2.3832,-2.3704,-2.2492,-2.0747,-2.0894,-2.1555,-2.1464,-2.0968,-2.0399,-2.0598,-2.1781,-2.2605,-2.255,-2.2115,-2.1115,-2.0404,-2.0442,-2.0365,-2.0288,-2.0304,-2.0326,-2.026,-2.0252,-2.0269,-2.0288,-2.0308,-2.03,-2.0308,-2.0288,-2.0288,-2.032,-2.8987,-2.8987,-2.8987,-2.8601,-2.7936,-2.7911,-2.7472,-2.6808,-2.6657,-2.6099,-2.5169,-2.4052,-2.3004,-2.2448,-2.2313,-2.2313,-2.2313,-2.2313,-2.2398,-2.2546,-2.2604,-2.2491,-2.2289,-2.2042,-2.1831,-2.1362,-2.0483,-1.9857,-1.9479,-1.8735,-1.8385,-1.8156,-1.7894,-1.7822,-1.7789,-1.7789,-1.7789,-1.7789,-1.7789,-1.7789,-1.7789,-1.7789,-1.7789,-1.7789,-1.7789,-1.7789,-1.7789,-1.7789,-1.7789,-1.7789,-1.7789,-1.7789,-1.7789,-1.7789,-1.7822,-1.8645,-1.8814,-1.9811,-2.0521,-1.9824,-2.0179,-2.1214,-2.1755,-2.1536,-2.2212,-2.2313,-2.2313,-2.2313,-2.2313,-2.2313,-2.2642,-2.3146,-2.3324,-2.3277,-2.3091,-2.3158,-2.3562,-2.3966,-2.4016,-2.4161,-2.4161,-2.4084,-2.3739,-2.3635,-2.4064,-2.3892,-2.3969,-2.2326,-2.2675,-2.3208,-2.3446,-2.3098,-2.218,-2.2417,-2.3574,-2.3964,-2.3842,-2.325,-2.235,-2.1365,-2.0692,-2.0558,-2.0327,-2.0408,-2.0439,-2.031,-2.0208,-2.0264,-2.0288,-2.0288,-2.0288,-2.0288,-2.0288,-2.0288,-2.0328,-2.8987,-2.8987,-2.8987,-2.8589,-2.7897,-2.7897,-2.7439,-2.6775,-2.6691,-2.5997,-2.4898,-2.3849,-2.3004,-2.2482,-2.2313,-2.2313,-2.2313,-2.2313,-2.2388,-2.2412,-2.2473,-2.2358,-2.2218,-2.2043,-2.1615,-2.128,-2.0608,-1.9981,-1.9366,-1.8936,-1.8369,-1.8058,-1.798,-1.7811,-1.7789,-1.7789,-1.7789,-1.7789,-1.7789,-1.7789,-1.7789,-1.7789,-1.7789,-1.7789,-1.7789,-1.7789,-1.7789,-1.7789,-1.7789,-1.7805,-1.7805,-1.7839,-1.802,-1.7991,-1.8848,-2.0048,-2.0251,-2.1011,-2.1366,-2.0251,-1.9638,-2.1705,-2.2262,-2.2313,-2.2313,-2.2313,-2.2313,-2.2313,-2.2313,-2.2313,-2.2446,-2.2721,-2.2846,-2.2871,-2.2841,-2.279,-2.2963,-2.3405,-2.37,-2.3742,-2.3824,-2.3834,-2.3382,-2.293,-2.3513,-2.3978,-2.4103,-2.4199,-2.4199,-2.4199,-2.4199,-2.4199,-2.33,-2.3061,-2.41,-2.4583,-2.496,-2.4274,-2.3462,-2.2769,-2.1846,-2.0558,-2.0388,-2.0482,-2.0934,-2.123,-2.1134,-2.0514,-2.0308,-2.0327,-2.0308,-2.0288,-2.0288,-2.0288,-2.0324,-2.8987,-2.8987,-2.8987,-2.8589,-2.794,-2.7897,-2.7457,-2.6791,-2.6708,-2.6031,-2.4778,-2.4052,-2.3325,-2.2767,-2.2347,-2.2313,-2.2313,-2.2313,-2.2313,-2.2324,-2.2281,-2.2061,-2.188,-2.1828,-2.1878,-2.1248,-2.0877,-2.0471,-2.0025,-1.9481,-1.9065,-1.8719,-1.8397,-1.8358,-1.7789,-1.7789,-1.7789,-1.7789,-1.7789,-1.7789,-1.7789,-1.7789,-1.7681,-1.7692,-1.7715,-1.7704,-1.7747,-1.7835,-1.8106,-1.8058,-1.8036,-1.8104,-1.8459,-1.9118,-2.0285,-2.1502,-2.2313,-2.2313,-2.1671,-2.0944,-2.0116,-2.1992,-2.2313,-2.2313,-2.2313,-2.2313,-2.2313,-2.2313,-2.2313,-2.2313,-2.2313,-2.246,-2.2515,-2.2552,-2.2538,-2.2497,-2.2535,-2.2829,-2.311,-2.3312,-2.3393,-2.3473,-2.3042,-2.2602,-2.2841,-2.3513,-2.3994,-2.4112,-2.4199,-2.4199,-2.4199,-2.4199,-2.3997,-2.4016,-2.4219,-2.4457,-2.4678,-2.4866,-2.4258,-2.4293,-2.3404,-2.2058,-2.1669,-2.2565,-2.2868,-2.2631,-2.2355,-2.2102,-2.1254,-2.0389,-2.0481,-2.0673,-2.0288,-2.0292,-2.0315,-2.8994,-2.8987,-2.8994,-2.8545,-2.7897,-2.7897,-2.7439,-2.6758,-2.6691,-2.6234,-2.5423,-2.4745,-2.4068,-2.3359,-2.2784,-2.2516,-2.2431,-2.2364,-2.2313,-2.2313,-2.2296,-2.2257,-2.23,-2.2295,-2.2211,-2.2153,-2.1738,-2.1297,-2.0989,-2.0323,-1.9947,-1.9731,-1.9461,-1.9152,-1.7957,-1.7817,-1.7817,-1.7839,-1.7924,-1.7817,-1.7935,-1.7873,-1.7658,-1.7502,-1.7653,-1.7692,-1.7766,-1.8,-1.8373,-1.8766,-1.8408,-1.8679,-1.9495,-2.091,-2.1823,-2.2178,-2.2313,-2.2313,-2.2212,-2.211,-2.211,-2.2195,-2.2313,-2.2313,-2.2313,-2.2313,-2.2313,-2.2313,-2.2313,-2.2313,-2.2313,-2.2313,-2.2313,-2.2313,-2.2313,-2.231,-2.2363,-2.2405,-2.2717,-2.2892,-2.2995,-2.3032,-2.2638,-2.2338,-2.2377,-2.2854,-2.3631,-2.3963,-2.4044,-2.4199,-2.4199,-2.4199,-2.4199,-2.4199,-2.4199,-2.4199,-2.4399,-2.4741,-2.4954,-2.4882,-2.4904,-2.4192,-2.4192,-2.4764,-2.4481,-2.3956,-2.3885,-2.3851,-2.2928,-2.2019,-2.1269,-2.1115,-2.0654,-2.0296,-2.0307,-2.8851,-2.8602,-2.862,-2.8183,-2.7589,-2.7811,-2.7424,-2.6791,-2.6657,-2.6285,-2.5676,-2.5287,-2.4814,-2.4069,-2.3376,-2.2987,-2.2936,-2.2398,-2.2313,-2.2313,-2.2313,-2.2296,-2.2349,-2.2374,-2.2385,-2.2298,-2.2058,-2.1706,-2.1153,-2.0873,-2.0437,-2.0166,-2.012,-1.9731,-1.9237,-1.8932,-1.8713,-1.8954,-1.851,-1.7997,-1.8403,-1.8109,-1.7714,-1.7427,-1.7752,-1.7954,-1.8029,-1.8372,-1.8828,-1.9509,-1.92,-1.9534,-2.0276,-2.1552,-2.2262,-2.2313,-2.2313,-2.2313,-2.2313,-2.2245,-2.2279,-2.2313,-2.2313,-2.2313,-2.2313,-2.2313,-2.2313,-2.2313,-2.2313,-2.2313,-2.2313,-2.2313,-2.2313,-2.2313,-2.2313,-2.2313,-2.2338,-2.2324,-2.2446,-2.247,-2.2561,-2.2712,-2.2525,-2.2694,-2.2756,-2.2717,-2.3422,-2.3495,-2.354,-2.3996,-2.4199,-2.4199,-2.4199,-2.4199,-2.4199,-2.4199,-2.4199,-2.4444,-2.4889,-2.5177,-2.525,-2.5308,-2.5231,-2.5038,-2.5154,-2.525,-2.4885,-2.4558,-2.4462,-2.3842,-2.3058,-2.2423,-2.2135,-2.1269,-2.0296,-2.8645,-2.8394,-2.8277,-2.7876,-2.7378,-2.7574,-2.7303,-2.6775,-2.6691,-2.6404,-2.6015,-2.5744,-2.5355,-2.4678,-2.39,-2.3408,-2.3325,-2.2665,-2.2313,-2.2313,-2.2313,-2.2313,-2.2313,-2.2313,-2.2324,-2.2313,-2.2262,-2.2023,-2.1698,-2.1613,-2.1363,-2.0978,-2.0525,-2.0673,-2.0386,-2.0048,-1.9456,-1.9562,-1.9118,-1.8899,-1.9068,-1.8896,-1.8502,-1.8335,-1.8451,-1.8687,-1.8785,-1.902,-1.938,-2.0104,-2.0388,-2.0495,-2.0992,-2.1586,-2.2313,-2.2313,-2.2313,-2.2313,-2.2313,-2.2313,-2.2313,-2.2313,-2.2313,-2.2313,-2.2313,-2.2313,-2.2313,-2.2313,-2.2313,-2.2364,-2.2381,-2.2381,-2.2347,-2.2347,-2.233,-2.233,-2.2313,-2.2313,-2.2313,-2.231,-2.2324,-2.2432,-2.2872,-2.303,-2.3295,-2.3218,-2.3218,-2.3218,-2.3265,-2.3753,-2.419,-2.4199,-2.4199,-2.4199,-2.4199,-2.4199,-2.4199,-2.4199,-2.4572,-2.5005,-2.5308,-2.5308,-2.5308,-2.5308,-2.5308,-2.5308,-2.5308,-2.5135,-2.4884,-2.4889,-2.4769,-2.4192,-2.3735,-2.2581,-2.125,-2.8389,-2.8324,-2.802,-2.7634,-2.7301,-2.7255,-2.7068,-2.6725,-2.6708,-2.6674,-2.6623,-2.5947,-2.5677,-2.5373,-2.4188,-2.3628,-2.3424,-2.2767,-2.2431,-2.233,-2.2313,-2.2313,-2.2313,-2.2313,-2.2313,-2.2313,-2.2296,-2.2262,-2.226,-2.2124,-2.2076,-2.1992,-2.1431,-2.1532,-2.1366,-2.0948,-2.0347,-2.0249,-2.0116,-1.9881,-1.9844,-1.9786,-1.941,-1.9308,-1.9491,-1.9625,-1.9709,-1.9839,-2.0414,-2.086,-2.1028,-2.1503,-2.1924,-2.2265,-2.2313,-2.2313,-2.2313,-2.2313,-2.2313,-2.2313,-2.2313,-2.2313,-2.2313,-2.2313,-2.2313,-2.2313,-2.2313,-2.2313,-2.2313,-2.2431,-2.253,-2.2465,-2.2415,-2.2398,-2.2398,-2.2364,-2.2313,-2.2313,-2.2313,-2.2313,-2.2313,-2.2653,-2.3732,-2.4076,-2.4532,-2.3833,-2.3795,-2.3864,-2.3894,-2.3816,-2.417,-2.4199,-2.4199,-2.4199,-2.4199,-2.4199,-2.4199,-2.4199,-2.4209,-2.4554,-2.4904,-2.5253,-2.5308,-2.5308,-2.5308,-2.5308,-2.5308,-2.5269,-2.518,-2.5208,-2.5011,-2.5074,-2.4325,-2.3818,-2.2673,-2.8264,-2.8006,-2.7634,-2.7224,-2.6906,-2.6873,-2.6791,-2.6708,-2.6708,-2.6708,-2.6691,-2.6488,-2.6302,-2.6268,-2.5389,-2.4678,-2.4069,-2.3444,-2.2801,-2.255,-2.2465,-2.2364,-2.2313,-2.233,-2.2313,-2.2313,-2.2313,-2.2313,-2.2296,-2.2313,-2.2313,-2.2195,-2.2006,-2.2141,-2.2043,-2.1826,-2.1376,-2.1026,-2.0846,-2.0629,-2.0359,-2.018,-1.9943,-1.989,-2.033,-2.0425,-2.0492,-2.0724,-2.129,-2.1738,-2.13,-2.1462,-2.2211,-2.2313,-2.2313,-2.2313,-2.2313,-2.2313,-2.2313,-2.2313,-2.2448,-2.26,-2.2584,-2.233,-2.2313,-2.2584,-2.2651,-2.2871,-2.2989,-2.3243,-2.3494,-2.3477,-2.3342,-2.3274,-2.3139,-2.2871,-2.2736,-2.2313,-2.2313,-2.2313,-2.2313,-2.2906,-2.4034,-2.6002,-2.6249,-2.5084,-2.4429,-2.4476,-2.435,-2.4213,-2.4161,-2.419,-2.4199,-2.4199,-2.4199,-2.4199,-2.4199,-2.4199,-2.4209,-2.4247,-2.4524,-2.4864,-2.5165,-2.5308,-2.5308,-2.5308,-2.5308,-2.5203,-2.4993,-2.4663,-2.4493,-2.483,-2.4962,-2.442,-2.4183,-2.8106,-2.784,-2.7286,-2.6923,-2.6725,-2.6708,-2.6708,-2.6708,-2.6708,-2.6708,-2.6708,-2.6674,-2.6691,-2.6556,-2.5896,-2.5304,-2.4897,-2.4188,-2.3613,-2.3393,-2.2868,-2.2818,-2.2733,-2.2479,-2.2313,-2.2313,-2.2313,-2.2313,-2.2313,-2.2313,-2.2313,-2.2313,-2.2313,-2.2313,-2.2203,-2.196,-2.1668,-2.1348,-2.1099,-2.0937,-2.0693,-2.0523,-2.0441,-2.0433,-2.1005,-2.1189,-2.1273,-2.1632,-2.1924,-2.2166,-2.1524,-2.1539,-2.2166,-2.2313,-2.2313,-2.2415,-2.3038,-2.2767,-2.2513,-2.2313,-2.2922,-2.368,-2.3951,-2.4171,-2.4222,-2.4475,-2.4425,-2.4458,-2.4374,-2.4342,-2.456,-2.4695,-2.4558,-2.4406,-2.3985,-2.3562,-2.3006,-2.2415,-2.2313,-2.2313,-2.2605,-2.3067,-2.456,-2.6879,-2.7857,-2.6483,-2.5382,-2.4862,-2.4598,-2.4224,-2.418,-2.419,-2.4199,-2.4199,-2.4199,-2.4199,-2.4199,-2.4199,-2.4199,-2.4257,-2.4338,-2.4678,-2.5176,-2.5308,-2.5308,-2.5308,-2.5288,-2.4904,-2.4625,-2.4348,-2.4199,-2.4451,-2.4816,-2.4918,-2.4842,-2.7897,-2.7823,-2.7019,-2.6708,-2.6708,-2.6624,-2.6641,-2.6674,-2.6556,-2.6624,-2.6657,-2.6708,-2.6708,-2.659,-2.6099,-2.5744,-2.5355,-2.4814,-2.4423,-2.4457,-2.3763,-2.3492,-2.3289,-2.2818,-2.2665,-2.2479,-2.233,-2.2313,-2.2313,-2.2313,-2.2313,-2.2313,-2.2313,-2.2254,-2.2075,-2.1855,-2.146,-2.0975,-2.0797,-2.0653,-2.0879,-2.1085,-2.1398,-2.1528,-2.1828,-2.2099,-2.2186,-2.2282,-2.2313,-2.2106,-2.1959,-2.184,-2.2092,-2.2313,-2.2313,-2.275,-2.3509,-2.3848,-2.3393,-2.3122,-2.4239,-2.5423,-2.6657,-2.6184,-2.5845,-2.5778,-2.5676,-2.5659,-2.5575,-2.5575,-2.5727,-2.5744,-2.5625,-2.5506,-2.5203,-2.4763,-2.4255,-2.368,-2.3277,-2.3327,-2.3595,-2.4156,-2.5631,-2.7868,-2.8069,-2.7185,-2.6855,-2.607,-2.5107,-2.4612,-2.4291,-2.4273,-2.4199,-2.4199,-2.4199,-2.4199,-2.4199,-2.4199,-2.4199,-2.4209,-2.4266,-2.4708,-2.5264,-2.5308,-2.5308,-2.5308,-2.5214,-2.4809,-2.4468,-2.4303,-2.4199,-2.4199,-2.4459,-2.4823,-2.5101,-2.7897,-2.7826,-2.7035,-2.6708,-2.6641,-2.6314,-2.6384,-2.6607,-2.5872,-2.6034,-2.6607,-2.6691,-2.6708,-2.6623,-2.6471,-2.6167,-2.5642,-2.5473,-2.5017,-2.4745,-2.4321,-2.4254,-2.4101,-2.3511,-2.319,-2.2936,-2.2699,-2.2434,-2.2375,-2.2369,-2.2347,-2.2333,-2.2417,-2.2413,-2.1954,-2.1697,-2.1341,-2.0632,-2.0416,-2.0364,-2.0466,-2.0616,-2.0797,-2.1306,-2.1735,-2.1988,-2.212,-2.2313,-2.2313,-2.224,-2.218,-2.2194,-2.2279,-2.2296,-2.233,-2.2584,-2.39,-2.4643,-2.4948,-2.4526,-2.5084,-2.5913,-2.6708,-2.6708,-2.6657,-2.6708,-2.6708,-2.6708,-2.6708,-2.6708,-2.6691,-2.664,-2.659,-2.6488,-2.6386,-2.5913,-2.5473,-2.4966,-2.4425,-2.4526,-2.4729,-2.5768,-2.7139,-2.7721,-2.7849,-2.8069,-2.8333,-2.7794,-2.6327,-2.5474,-2.4593,-2.4447,-2.4236,-2.4199,-2.4199,-2.4199,-2.4199,-2.4199,-2.4199,-2.4199,-2.4237,-2.4766,-2.5308,-2.5308,-2.5308,-2.5243,-2.5043,-2.4632,-2.4347,-2.4228,-2.4199,-2.4199,-2.4199,-2.4476,-2.4836,-2.7897,-2.7779,-2.7035,-2.6708,-2.6607,-2.6191,-2.6262,-2.6521,-2.5873,-2.5964,-2.659,-2.6505,-2.6487,-2.6657,-2.6708,-2.6556,-2.6083,-2.6099,-2.593,-2.5574,-2.5083,-2.5015,-2.4678,-2.424,-2.4017,-2.3729,-2.3494,-2.3197,-2.2662,-2.31,-2.3262,-2.2712,-2.2746,-2.2802,-2.2188,-2.1887,-2.1311,-2.0364,-2.0202,-2.0131,-2.0166,-2.0294,-2.06,-2.1134,-2.166,-2.193,-2.2106,-2.2313,-2.2313,-2.2313,-2.2268,-2.2268,-2.2296,-2.2313,-2.3105,-2.4137,-2.5186,-2.5812,-2.6183,-2.6132,-2.5777,-2.642,-2.6708,-2.6708,-2.6708,-2.6708,-2.6708,-2.6708,-2.6708,-2.6708,-2.6708,-2.6674,-2.6657,-2.659,-2.6573,-2.6336,-2.6184,-2.5981,-2.5659,-2.5609,-2.5969,-2.667,-2.7815,-2.8418,-2.851,-2.851,-2.8895,-2.8932,-2.7592,-2.6602,-2.564,-2.4685,-2.452,-2.4291,-2.4199,-2.4199,-2.4199,-2.4199,-2.4199,-2.4417,-2.4612,-2.4974,-2.5308,-2.5208,-2.5118,-2.5049,-2.4795,-2.4442,-2.4312,-2.4218,-2.4199,-2.4199,-2.4199,-2.4199,-2.4476,-2.7783,-2.7651,-2.7004,-2.6708,-2.6624,-2.6209,-2.6262,-2.6556,-2.6138,-2.6175,-2.6573,-2.6122,-2.6228,-2.6556,-2.6607,-2.6657,-2.6624,-2.6505,-2.6539,-2.6387,-2.5964,-2.5795,-2.5424,-2.4937,-2.4487,-2.4236,-2.4035,-2.3528,-2.2942,-2.3401,-2.3453,-2.3093,-2.3321,-2.3698,-2.2867,-2.2245,-2.1609,-2.0872,-2.0476,-2.0155,-2.0113,-2.0131,-2.0531,-2.1103,-2.1676,-2.2202,-2.2338,-2.2567,-2.2584,-2.2685,-2.2885,-2.319,-2.3044,-2.312,-2.4258,-2.5413,-2.6133,-2.6471,-2.664,-2.659,-2.6539,-2.6708,-2.6708,-2.6624,-2.659,-2.6539,-2.6539,-2.6624,-2.6624,-2.6708,-2.6708,-2.6708,-2.6708,-2.6708,-2.6708,-2.6708,-2.6708,-2.6708,-2.659,-2.6505,-2.707,-2.7675,-2.8197,-2.8827,-2.8964,-2.8964,-2.8975,-2.8987,-2.8748,-2.8069,-2.7281,-2.5897,-2.4942,-2.4685,-2.4291,-2.4438,-2.4502,-2.4199,-2.4247,-2.4601,-2.493,-2.5107,-2.516,-2.4999,-2.4917,-2.4766,-2.4596,-2.4294,-2.4209,-2.4199,-2.4199,-2.4199,-2.4199,-2.4199,-2.4199,-2.7225,-2.6923,-2.6758,-2.6708,-2.6624,-2.6209,-2.6263,-2.6505,-2.5783,-2.5837,-2.6315,-2.5872,-2.5817,-2.6674,-2.6296,-2.6297,-2.6691,-2.6708,-2.6708,-2.659,-2.6354,-2.6404,-2.6118,-2.5313,-2.4497,-2.4315,-2.4264,-2.377,-2.3506,-2.3467,-2.3276,-2.3046,-2.3078,-2.312,-2.2598,-2.2183,-2.2028,-2.1356,-2.1205,-2.1085,-2.0831,-2.0716,-2.0388,-2.0747,-2.115,-2.2085,-2.2882,-2.375,-2.4,-2.4085,-2.4005,-2.4464,-2.4331,-2.3967,-2.4742,-2.595,-2.6708,-2.6708,-2.6708,-2.6708,-2.6708,-2.6708,-2.6539,-2.6053,-2.6017,-2.5982,-2.6089,-2.635,-2.6419,-2.6657,-2.6708,-2.6708,-2.6708,-2.6708,-2.6708,-2.6708,-2.6708,-2.6708,-2.6657,-2.7013,-2.7563,-2.8002,-2.836,-2.8725,-2.8797,-2.8839,-2.8887,-2.891,-2.8987,-2.884,-2.8675,-2.7336,-2.5786,-2.474,-2.4218,-2.4832,-2.4942,-2.4538,-2.4228,-2.4425,-2.4693,-2.5043,-2.5037,-2.4766,-2.4564,-2.44,-2.4218,-2.4199,-2.4199,-2.4199,-2.4199,-2.4199,-2.4199,-2.4199,-2.4199]},{"header":{"parameterUnit":"m.s-1","parameterCategory":1,"la1":31.0,"la2":29.5877,"lo1":-88.7671,"lo2":-86.6584,"dy":0.0162,"dx":0.0185,"nx":115,"ny":88,"refTime":"2026-05-20T00:00:00:Z","depth":0,"parameterNumber":3,"parameterNumberName":"V-component_of_WINDS"},"data":[0.0,0.0,0.0,0.0,0.0,0.0,0.0,0.0,0.0,0.0,0.0,0.0,0.0,0.0,0.0,0.0,0.0,0.0,0.0,0.0,0.0,0.0,0.0,0.0,0.0,0.0,0.0,0.0,0.0,0.0,0.0,0.0,0.0,0.0,0.0,0.0,0.0,0.0,0.0,0.0,0.0,0.0,0.0,0.0,0.0,0.0,0.0,0.0,0.0,0.0,0.0,0.0,0.0,0.0,0.0,0.0,0.0,0.0,0.0,0.0,0.0,0.0,0.0,0.0,0.0,0.0,0.0,0.0,0.0,0.0,0.0,0.0,0.0,0.0,0.0,0.0,0.0,0.0,0.0,0.0,0.0,0.0,0.0,0.0,0.0,0.0,0.0,0.0,0.0,0.0,0.0,0.0,0.0,0.0,0.0,0.0,0.0,0.0,0.0,0.0,0.0,0.0,0.0,0.0,0.0,0.0,0.0,0.0,0.0,0.0,0.0,0.0,0.0,0.0,0.0,0.0,0.0,0.0,0.0,0.0,0.0,0.0,0.0,0.0,0.0,0.0,0.0,0.0,0.0,0.0,0.0,0.0,0.0,0.0,0.0,0.0,0.0,0.0,0.0,0.0,0.0,0.0,0.0,0.0,0.0,0.0,0.0,0.0,0.0,0.0,0.0,0.0,0.0,0.0,0.0,0.0,0.0,0.0,0.0,0.0,0.0,0.0,0.0,0.0,0.0,0.0,0.0,0.0,0.0,0.0,0.0,0.0,0.0,0.0,0.0,0.0,0.0,0.0,0.0,0.0,0.0,0.0,0.0,0.0,0.0,0.0,0.0,0.0,0.0,0.0,0.0,0.0,0.0,0.0,0.0,0.0,0.0,0.0,0.0,0.0,0.0,0.0,0.0,0.0,0.0,0.0,0.0,0.0,0.0,0.0,0.0,0.0,0.0,0.0,0.0,0.0,0.0,0.0,0.0,0.0,0.0,0.0,0.0,0.0,0.0,0.0,0.0,0.0,0.0,0.0,0.0,0.0,0.0,0.0,0.0,0.0,0.0,0.0,0.0,0.0,0.0,0.0,0.0,0.0,0.0,0.0,0.0,0.0,0.0,0.0,0.0,0.0,0.0,0.0,0.0,0.0,0.0,0.0,0.0,0.0,0.0,0.0,0.0,0.0,0.0,0.0,0.0,0.0,0.0,0.0,0.0,0.0,0.0,0.0,0.0,0.0,0.0,0.0,0.0,0.0,0.0,0.0,0.0,0.0,0.0,0.0,0.0,0.0,0.0,0.0,0.0,0.0,0.0,0.0,0.0,0.0,0.0,0.0,0.0,0.0,0.0,0.0,0.0,0.0,0.0,0.0,0.0,0.0,0.0,0.0,0.0,0.0,0.0,0.0,0.0,0.0,0.0,0.0,0.0,0.0,0.0,0.0,0.0,0.0,0.0,0.0,0.0,0.0,0.0,0.0,0.0,0.0,0.0,0.0,0.0,0.0,0.0,0.0,0.0,0.0,0.0,0.0,0.0,0.0,0.0,0.0,0.0,0.0,0.0,0.0,0.0,0.0,0.0,0.0,0.0,0.0,0.0,0.0,0.0,0.0,0.0,0.0,0.0,0.0,0.0,0.0,0.0,0.0,0.0,0.0,0.0,0.0,0.0,0.0,0.0,0.0,0.0,0.0,0.0,0.0,0.0,0.0,0.0,0.0,0.0,0.0,0.0,0.0,0.0,0.0,0.0,0.0,0.0,0.0,0.0,0.0,0.0,0.0,0.0,0.0,0.0,0.0,0.0,0.0,0.0,0.0,0.0,0.0,0.0,0.0,0.0,0.0,0.0,0.0,0.0,0.0,0.0,0.0,0.0,0.0,0.0,0.0,0.0,0.0,0.0,0.0,0.0,0.0,0.0,0.0,0.0,0.0,0.0,0.0,0.0,0.0,0.0,0.0,0.0,0.0,0.0,0.0,0.0,0.0,0.0,0.0,0.0,0.0,0.0,0.0,0.0,0.0,0.0,0.0,0.0,0.0,0.0,0.0,0.0,0.0,0.0,0.0,0.0,0.0,0.0,0.0,0.0,0.0,0.0,0.0,0.0,0.0,0.0,0.0,0.0,0.0,0.0,0.0,0.0,0.0,0.0,0.0,0.0,0.0,0.0,0.0,0.0,0.0,0.0,0.0,0.0,0.0,0.0,0.0,0.0,0.0,0.0,0.0,0.0,0.0,0.0,0.0,0.0,0.0,0.0,0.0,0.0,0.0,0.0,0.0,0.0,0.0,0.0,0.0,0.0,0.0,0.0,0.0,0.0,0.0,0.0,0.0,0.0,0.0,0.0,0.0,0.0,0.0,0.0,0.0,0.0,0.0,0.0,0.0,0.0,0.0,0.0,0.0,0.0,0.0,0.0,0.0,0.0,0.0,0.0,0.0,0.0,0.0,0.0,0.0,0.0,0.0,0.0,0.0,0.0,0.0,0.0,0.0,0.0,0.0,0.0,0.0,0.0,0.0,0.0,0.0,0.0,0.0,0.0,0.0,0.0,0.0,0.0,0.0,0.0,0.0,0.0,0.0,0.0,0.0,0.0,0.0,0.0,0.0,0.0,0.0,0.0,0.0,0.0,0.0,0.0,0.0,0.0,0.0,0.0,0.0,0.0,0.0,0.0,0.0,0.0,0.0,0.0,0.0,0.0,0.0,0.0,0.0,0.0,0.0,0.0,0.0,0.0,0.0,0.0,0.0,0.0,0.0,0.0,0.0,0.0,0.0,0.0,0.0,0.0,0.0,0.0,0.0,0.0,0.0,0.0,0.0,0.0,0.0,0.0,0.0,0.0,0.0,0.0,0.0,0.0,0.0,0.0,0.0,0.0,0.0,0.0,0.0,0.0,0.0,0.0,0.0,0.0,0.0,0.0,0.0,0.0,0.0,0.0,0.0,0.0,0.0,0.0,0.0,0.0,0.0,0.0,0.0,0.0,0.0,0.0,0.0,0.0,0.0,0.0,0.0,0.0,0.0,0.0,0.0,0.0,0.0,0.0,0.0,0.0,0.0,0.0,0.0,0.0,0.0,0.0,0.0,0.0,0.0,0.0,0.0,0.0,0.0,0.0,0.0,0.0,0.0,0.0,0.0,0.0,0.0,0.0,0.0,0.0,0.0,0.0,0.0,0.0,0.0,0.0,0.0,0.0,0.0,0.0,0.0,0.0,0.0,0.0,0.0,0.0,0.0,0.0,0.0,0.0,0.0,0.0,0.0,0.0,0.0,0.0,0.0,0.0,0.0,0.0,0.0,0.0,0.0,0.0,0.0,0.0,0.0,0.0,0.0,0.0,0.0,0.0,0.0,0.0,0.0,0.0,0.0,0.0,0.0,0.0,0.0,0.0,0.0,0.0,0.0,0.0,0.0,0.0,0.0,0.0,0.0,0.0,0.0,0.0,0.0,0.0,0.0,0.0,0.0,0.0,0.0,0.0,0.0,0.0,0.0,0.0,0.0,0.0,0.0,0.0,0.0,0.0,0.0,0.0,0.0,0.0,0.0,0.0,0.0,0.0,0.0,0.0,0.0,0.0,0.0,0.0,0.0,0.0,0.0,0.0,0.0,0.0,0.0,0.0,0.0,0.0,0.0,0.0,0.0,0.0,0.0,0.0,0.0,0.0,0.0,0.0,0.0,0.0,0.0,0.0,0.0,0.0,0.0,0.0,0.0,0.0,0.0,0.0,0.0,0.0,0.0,0.0,0.0,0.0,0.0,0.0,0.0,0.0,0.0,0.0,0.0,0.0,0.0,0.0,0.0,0.0,0.0,0.0,0.0,0.0,0.0,0.0,0.0,0.0,0.0,0.0,0.0,0.0,0.0,0.0,0.0,0.0,0.0,0.0,0.0,0.0,0.0,0.0,0.0,0.0,0.0,0.0,0.0,0.0,0.0,0.0,0.0,0.0,0.0,0.0,0.0,0.0,0.0,0.0,0.0,0.0,0.0,0.0,0.0,0.0,0.0,0.0,0.0,0.0,0.0,0.0,0.0,0.0,0.0,0.0,0.0,0.0,0.0,0.0,0.0,0.0,0.0,0.0,0.0,0.0,0.0,0.0,0.0,0.0,0.0,0.0,0.0,0.0,0.0,0.0,0.0,0.0,0.0,0.0,0.0,0.0,0.0,0.0,0.0,0.0,0.0,0.0,0.0,0.0,0.0,0.0,0.0,0.0,0.0,0.0,0.0,0.0,0.0,0.0,0.0,0.0,0.0,0.0,0.0,0.0,0.0,0.0,0.0,0.0,0.0,0.0,0.0,0.1667,0.0,0.0,0.0,0.0,0.0,0.0,0.0,0.0,0.0,0.0,0.0,0.0,0.0,0.0,0.0,0.0,0.0,0.0,0.0,0.0,0.0,0.0,0.0,0.0,0.0,0.0,0.0,0.0,0.0,0.0,0.0,0.0,0.0,0.0,0.0,0.0,0.0,0.0,0.0,0.0,0.0,0.0,0.0,0.0,0.0,0.0,0.0,0.0,0.0,0.0,0.0,0.0,0.0,0.0,0.0,0.0,0.0,0.0,0.0,0.0,0.0,0.0,0.0,0.0,0.0,0.0,0.0,0.0,0.0,0.0,0.0,0.0,0.0,0.0,0.0,0.0,0.0,0.0,0.0,0.0,0.0,0.0,0.0,0.0,0.0,0.0,0.0,0.0,0.0,0.0,0.0,0.0,0.0,0.0,0.0,0.0,0.0,0.0,0.0,0.0,0.0,0.0,0.0,0.0,0.0,0.0,0.0,0.0,0.0,0.0,0.0,0.0,0.1176,0.1803,0.1796,0.0,0.0,0.0,0.0,0.0,0.0,0.0,0.0,0.0,0.0,0.0,0.0,0.0,0.0,0.0,0.0,0.0,0.0,0.0,0.0,0.0,0.0,0.0,0.0,0.0,0.0,0.0,0.0,0.0,0.0,0.0,0.0,0.0,0.0,0.0,0.0,0.0,0.0,0.0,0.0,0.0,0.0,0.0,0.0,0.0,0.0,0.0,0.0,0.0,0.0,0.0,0.0,0.0,0.0,0.0,0.0,0.0,0.0,0.0,0.0,0.0,0.0,0.0,0.0,0.0,0.0,0.0,0.0,0.0,0.0,0.0,0.0,0.0,0.0,0.0,0.0,0.0,0.0,0.0,0.0,0.0,0.0,0.0,0.0,0.0,0.0,0.0,0.0,0.0,0.0,0.0,0.0,0.0,0.0,0.0,0.0,0.0,0.0,0.0,0.0,0.0,0.0,0.0,0.0,0.0,0.0,0.0,0.0,0.0,0.0,0.0,0.0,0.1687,0.2116,0.1993,0.0,0.0,0.0,0.0,0.0,0.0,0.0,0.0,0.0,0.0,0.0,0.0,0.0,0.0,0.0,0.0,0.0,0.0,0.0,0.0,0.0,0.0,0.0,0.0,0.0,0.0,0.0,0.0,0.0,0.0,0.0,0.0,0.0,0.0,0.0,0.0,0.0,0.0,0.0,0.0,0.0,0.0,0.0,0.0,0.0,0.0,0.0,0.0,0.0,0.0,0.0,0.0,0.0,0.0,0.0,0.0,0.0,0.0,0.0,0.0,0.0,0.0,0.0,0.0,0.0,0.0,0.0,0.0,0.0,0.0,0.0,0.0,0.0,0.0,0.0,0.0,0.0,0.0,0.0,0.0,0.0,0.0,0.0,0.0,0.0,0.0,0.0,0.0,0.0,0.0,0.0,0.0,0.0,0.0,0.0,0.0,0.0,0.0,0.0,0.0,0.0,0.0,0.0,0.0,0.0,0.0,0.0,0.0,0.0,0.0,0.1016,0.3105,0.3274,0.0,0.2574,0.0,0.0,0.0,0.0,0.0,0.0,0.0,0.0,0.0,0.0,0.0,0.0,0.0,0.0,0.0,0.0,0.0,0.0,0.0,0.0,0.0,0.0,0.0,0.0,0.0,0.0,0.0,0.0,0.0,0.0,0.0,0.0,0.0,0.0,0.0,0.0,0.0,0.0,0.0,0.0,0.0,0.0,0.0,0.0,0.0,0.0,0.0,0.0,0.0,0.0,0.0,0.0,0.0,0.0,0.0,0.0,0.0,0.0,0.0,0.0,0.0,0.0,0.0,0.0,0.0,0.0,0.0,0.0,0.0,0.0,0.0,0.0,0.0,0.0,0.0,0.0,0.0,0.0,0.0,0.0,0.0,0.0,0.0,0.0,0.0,0.0,0.0,0.0,0.0,0.0,0.0,0.0,0.0,0.0,0.0,0.0,0.0,0.0,0.0,0.0,0.0,0.0,0.0,0.0,0.0,0.0,0.0,0.0,0.0,0.0,0.1515,0.2462,0.2489,0.2528,0.0,0.0,0.0,0.0,0.0,0.0,0.0,0.0,0.0,0.0,0.0,0.0,0.0,0.0,0.0,0.0,0.0,0.0,0.0,0.0,0.0,0.0,0.0,0.0,0.0,0.0,0.0,0.0,0.0,0.0,0.0,0.0,0.0,0.0,0.0,0.0,0.0,0.0,0.0,0.0,0.0,0.0,0.0,0.0,0.0,0.0,0.0,0.0,0.0,0.0,0.0,0.0,0.0,0.0,0.0,0.0,0.0,0.0,0.0,0.0,0.0,0.0,0.0,0.0,0.0,0.0,0.0,0.0,0.0,0.0,0.0,0.0,0.0,0.0,0.0,0.0,0.0,0.0,0.0,0.0,0.0,0.0,0.0,0.0,0.0,0.0,0.0,0.0,0.0,0.0,0.0,0.0,0.0,0.0,0.0,0.0,0.0,0.0,0.0,0.0,0.0,0.0,0.0,0.0,0.0,0.0,0.0,0.0,0.0,0.0,0.1706,0.0,0.205,0.2034,0.2274,0.2827,0.0,0.0,0.0,0.0,0.0,0.0,0.0,0.0,0.0,0.0,0.0,0.0,0.0,0.0,0.0,0.0,0.0,0.0,0.0,0.0,0.0,0.0,0.0,0.0,0.0,0.0,0.0,0.0,0.0,0.0,0.0,0.0,0.0,0.0,0.0,0.0,0.0,0.0,0.0,0.0,0.0,0.0,0.0,0.0,0.0,0.0,0.0,0.0,0.0,0.0,0.0,0.0,0.0,0.0,0.0,0.0,0.0,0.0,0.0,0.0,0.0,0.0,0.0,0.0,0.0,0.0,0.0,0.0,0.0,0.0,0.0,0.0,0.0,0.0,0.0,0.0,0.0,0.0,0.0,0.0,0.0,0.0,0.0,0.0,0.0,0.0,0.0,0.0,0.0,0.0,0.0,0.0,0.0,0.0,0.0,0.0,0.0,0.0,0.0,0.0,0.0,0.0,0.0,0.0,0.0,0.0,0.0,0.0,0.0,0.1514,0.2073,0.2581,0.2599,0.2843,0.0,0.0,0.0,0.0,0.0,0.0,0.0,0.0,0.0,0.0,0.0,0.0,0.0,0.0,0.0,0.0,0.0,0.0,0.0,0.0,0.0,0.0,0.0,0.0,0.0,0.0,0.0,0.0,0.0,0.0,0.0,0.0,0.0,0.0,0.0,0.0,0.0,0.0,0.0,0.0,0.0,0.0,0.0,0.0,0.0,0.0,0.0,0.0,0.0,0.0,0.0,0.0,0.0,0.0,0.0,0.0,0.0,0.0,0.0,0.0,0.0,0.0,0.0,0.0,0.0,0.0,0.0,0.0,0.0,0.0,0.0,0.0,0.0,0.0,0.0,0.0,0.0,0.0,0.0,0.0,0.0,0.0,0.0,0.0,0.0,0.0,0.0,0.0,0.0,0.0,0.0,0.0,0.0,0.0,0.0,0.0,0.0,0.0,0.0,0.0,0.0,0.0,0.0,0.0,0.0,0.0,0.0,0.0,0.0,0.1446,0.1682,0.1716,0.1574,0.1902,0.2351,0.0,0.0,0.0,0.0,0.0,0.0,0.0,0.0,0.0,0.0,0.0,0.0,0.0,0.0,0.0,0.0,0.0,0.0,0.0,0.0,0.0,0.0,0.0,0.0,0.0,0.0,0.0,0.0,0.0,0.0,0.0,0.0,0.0,0.0,0.0,0.0,0.0,0.0,0.0,0.0,0.0,0.0,0.0,0.0,0.0,0.0,0.0,0.0,0.0,0.0,0.0,0.0,0.0,0.0,0.0,0.0,0.0,0.0,0.0,0.0,0.0,0.0,0.0,0.0,0.0,0.0,0.0,0.0,0.0,0.0,0.0,0.0,0.0,0.0,0.0,0.0,0.0,0.0,0.0,0.0,0.0,0.0,0.0,0.0,0.0,0.0,0.0,0.0,0.0,0.0,0.0,0.0,0.0,0.0,0.0,0.0,0.0,0.0,0.0,0.0,0.0,0.0,0.0,0.0,0.0,0.0,0.0,0.0,0.0,0.1181,0.0,0.1251,0.0,0.1298,0.1587,0.0,0.0,0.0,0.0,0.0,0.0,0.0,0.0,0.0,0.0,0.0,0.0,0.0,0.0,0.0,0.0,0.0,0.0,0.0,0.0,0.0,0.0,0.0,0.0,0.0,0.0,0.0,0.0,0.0,0.0,0.0,0.0,0.0,0.0,0.0,0.0,0.0,0.0,0.0,0.0,0.0,0.0,0.0,0.0,0.0,0.0,0.0,0.0,0.0,0.0,0.0,0.0,0.0,0.0,0.0,0.0,0.0,0.0,0.0,0.0,0.0,0.0,0.0,0.0,0.0,0.0,0.0,0.0,0.0,0.0,0.0,0.0,0.0,0.0,0.0,0.0,0.0,0.0,0.0,0.0,0.0,0.0,0.0,0.0,0.0,0.0,0.0,0.0,0.0,0.0,0.0,0.0,0.0,0.0,0.0,0.0,0.0,0.0,0.0,0.0,0.0,0.0,0.0,0.0,0.0,0.0,0.0,0.0,0.0,0.0,0.0417,0.072,0.0878,0.0897,0.0633,0.0,0.0,0.0,0.0,0.0,0.0,0.0,0.0,0.0,0.0,0.0,0.0,0.0,0.0,0.0,0.0,0.0,0.0,0.0,0.0,0.0,0.0,0.0,0.0,0.0,0.0,0.0,0.0,0.0,0.0,0.0,0.0,0.0,0.0,0.0,0.0,0.0,0.0,0.0,0.0,0.0,0.0,0.0,0.0,0.0,0.0,0.0,0.0,0.0,0.0,0.0,0.0,0.0,0.0,0.0,0.0,0.0,0.0,0.0,0.0,0.0,0.0,0.0,0.0,0.0,0.0,0.0,0.0,0.0,0.0,0.0,0.0,0.0,0.0,0.0,0.0,0.0,0.0,0.0,0.0,0.0,0.0,0.0,0.0,0.0,0.0,0.0,0.0,0.0,0.0,0.0,0.0,0.0,0.0,0.0,0.0,0.0,0.0,0.0,0.0,0.0,0.0,0.0,0.0,0.0,0.0,0.0,0.0,0.0,0.0,0.0303,0.0604,0.0878,0.0676,0.0467,0.0,0.0,0.0,0.0,0.0,0.0,0.0,0.0,0.0,0.0,0.0,0.0,0.0,0.0,0.0,0.0,0.0,0.0,0.0,0.0,0.0,0.0,0.0,0.0,0.0,0.0,0.0,0.0,0.0,0.0,0.0,0.0,0.0,0.0,0.0,0.0,0.0,0.0,0.0,0.0,0.0,0.0,0.0,0.0,0.0,0.0,0.0,0.0,0.0,0.0,0.0,0.0,0.0,0.0,0.0,0.0,0.0,0.0,0.0,0.0,0.0,0.0,0.0,0.0,0.0,0.0,0.0,0.0,0.0,0.0,0.0,0.0,0.0,0.0,0.0,0.0,0.0,0.0,0.0,0.0,0.0,0.0,0.0,0.0,0.0,0.0,0.0,0.0,0.0,0.0,0.0,0.0,0.0,0.0,0.0,0.0,0.0,0.0,0.0,0.0,0.0,0.0,0.0,0.0,0.0,0.0,0.0,0.0,0.0,0.0,0.0262,0.052,0.0786,0.0658,0.0576,0.0581,0.0,0.0,0.0,0.0,0.0,0.0,0.0,0.0,0.0,0.0,0.0,0.0,0.0,0.0,0.0,0.0,0.0,0.0,0.0,0.0,0.0,0.0,0.0,0.0,0.0,0.0,0.0,0.0,0.0,0.0,0.0,0.0,0.0,0.0,0.0,0.0,0.0,0.0,0.0,0.0,0.0,0.0,0.0,0.0,0.0,0.0,0.0,0.0,0.0,0.0,0.0,0.0,0.0,0.0,0.0,0.0,0.0,0.0,0.0,0.0,0.0,0.0,0.0,0.0,0.0,0.0,0.0,0.0,0.0,0.0,0.0,0.0,0.0,0.0,0.0,0.0,0.0,0.0,0.0,0.0,0.0,0.0,0.0,0.0,0.0,0.0,0.0,0.0,0.0,0.0,0.0,0.0,0.0,0.0,0.0,0.0,0.0,0.0,0.0,0.0,0.0,0.0,0.0,0.0,0.0,0.0,0.0,0.0,0.0,0.0272,0.0505,0.0629,0.0818,0.0922,0.0,0.0,0.0,0.0,0.0,0.0,0.0,0.0,0.0,0.0,0.0,0.0,0.0,0.0,0.0,0.0,0.0,0.0,0.0,0.0,0.0,0.0,0.0,0.0,0.0,0.0,0.0,0.0,0.0,0.0,0.0,0.0,0.0,0.0,0.0,0.0,0.0,0.0,0.0,0.0,0.0,0.0,0.0,0.0,0.0,0.0,0.0,0.0,0.0,0.0,0.0,0.0,0.0,0.0,0.0,0.0,0.0,0.0,0.0,0.0,0.0,0.0,0.0,0.0,0.0,0.0,0.0,0.0,0.0,0.0,0.0,0.0,0.0,0.0,0.0,0.0,0.0,0.0,0.0,0.0,0.0,0.0,0.0,0.0,0.0,0.0,0.0,0.0,0.0,0.0,0.0,0.0,0.0,0.0,0.0,0.0,0.0,0.0,0.0,0.0,0.0,0.0,0.0,0.0,0.0,0.0,0.0,0.0,0.0,0.0027,0.0511,0.0774,0.0822,0.0971,0.1077,0.0,0.0,0.0,0.0,0.0,0.0,0.0,0.0,0.0,0.0,0.0,0.0,0.0,0.0,0.0,0.0,0.0,0.0,0.0,0.0,0.0,0.0,0.0,0.0,0.0,0.0,0.0,0.0,0.0,0.0,0.0,0.0,0.0,0.0,0.0,0.0,0.0,0.0,0.0,0.0,0.0,0.0,0.0,0.0,0.0,0.0,0.0,0.0,0.0,0.0,0.0,0.0,0.0,0.0,0.0,0.0,0.0,0.0,0.0,0.0,0.0,0.0,0.0,0.0,0.0,0.0,0.0,0.0,0.0,0.0,0.0,0.0,0.0,0.0,0.0,0.0,0.0,0.0,0.0,0.0,0.0,0.0,0.0,0.0,0.0,0.0,0.0,0.0,0.0,0.0,0.0,0.0,0.0,0.0,0.0,0.0,0.0,0.0,0.0,0.0,0.0,0.0,0.0,0.0,0.0,0.0,0.0,0.0,0.0255,0.0372,0.0719,0.0948,0.1072,0.1225,0.125,0.0,0.0,0.0,0.0,0.0,0.0,0.0,0.0,0.0,0.0,0.0,0.0,0.0,0.0,0.0,0.0,0.0,0.0,0.0,0.0,0.0,0.0,0.0,0.0,0.0,0.0,0.0,0.0,0.0,0.0,0.0,0.0,0.0,0.0,0.0,0.0,0.0,0.0,0.0,0.0,0.0,0.0,0.0,0.0,0.0,0.0,0.0,0.0,0.0,0.0,0.0,0.0,0.0,0.0,0.0,0.0,0.0,0.0,0.0,0.0,0.0,0.0,0.0,0.0,0.0,0.0,0.0,0.0,0.0,0.0,0.0,0.0,0.0,0.0,0.0,0.0,0.0,0.0,0.0,0.0,0.0,0.0,0.0,0.0,0.0,0.0,0.0,0.0,0.0,0.0,0.0,0.0,0.0,0.0,0.0,0.0,0.0,0.0,0.0,0.0,0.0,0.0,0.0,0.0,0.0,0.0,0.0,0.0,0.0382,0.0908,0.0933,0.1061,0.1294,0.1492,0.1444,0.0,0.0,0.0,0.0,0.0,0.0,0.0,0.0,0.0,0.0,0.0,0.0,0.0,0.0,0.0,0.0,0.0,0.0,0.0,0.0,0.0,0.0,0.0,0.0,0.0,0.0,0.0,0.0,0.0,0.0,0.0,0.0,0.0,0.0,0.0,0.0,0.0,0.0,0.0,0.0,0.0,0.0,0.0,0.0,0.0,0.0,0.0,0.0,0.0,0.0,0.0,0.0,0.0,0.0,0.0,0.0,0.0,0.0,0.0,0.0,0.0,0.0,0.0,0.0,0.0,0.0,0.0,0.0,0.0,0.0,0.0,0.0,0.0,0.0,0.0,0.0,0.0,0.0,0.0,0.0,0.0,0.0,0.0,0.0,0.0,0.0,0.0,0.0,0.0,0.0,0.0,0.0,0.0,0.0,0.0,0.0,0.0,0.0,0.0,0.0,0.0,0.0,0.0,0.0,0.0,0.0,0.0,0.0,0.0862,0.1136,0.1196,0.1241,0.1308,0.1502,0.1491,0.0,0.0,0.0,0.0,0.0,0.0,0.0,0.0,0.0,0.0,0.0,0.0,0.0,0.0,0.0,0.0,0.0,0.0,0.0,0.0,0.0,0.0,0.0,0.0,0.0,0.0,0.0,0.0,0.0,0.0,0.0,0.0,0.0,0.0,0.0,0.0,0.0,0.0,0.0,0.0,0.0,0.0,0.0,0.0,0.0,0.0,0.0,0.0,0.1259,0.0,0.0,0.0,0.0,0.0,0.0,0.0,0.0,0.0,0.0,0.0,0.0,0.0,0.0,0.0,0.0,0.0,0.0,0.0,0.0,0.0,0.0,0.0,0.0,0.0,0.0,0.0,0.0,0.0,0.0,0.0,0.0,0.0,0.0,0.0,0.0,0.0,0.0,0.0,0.0,0.0,0.0,0.0,0.0,0.0,0.0,0.0,0.0,0.0,0.0,0.0,0.0,0.0,0.0,0.0,0.0,0.0,0.0,0.0,0.087,0.1452,0.1241,0.1252,0.153,0.1643,0.1567,0.0,0.0,0.0,0.0,0.0,0.0,0.0,0.0,0.0,0.0,0.0,0.0,0.0,0.0,0.0,0.0,0.0,0.0,0.0,0.0,0.0,0.0,0.0,0.0,0.0,0.0,0.0,0.0,0.0,0.0,0.0,0.0,0.0,0.0,0.0,0.0,0.0,0.0,0.0,0.0,0.0,0.0,0.0,0.0,0.0,0.0,0.0,0.0,0.0,0.0,0.0,0.0,0.0,0.0,0.0,0.0,0.0,0.0,0.0,0.0,0.0,0.0,0.0,0.0,0.0,0.0,0.0,0.0,0.0,0.0,0.0,0.0,0.0,0.0,0.0,0.0,0.0,0.0,0.0,0.0,0.0,0.0,0.0,0.0,0.0,0.0,0.0,0.0,0.0,0.0,0.0,0.0,0.0,0.0,0.0,0.0,0.0,0.0,0.0,0.0,0.0,0.0,0.0,0.0,0.0,0.0,0.0,0.0743,0.0835,0.1734,0.1303,0.128,0.1781,0.1803,0.1652,0.1362,0.0,0.0,0.0,0.0,0.0,0.0,0.0,0.0,0.0,0.0,0.0,0.0,0.0,0.0,0.0,0.0,0.0,0.0,0.0,0.0,0.0,0.0,0.0,0.0,0.0,0.0,0.0,0.0,0.0,0.0,0.0,0.0,0.0,0.0,0.0,0.0,0.0,0.0,0.0807,0.079,0.0,0.0,0.0,0.0,0.0,0.0,0.0,0.0,0.1173,0.0,0.0,0.0,0.0,0.0,0.0,0.0,0.0,0.0,0.0,0.0,0.0,0.0,0.0,0.0,0.0,0.0,0.0,0.0,0.0,0.0,0.0,0.0,0.0,0.0,0.0,0.0,0.0,0.0,0.0,0.0,0.0,0.0,0.0,0.0,0.0,0.0,0.0,0.0,0.0,0.0,0.0,0.0,0.0,0.0,0.0,0.0,0.0,0.0,0.0,0.0,0.0,0.0,0.0,0.0,0.0,0.1335,0.118,0.1344,0.1785,0.1703,0.1703,0.1803,0.1803,0.1729,0.1554,0.0,0.0,0.0,0.0,0.0,0.0,0.0,0.0,0.0,0.0,0.0,0.0,0.0,0.0,0.0,0.0,0.0,0.0,0.0,0.0,0.0,0.0,0.0,0.0,0.0,0.0,0.0,0.0,0.0,0.0,0.0,0.0,0.0,0.0,0.0,0.0,0.0,0.0,0.0,0.0295,0.0222,0.0,0.0,0.0,0.0,0.0,0.0,0.0,0.0,0.0695,0.0,0.0,0.0,0.0,0.0,0.0,0.0,0.0,0.0,0.0,0.0,0.0,0.0,0.0,0.0,0.0,0.0,0.0,0.0,0.0,0.0,0.0,0.0,0.0,0.0,0.0,0.0,0.0,0.0,0.0,0.0,0.0,0.0,0.0,0.0,0.0,0.0,0.0,0.0,0.0,0.0,0.0,0.0,0.0,0.0,0.0,0.0,0.0,0.0,0.0,0.0,0.0,0.0,0.0,0.0,0.1278,0.1221,0.1396,0.1785,0.1626,0.1626,0.1803,0.1801,0.1772,0.0,0.0,0.0,0.0,0.0,0.0,0.0,0.0,0.0,0.0,0.0,0.0,0.0,0.0,0.0,0.0,0.0,0.0,0.0,0.0,0.0,0.0,0.0,0.0,0.0,0.0,0.0,0.0,0.0,0.0,0.0,0.0,0.0,0.0,0.0,0.0,0.0,0.0,0.0,0.0,0.0206,0.02,0.0206,0.0,0.0,0.0,0.0,0.0,0.0,0.025,0.0443,0.0,0.0,0.0,0.0,0.0,0.0,0.0,0.0,0.0,0.0,0.0,0.0,0.0,0.0,0.0,0.0,0.0,0.0,0.0,0.0,0.0,0.0,0.0,0.0,0.0,0.0,0.0,0.0,0.0,0.0,0.0,0.0,0.0,0.0,0.0,0.0,0.0,0.0,0.0,0.0,0.0,0.0,0.0,0.0,0.0,0.0,0.0,0.0,0.0,0.0,0.0,0.0,0.0,0.0,0.0,0.1293,0.1237,0.1409,0.1763,0.153,0.153,0.1792,0.1799,0.1805,0.0,0.0,0.0,0.0,0.0,0.0,0.0,0.0,0.0,0.0,0.0,0.0,0.0,0.0,0.0,0.0,0.0,0.0,0.0,0.0,0.0,0.0,0.0,0.0,0.0,0.0,0.0,0.0,0.0,0.0,0.0,0.0,0.0,0.0,0.0,0.0,0.0,0.0,0.0,0.0,0.0,0.0172,0.0,0.0,0.0,0.0,0.0,0.0,0.0,0.0,0.0,0.0,0.0,0.0,0.0,0.0,0.0,0.0,0.0,0.0,0.0,0.0,0.0,0.0,0.0,0.0,0.0,0.0,0.0,0.0,0.0,0.0,0.0,0.0,0.0,0.0,0.0,0.0,0.0,0.0,0.0,0.0,0.0,0.0,0.0,0.0,0.0,0.0,0.0,0.0,0.0,0.0,0.0,0.0,0.0,0.0,0.0,0.0,0.0,0.0,0.0,0.0,0.0,0.0,0.0,0.0,0.131,0.1452,0.1618,0.1785,0.1748,0.1759,0.1803,0.1796,0.1795,0.0,0.0,0.0,0.0,0.0,0.0,0.0,0.0,0.0,0.0,0.0,0.0,0.0,0.0,0.0,0.0,0.0,0.0,0.0,0.0,0.0,0.0,0.0,0.0,0.0,0.0,0.0,0.0,0.0,0.0,0.0,0.0,0.0,0.0,0.0,0.0,0.0,0.0,0.0,0.0,0.0,-0.0233,-0.0033,0.0,0.0,0.0,0.0,0.0,0.0,0.0,0.0,0.0,0.0,0.0,0.0,0.0,0.0,0.0,0.0,0.0,0.0,0.0,0.0,0.0,0.0,0.0,0.0,0.0,0.0,0.0,0.0,0.0,0.0,0.0,0.0,0.0,0.0,0.0,0.0,0.0,0.0,0.0,0.0,0.0,0.0,0.0,0.0,0.0,0.0,0.0,0.0,0.0,0.0,0.0,0.0,0.0,0.0,0.0,0.0,0.0,0.0,0.0,0.0,0.0,0.0,0.1315,0.1313,0.1561,0.1741,0.1799,0.1803,0.1803,0.1803,0.1796,0.1803,0.0,0.0,0.0,0.0,0.0,0.0,0.0,0.0,0.0,0.0,0.0,0.0,0.0,0.0,0.0,0.0,0.0,0.0,0.0,0.0,0.0,0.0,0.0,0.0,0.0,0.0,0.0,0.0,0.0,0.0,0.0,0.0,0.0,0.0,0.0,0.0,0.0,0.0,0.0,0.0,0.0,0.0,-0.0278,-0.01,0.0,0.0,0.0,0.0,0.0,0.0,0.0,0.0,0.0,0.0,0.0,0.0,0.0,0.0,0.0,0.0,0.0,0.0,0.0,0.0,0.0,0.0,0.0,0.0,0.0,0.0,0.0,0.0,0.0,0.0,0.0,0.0,0.0,0.0,0.0,0.0,0.0,0.0,0.0,0.0,0.0,0.0,0.0,0.0,0.0,0.0,0.0,0.0,0.0,0.0,0.0,0.0,0.0,0.0,0.0,0.0,0.0,0.0,0.0,0.0,0.0,0.0,0.131,0.1631,0.1803,0.1803,0.1803,0.1803,0.1803,0.1804,0.0,0.0,0.0,0.0,0.0,0.0,0.0,0.0,0.0,0.0,0.0,0.0,0.0,0.0,0.0,0.0,0.0,0.0,0.0,0.0,0.0,0.0,0.0,0.0,0.0,0.0,0.0,0.0,0.0,0.0,0.0,0.0,0.0,0.0,0.0,0.0,0.0,0.0,0.0,0.0,0.0,0.0,-0.0862,-0.0565,-0.0405,-0.0249,0.0,0.0,0.0,0.0,0.0,0.0061,0.0,0.0,0.0,0.0,0.0,0.0,0.0,0.0,0.0,0.0,0.0,0.0,0.0,0.0,0.0,0.0,0.0,0.0,0.0,0.0,0.0,0.0,0.0,0.0,0.0,0.0,0.0,0.0,0.0,0.0,0.0,0.0,0.0,0.0,0.0,0.0,0.0,0.0,0.0,0.0,0.0,0.0,0.0,0.0,0.0,0.0,0.0,0.0,0.0,0.0,0.0,0.0,0.0,0.0,0.0,0.1316,0.1631,0.1803,0.1803,0.1803,0.1803,0.1803,0.18,0.1799,0.0,0.0,0.0,0.0,0.0,0.0,0.0,0.0,0.0,0.0,0.0,0.0,0.0,0.0,0.0,0.0,0.0,0.0,0.0,0.0,0.0,0.0,0.0,0.0,0.0,0.0,0.0,0.0,0.0,0.0,0.0,0.0,0.0,0.0,0.0,0.0,0.0,0.0,0.0,0.0,0.0,-0.1098,-0.0886,-0.1063,-0.0918,0.0,0.0,0.0,0.0,0.0,0.0,0.0,0.0,0.0,0.0,0.0,0.0,0.0,0.0,0.0,0.0,0.0,0.0,0.0,0.0,0.0,0.0,0.0,0.0,0.0,0.0,0.0,0.0,0.0,0.0,0.0,0.0,0.0,0.0,0.0,0.0,0.0,0.0,0.0,0.0,0.0,0.0,0.0,0.0,0.0,0.0,0.0,0.0,0.0,0.0,0.0,0.0,0.0,0.0,0.0,0.0,0.0,0.0,0.0,0.0,0.1315,0.131,0.1641,0.1803,0.1803,0.1803,0.1803,0.1803,0.1803,0.1804,0.0,0.0,0.0,0.0,0.0,0.0,0.0,0.0,0.0,0.0,0.0,0.0,0.0,0.0,0.0,0.0,0.0,0.0,0.0,0.0,0.0,0.0,0.0,0.0,0.0,0.0,0.0,0.0,0.0,0.0,0.0,0.0,0.0,0.0,0.0,0.0,0.0,0.0,0.0,0.0,0.0,-0.1313,-0.1432,-0.1549,0.0,0.0,0.0,0.0,0.0,0.0,0.0,0.0,0.0195,0.0,0.0,0.0,0.0,0.0,0.0,0.0,0.0,0.0,0.0,0.0,0.0,0.0,0.0,0.0,0.0,0.0,0.0,0.0,0.0,0.0,0.0,0.0,0.0,0.0,0.0,0.0,0.0,0.0,0.0,0.0,0.0,0.0,0.0,0.0,0.0,0.0,0.0,0.0,0.0,0.0,0.0,0.0,0.0,0.0,0.0,0.0,0.0,0.0,0.0,0.0,0.0,0.1315,0.1315,0.1621,0.1803,0.1803,0.1803,0.1803,0.1803,0.1803,0.177,0.0,0.0,0.0,0.0,0.0,0.0,0.0,0.0,0.0,0.0,0.0,0.0,0.0,0.0,0.0,0.0,0.0,0.0,0.0,0.0,0.0,0.0,0.0,0.0,0.0,0.0,0.0,0.0,0.0,0.0,0.0,0.0,0.0,0.0,0.0,0.0,0.0,0.0,0.0,0.0,0.0,-0.1381,-0.1738,-0.1648,-0.117,-0.0157,0.0,0.0,0.0,0.0,0.0,0.0,0.0,0.0,0.0,0.0,0.0,0.0,0.0,0.0,0.0,0.0,0.0,0.0,0.0,0.0,0.0,0.0,0.0,0.0,0.0,0.0,0.0,0.0,0.0,0.0,0.0,0.0,0.0,0.0,0.0,0.0,0.0,0.0,0.0,0.0,0.0,0.0,0.0,0.0,0.0,0.0,0.0,0.0,0.0,0.0,0.0,0.0,0.0,0.0,0.0,0.0,0.0,0.0,0.0,0.0,0.1313,0.1635,0.1803,0.1803,0.1803,0.1803,0.1803,0.1803,0.1739,0.1612,0.0,0.0,0.0,0.0,0.0,0.0,0.0,0.0,0.0,0.0,0.0,0.0,0.0,0.0,0.0,0.0,0.0,0.0,0.0,0.0,0.0,0.0,0.0,0.0,0.0,0.0,0.0,0.0,0.0,0.0,0.0,0.0,0.0,0.0,0.0,0.0,0.0,0.0,0.0,-0.1387,-0.1271,-0.1706,-0.1305,-0.076,-0.0124,0.0,0.0,0.0,0.0,0.0,0.0,0.0,0.0,0.0,0.0,0.0,0.0,0.0,0.0,0.0,0.0,0.0,0.0,0.0,0.0,0.0,0.0,0.0,0.0,0.0,0.0,0.0,0.0,0.0,0.0,0.0,0.0,0.0,0.0,0.0,0.0,0.0,0.0,0.0,0.0,0.0,0.0,0.0,0.0,0.0,0.2012,0.2239,0.0,0.0,0.0,0.0,0.0,0.0,0.0,0.0,0.0,0.0,0.0,0.0,0.1443,0.1508,0.1693,0.1803,0.1803,0.1803,0.1803,0.1803,0.1803,0.1721,0.1537,0.0,0.0,0.0,0.0,0.0,0.0,0.0,0.0,0.0,0.0,0.0,0.0,0.0,0.0,0.0,0.0,0.0,0.0,0.0,0.0,0.0,0.0,0.0,0.0,0.0,0.0,0.0,0.0,0.0,0.0,0.0,0.0,0.0,0.0,0.0,0.0,0.0,-0.0669,-0.1679,-0.1664,-0.1327,-0.0689,-0.1112,-0.1269,0.0,0.0,0.0,0.0,0.0,0.0,0.0,0.0,0.0,0.0,0.0,0.0,0.0,0.0,-0.0683,-0.0096,-0.0328,-0.0714,-0.112,0.0,0.0,0.0,0.0,0.0,0.0,0.0,0.0,0.0,0.0,0.0,0.0,0.0,0.0,0.0,0.0,0.2012,0.0,0.0,0.0,0.0,0.0,0.0,0.0,0.0,0.3146,0.2945,0.2255,0.2428,0.2307,0.0,0.206,0.192,0.0,0.0,0.0,0.0,0.0,0.0,0.0,0.0,0.159,0.1569,0.1764,0.1846,0.1798,0.1854,0.1846,0.1806,0.1755,0.1695,0.16,0.1669,0.1717,0.0,0.0,0.0,0.0,0.0,0.0,0.0,0.0,0.0,0.0,0.0,0.0,0.0,0.0,0.0,0.0,0.0,0.0,0.0,0.0,0.0,0.0,0.0,0.0,0.0,0.0,0.0,0.0,0.0,0.0,0.0,0.0,0.0,0.0061,0.0,-0.0291,-0.1081,-0.1358,-0.1125,-0.0135,0.0,0.0,0.0,0.0,0.0,0.0,0.0,0.0,0.0,-0.0671,-0.1347,-0.1736,-0.1166,-0.0895,-0.1656,0.0,0.0,-0.0178,-0.0492,-0.1024,-0.141,-0.1655,-0.1913,-0.2268,-0.2132,-0.201,0.0,0.0,0.0,0.0,0.0,0.0,0.0,0.0,0.1851,0.1918,0.0,0.0,0.0,0.0,0.0,0.0,0.0,0.0,0.0,0.0,0.3875,0.3639,0.2721,0.268,0.2532,0.2273,0.2792,0.2924,0.2623,0.1696,0.0,0.0,0.0,0.0,0.0,0.0,0.1713,0.1539,0.1845,0.1943,0.1827,0.1933,0.1937,0.1828,0.1703,0.1719,0.1795,0.1659,0.1633,0.18,0.1785,0.0,0.0,0.0,0.0,0.0,0.0,0.0,0.0,0.0,0.0,0.0,0.0,0.0,0.0,0.0,0.0,0.0,0.0,0.0,0.0,0.0008,0.0,0.0,0.0,0.0,0.0,0.0,0.0,0.0,0.0,0.0,0.0112,0.0,0.0,0.0,0.0,0.0,0.0,0.0,-0.0202,-0.0782,-0.1391,-0.1593,-0.1003,-0.0414,0.0,0.0,0.0,0.0,-0.1803,-0.1788,-0.1764,-0.1803,-0.1796,-0.1424,-0.0288,-0.0558,-0.093,-0.0987,-0.1466,-0.1981,-0.2451,-0.2473,-0.2355,0.2683,0.0,0.0,0.0,0.0,0.2469,0.2559,0.273,0.2628,0.2478,0.2374,0.2462,0.0,0.0,0.0,0.0,0.0,0.0,0.3804,0.3453,0.3608,0.3363,0.2689,0.2689,0.2633,0.257,0.2655,0.2631,0.2542,0.2129,0.1916,0.1894,0.0,0.0,0.0,0.0,0.1933,0.1923,0.2086,0.21,0.201,0.1992,0.202,0.2092,0.2275,0.2294,0.2088,0.2213,0.2134,0.1819,0.1803,0.0,0.0,0.0,0.0,0.0,0.0,0.0,0.0,0.0,0.0,0.0,0.0,0.0,0.0,0.0,0.0,0.0,0.0,0.0,0.0597,0.0251,0.0,0.0,0.0,0.0,0.0,0.0,0.0,0.0,0.0,0.0,0.1268,0.0535,0.0,0.0,0.0,-0.0202,-0.0011,0.0,-0.0067,-0.0236,0.0,0.0,0.0,-0.0669,0.0,0.0,-0.0992,-0.1803,-0.1803,-0.1803,-0.1803,-0.1803,-0.1803,-0.167,-0.1375,-0.1216,-0.1291,-0.1505,-0.2024,-0.2443,-0.2579,-0.2877,-0.3002,0.3371,0.3211,0.2954,0.2907,0.2985,0.2875,0.2939,0.3098,0.3013,0.289,0.275,0.2821,0.3002,0.3319,0.3689,0.0,0.0,0.0,0.4219,0.3684,0.3699,0.3332,0.2709,0.2679,0.2679,0.2692,0.262,0.2669,0.2819,0.2547,0.245,0.2543,0.0,0.0,0.1952,0.2027,0.212,0.2228,0.2283,0.2283,0.2225,0.2165,0.2172,0.2202,0.2524,0.2604,0.2412,0.2409,0.2294,0.1975,0.1858,0.1803,0.0,0.0,0.0,0.0,0.0,0.0,0.0,0.0,0.0,0.0,0.0,0.0208,0.0671,0.0,0.0,0.0,0.0,0.0351,0.1177,0.0718,0.0,0.0,0.0,0.0,0.0,0.0,0.0,0.1754,0.1803,0.1615,0.1139,0.045,0.0,0.0,0.0,0.0,0.0,0.0,0.0,0.0,-0.0615,-0.1258,-0.17,-0.0781,-0.0157,-0.0659,-0.1292,-0.1781,-0.1803,-0.1803,-0.1803,-0.1803,-0.1803,-0.1803,-0.1803,-0.1631,-0.155,-0.1765,-0.2285,-0.2724,-0.2915,-0.3097,-0.3162,0.3994,0.3947,0.3401,0.3175,0.3168,0.3162,0.3174,0.3151,0.3145,0.3151,0.3121,0.3118,0.3542,0.4269,0.503,0.0,0.0,0.5373,0.4926,0.411,0.4055,0.3598,0.2814,0.2773,0.277,0.2801,0.2776,0.2944,0.3311,0.2911,0.2821,0.3051,0.251,0.2252,0.2273,0.2294,0.2359,0.2494,0.2581,0.2581,0.2532,0.2479,0.2414,0.2322,0.2577,0.2719,0.2682,0.2405,0.221,0.2168,0.1934,0.1803,0.1803,0.0,0.0,0.0,0.0,0.0,0.0,0.0,0.0,0.0,0.0,0.0,0.0,0.0,0.0,0.0,0.0065,0.0,0.1631,0.1281,0.0,0.0,0.0,0.0976,0.0976,0.1457,0.1803,0.1803,0.0,0.0,0.0,0.0,0.0,0.0114,0.0038,0.0,0.0,0.0,0.0,0.0,0.0,0.0,-0.1347,-0.0803,-0.0592,-0.1516,-0.1803,-0.1803,-0.1803,-0.1803,-0.1803,-0.1803,-0.1803,-0.1803,-0.1803,-0.1781,-0.1803,-0.1788,-0.2274,-0.2859,-0.3315,-0.3215,-0.3095,0.3994,0.4009,0.3842,0.3805,0.3799,0.368,0.3632,0.3619,0.3517,0.3426,0.3317,0.3252,0.3719,0.4555,0.5552,0.5988,0.5981,0.5981,0.5671,0.5131,0.4666,0.4186,0.3694,0.3468,0.3494,0.3659,0.3326,0.3349,0.3625,0.3017,0.2728,0.2791,0.2639,0.2688,0.2891,0.2974,0.3102,0.3247,0.352,0.3583,0.3462,0.3113,0.3017,0.319,0.3056,0.2875,0.2621,0.2542,0.2323,0.1911,0.1827,0.1803,0.1803,0.1803,0.0,0.0,0.0,0.0,0.0,0.0,0.0,0.0,0.0,0.0502,0.1693,0.0,0.1183,0.0,0.0684,0.0799,0.1089,0.1384,0.0,0.0,0.131,0.1593,0.159,0.1717,0.1803,0.1803,0.1803,0.1881,0.2032,0.2054,0.1783,0.1091,0.0432,0.0,0.0,0.0,0.0,0.0,0.0,0.0,0.0,-0.1014,-0.1435,-0.1748,-0.1803,-0.1803,-0.1803,-0.1803,-0.1803,-0.1803,-0.1803,-0.1803,-0.1803,-0.1803,-0.1803,-0.1836,-0.2285,-0.2853,-0.3383,-0.3556,-0.3616,0.4216,0.4242,0.4216,0.4216,0.4199,0.3985,0.3894,0.3856,0.3737,0.3805,0.4,0.441,0.487,0.5385,0.6179,0.6492,0.6391,0.6391,0.6065,0.5478,0.4886,0.4541,0.438,0.3965,0.3992,0.4371,0.3872,0.3673,0.3757,0.3111,0.2747,0.2699,0.2679,0.2863,0.3172,0.326,0.3441,0.3728,0.3912,0.3951,0.3803,0.3518,0.3396,0.3495,0.3358,0.3192,0.3013,0.2882,0.2623,0.2173,0.1924,0.1803,0.1803,0.1803,0.1251,0.0,0.0,0.0,0.0,0.0,0.0,0.0,0.0,0.0,0.0,0.0,0.1544,0.0,0.0888,0.0,0.1276,0.161,0.1658,0.1346,0.1594,0.1803,0.1803,0.1803,0.1909,0.218,0.2194,0.2321,0.2635,0.2679,0.251,0.1973,0.105,0.0298,0.0,0.0,0.0,0.0,0.0,0.0,0.0,-0.1025,-0.1803,-0.1803,-0.1803,-0.1803,-0.1803,-0.1803,-0.1803,-0.1803,-0.1803,-0.1803,-0.1803,-0.1803,-0.1803,-0.1847,-0.2066,-0.2567,-0.333,-0.3633,-0.3668,0.4491,0.4519,0.4598,0.4649,0.4604,0.4418,0.4264,0.4161,0.4123,0.4392,0.4894,0.5842,0.6235,0.6227,0.6747,0.6867,0.6653,0.6647,0.6305,0.5674,0.5091,0.4899,0.5044,0.449,0.4514,0.5025,0.4409,0.4043,0.3926,0.3237,0.2832,0.2686,0.2679,0.2924,0.3376,0.3392,0.3658,0.4151,0.4156,0.4114,0.4001,0.3895,0.3763,0.3615,0.3539,0.3493,0.3436,0.3226,0.2944,0.2612,0.209,0.1803,0.1803,0.1803,0.1331,0.0,0.1232,0.0,0.0,0.0,0.0,0.0,0.0,0.0,0.0,0.1731,0.1514,0.1047,0.1029,0.1239,0.1758,0.1803,0.1803,0.1803,0.1803,0.1819,0.1906,0.1908,0.2109,0.2654,0.2679,0.2679,0.2679,0.2679,0.2679,0.256,0.1821,0.1049,0.0485,0.0,0.0,0.0,0.0,0.0,0.0,-0.1085,-0.1919,-0.1833,-0.1803,-0.1803,-0.1803,-0.1803,-0.1803,-0.1803,-0.1803,-0.1803,-0.1803,-0.1803,-0.1803,-0.1803,-0.1836,-0.2219,-0.3185,-0.3506,-0.3506,0.4491,0.4543,0.5085,0.53,0.5347,0.5878,0.5703,0.5084,0.556,0.5656,0.5563,0.6231,0.6416,0.6255,0.6753,0.6952,0.692,0.692,0.6845,0.6689,0.6151,0.5906,0.5916,0.5552,0.5589,0.5893,0.4974,0.4564,0.466,0.3472,0.2832,0.2683,0.2679,0.3072,0.0,0.0,0.0,0.0,0.5055,0.5045,0.5012,0.4678,0.4413,0.4225,0.3762,0.0,0.3183,0.311,0.2935,0.262,0.209,0.0,0.0,0.0,0.0,0.0,0.0,0.0,0.0,0.0,0.0,0.0,0.1803,0.1803,0.1787,0.1351,0.1224,0.1583,0.1644,0.1669,0.1781,0.1803,0.1803,0.1803,0.1806,0.1995,0.245,0.2518,0.2583,0.2675,0.2679,0.2679,0.2679,0.2679,0.2679,0.2679,0.2497,0.2328,0.2159,0.0888,0.0,0.0,0.0,0.0,0.0,0.0,-0.2318,-0.1955,-0.1803,-0.1816,-0.1795,-0.1803,-0.1803,-0.1803,-0.1803,-0.1803,-0.1803,-0.1803,-0.1803,-0.1803,-0.1803,-0.215,-0.3239,-0.3506,-0.3506,0.4491,0.0,0.5218,0.5483,0.0,0.6686,0.6897,0.6487,0.6354,0.6328,0.6444,0.6987,0.7174,0.7048,0.734,0.7359,0.7263,0.7241,0.714,0.6985,0.6435,0.6328,0.6577,0.6148,0.6175,0.6543,0.5467,0.4937,0.4845,0.3609,0.2903,0.2683,0.2679,0.3023,0.3642,0.407,0.4618,0.5293,0.5309,0.5309,0.5295,0.4896,0.4616,0.4395,0.0,0.0,0.0,0.0,0.0,0.0,0.0,0.0,0.0,0.0,0.0,0.2593,0.2648,0.2648,0.2633,0.2612,0.2622,0.2648,0.2633,0.2632,0.2648,0.2364,0.231,0.2609,0.2643,0.2654,0.2638,0.2638,0.2877,0.3445,0.3521,0.336,0.2893,0.3462,0.3609,0.2841,0.2679,0.2679,0.2679,0.2679,0.2679,0.2679,0.2679,0.2679,0.253,0.1154,0.0,0.0,0.0,0.0,0.0,-0.1521,-0.2605,-0.2321,-0.2239,-0.2125,-0.1839,-0.1803,-0.1803,-0.1803,-0.1803,-0.1803,-0.1803,-0.1803,-0.1803,-0.1803,-0.1803,-0.1946,-0.2589,-0.2944,-0.326,0.4816,0.4924,0.5464,0.576,0.6,0.7337,0.7916,0.7839,0.0,0.0,0.0,0.7786,0.7959,0.7905,0.7905,0.7739,0.7497,0.7513,0.733,0.6985,0.6541,0.6562,0.6964,0.6562,0.6577,0.6937,0.584,0.5158,0.4855,0.3694,0.2953,0.2737,0.2762,0.3052,0.3551,0.4323,0.4906,0.5277,0.5309,0.5309,0.5286,0.4978,0.4669,0.4402,0.3876,0.3548,0.3506,0.3506,0.3393,0.3193,0.339,0.3267,0.2783,0.2345,0.2513,0.3413,0.3506,0.3506,0.3499,0.3033,0.2968,0.3469,0.3506,0.3506,0.3506,0.3506,0.3506,0.3506,0.3506,0.3586,0.3773,0.3818,0.4215,0.5199,0.5309,0.4686,0.3495,0.4366,0.4676,0.3413,0.2924,0.2679,0.2679,0.2679,0.2679,0.2679,0.2679,0.2613,0.2294,0.1021,0.0,0.0,0.0,0.0,0.0,-0.1072,-0.2159,-0.2044,-0.238,-0.2512,-0.2112,-0.1875,-0.1809,-0.1803,-0.1803,-0.1803,-0.1803,-0.1803,-0.1803,-0.1803,-0.1803,-0.1803,-0.1847,-0.228,-0.2767,0.5983,0.6317,0.6394,0.6804,0.745,0.8289,0.8639,0.8639,0.8514,0.8365,0.8235,0.831,0.817,0.7905,0.7905,0.7762,0.752,0.7513,0.7308,0.0,0.6922,0.6922,0.7,0.6922,0.6922,0.6915,0.5862,0.5163,0.4792,0.3694,0.2971,0.278,0.3035,0.3621,0.4387,0.4938,0.5236,0.5309,0.5309,0.5309,0.5309,0.5246,0.4951,0.4422,0.4094,0.3788,0.3509,0.3506,0.3486,0.3453,0.3479,0.3449,0.3383,0.328,0.3343,0.3493,0.3506,0.3506,0.3506,0.3406,0.342,0.3499,0.3506,0.3506,0.3506,0.3506,0.3506,0.3513,0.3566,0.3943,0.4871,0.5005,0.5052,0.5269,0.5309,0.5166,0.4858,0.5087,0.5198,0.4842,0.3593,0.2746,0.2696,0.2679,0.2679,0.2679,0.2679,0.2444,0.1723,0.0654,0.0,0.0,0.0,0.0,0.0,0.0,0.0,-0.0386,-0.1707,-0.2596,-0.2529,-0.2163,-0.1887,-0.1827,-0.1851,-0.1823,-0.1809,-0.1803,-0.1803,-0.1803,-0.1803,-0.1803,-0.1803,-0.1931,-0.2033,0.6718,0.6897,0.7101,0.7396,0.775,0.848,0.8778,0.8778,0.8778,0.8738,0.8617,0.863,0.8537,0.8392,0.8385,0.8125,0.7715,0.7715,0.7439,0.7013,0.6993,0.6993,0.6993,0.6993,0.6993,0.6958,0.6194,0.5668,0.5353,0.439,0.3819,0.3663,0.3879,0.4205,0.4596,0.5071,0.5309,0.5309,0.5309,0.5309,0.5309,0.5309,0.507,0.4629,0.4228,0.3931,0.3768,0.3592,0.3506,0.3506,0.3506,0.3506,0.3506,0.3506,0.3506,0.3506,0.3506,0.3506,0.3506,0.3506,0.3506,0.3526,0.4109,0.4476,0.4482,0.3864,0.3772,0.4402,0.4469,0.4703,0.5239,0.5309,0.5309,0.5309,0.5309,0.5309,0.5309,0.5309,0.5309,0.5246,0.4628,0.3756,0.2795,0.2679,0.2679,0.2679,0.2679,0.248,0.2075,0.1256,0.052,0.0,0.0,0.0,0.0,0.0,0.0,0.0,0.0,-0.2059,-0.2524,-0.2413,-0.231,-0.2266,-0.2164,-0.1967,-0.185,-0.1803,-0.1803,-0.1803,-0.1803,-0.1803,-0.1803,-0.1803,-0.1803,0.7474,0.7527,0.7643,0.7803,0.7996,0.856,0.8778,0.8778,0.8778,0.8778,0.8778,0.8778,0.8778,0.8778,0.8778,0.8458,0.7959,0.7905,0.7579,0.704,0.6993,0.6993,0.6993,0.6993,0.6993,0.6937,0.6456,0.6079,0.5819,0.5098,0.4649,0.4568,0.4582,0.465,0.4762,0.5112,0.5309,0.5309,0.5309,0.5309,0.5309,0.5309,0.5144,0.4801,0.4389,0.416,0.408,0.3841,0.3672,0.3606,0.3539,0.3506,0.3506,0.3506,0.3506,0.3506,0.3506,0.3506,0.3526,0.3776,0.3909,0.3923,0.4756,0.5309,0.5219,0.4462,0.4269,0.5148,0.5262,0.5289,0.5309,0.5309,0.5309,0.5309,0.5309,0.5309,0.5309,0.5309,0.5309,0.5309,0.5309,0.4596,0.32,0.2679,0.2679,0.2679,0.2679,0.2679,0.2593,0.1773,0.0821,0.0687,0.0302,0.0,0.0,0.0,0.0,0.0,-0.0536,-0.1321,-0.2034,-0.2477,-0.2669,-0.2631,-0.2483,-0.2286,-0.2054,-0.1878,-0.1827,-0.1803,-0.1803,-0.1803,-0.1803,-0.1803,-0.1803,0.8532,0.8551,0.8,0.8103,0.8646,0.8752,0.8778,0.8778,0.8778,0.8778,0.8778,0.8778,0.8778,0.8778,0.8778,0.8465,0.7939,0.7905,0.7586,0.7053,0.6993,0.6993,0.6993,0.6993,0.6993,0.6937,0.6477,0.6154,0.5955,0.536,0.5047,0.4993,0.4747,0.4826,0.5198,0.5277,0.5309,0.5309,0.5309,0.5309,0.5309,0.5309,0.5137,0.4806,0.474,0.4615,0.4375,0.4329,0.4195,0.3953,0.3652,0.3513,0.3506,0.3506,0.3506,0.3506,0.3526,0.3506,0.3592,0.4522,0.5085,0.5139,0.5208,0.5309,0.5309,0.5201,0.5146,0.5293,0.5309,0.5309,0.5309,0.5309,0.5309,0.5309,0.5309,0.5309,0.5309,0.5309,0.5309,0.5309,0.5309,0.465,0.3249,0.2795,0.2679,0.2679,0.2679,0.2679,0.258,0.1523,0.1004,0.169,0.1156,0.0,0.0,0.0,0.0,0.0,0.0,0.0,-0.1288,-0.2125,-0.2646,-0.2203,-0.2537,-0.2437,-0.246,-0.2211,-0.1836,-0.1762,-0.1751,-0.1732,-0.1784,-0.1787,-0.1791,0.9528,0.9489,0.8867,0.8662,0.8791,0.8778,0.8778,0.8778,0.8778,0.8778,0.8778,0.8778,0.8778,0.8778,0.8778,0.8577,0.819,0.8009,0.7679,0.7288,0.7114,0.6993,0.6993,0.6993,0.6993,0.7,0.6768,0.664,0.6473,0.5998,0.5652,0.5449,0.5173,0.5119,0.53,0.5309,0.5309,0.5309,0.5309,0.5309,0.5309,0.5309,0.5239,0.5097,0.4908,0.4761,0.4642,0.4496,0.4349,0.4234,0.3995,0.3745,0.3519,0.3506,0.3506,0.3546,0.4183,0.4562,0.4569,0.5038,0.5309,0.5309,0.5309,0.5309,0.5309,0.5309,0.5309,0.5309,0.5309,0.5309,0.5309,0.5309,0.5309,0.5309,0.5309,0.5309,0.5309,0.5309,0.5309,0.5309,0.5309,0.5081,0.4274,0.3331,0.2762,0.2679,0.2679,0.2679,0.2613,0.2026,0.1992,0.2411,0.2023,0.1171,0.0,0.0,0.0,0.0,0.0,0.0,0.0,0.0,-0.2411,-0.1388,-0.1623,-0.2109,-0.2606,-0.2501,-0.2249,-0.1874,-0.1045,-0.0749,-0.0739,-0.1313,-0.1695,1.006,0.9897,0.9417,0.9091,0.8891,0.8838,0.8778,0.8778,0.8778,0.8778,0.8778,0.8778,0.8778,0.8778,0.8778,0.8651,0.8395,0.815,0.7836,0.7497,0.7263,0.708,0.7006,0.6993,0.6993,0.6993,0.6972,0.6972,0.6933,0.644,0.6075,0.5812,0.5481,0.5309,0.5309,0.5309,0.5309,0.5309,0.5309,0.5309,0.5309,0.5309,0.5309,0.5295,0.5077,0.4942,0.4935,0.4742,0.4603,0.4495,0.4449,0.4228,0.3785,0.3891,0.3984,0.4056,0.4796,0.5309,0.5309,0.5309,0.5309,0.5309,0.5309,0.5309,0.5309,0.5309,0.5309,0.5309,0.5309,0.5309,0.5309,0.5309,0.5309,0.5309,0.5309,0.5309,0.5309,0.5309,0.5309,0.5309,0.5309,0.5182,0.4794,0.3658,0.2679,0.2679,0.2679,0.2679,0.2679,0.2646,0.2646,0.2679,0.2679,0.2159,0.1004,0.0,0.0653,0.0,0.0,0.0,0.0,0.0,-0.184,-0.067,-0.082,-0.1388,-0.2394,-0.2625,-0.2184,-0.1437,0.0,0.0,0.0,0.0,0.0,0.9953,0.9686,0.9351,0.9224,0.9164,0.8904,0.8811,0.8778,0.8778,0.8778,0.8778,0.8778,0.8778,0.8778,0.8778,0.8677,0.8429,0.8375,0.8067,0.7594,0.7471,0.731,0.7006,0.6993,0.6993,0.6993,0.6993,0.6993,0.696,0.6466,0.6189,0.6135,0.5591,0.5309,0.5309,0.5309,0.5309,0.5309,0.5309,0.5309,0.5309,0.5309,0.5309,0.5309,0.5273,0.5253,0.5253,0.526,0.5104,0.4801,0.5059,0.4951,0.4476,0.4863,0.5139,0.5172,0.5262,0.5309,0.5309,0.5309,0.5309,0.5309,0.5309,0.5309,0.5309,0.5309,0.5309,0.5309,0.5309,0.5309,0.5309,0.5309,0.5309,0.5309,0.5309,0.5309,0.5309,0.5309,0.5309,0.5309,0.5309,0.5071,0.4264,0.327,0.2779,0.2679,0.2679,0.2679,0.2679,0.2679,0.2679,0.2679,0.2679,0.263,0.2547,0.2159,0.1507,0.0,0.0,0.0,0.0,-0.0067,0.0,0.0,0.0,0.0,0.0,-0.2305,-0.1613,0.0,0.0,0.0,0.0,0.0,0.0,1.0258,0.996,0.9817,0.9564,0.9211,0.9098,0.8951,0.8785,0.8778,0.8778,0.8778,0.8778,0.8778,0.8778,0.8778,0.8751,0.8644,0.8482,0.8275,0.8027,0.7695,0.743,0.7323,0.7114,0.6993,0.6993,0.6993,0.6993,0.6933,0.6459,0.6196,0.6095,0.5588,0.5309,0.5309,0.5309,0.5309,0.5309,0.5309,0.5309,0.5309,0.5309,0.5309,0.5309,0.5309,0.5309,0.5309,0.5309,0.5246,0.5139,0.5239,0.5199,0.5025,0.5179,0.5309,0.5309,0.5309,0.5309,0.5309,0.5309,0.5309,0.5309,0.5309,0.5309,0.5309,0.5309,0.5309,0.5309,0.5309,0.5309,0.5309,0.5309,0.5309,0.5309,0.5309,0.5309,0.5309,0.5309,0.5309,0.5309,0.5309,0.5151,0.465,0.3593,0.2729,0.2679,0.2679,0.2679,0.2679,0.2679,0.2679,0.2679,0.2679,0.2679,0.2679,0.2663,0.0,0.0,0.0,0.0,0.0,0.0,0.0,0.0,0.0,0.0,-0.2026,-0.1573,0.0,0.0,0.0,0.0,0.0,0.0,0.0,1.0479,1.0261,1.0154,0.9893,0.9491,0.9263,0.9104,0.8911,0.8825,0.8778,0.8778,0.8778,0.8778,0.8778,0.8778,0.8778,0.8758,0.863,0.8496,0.8355,0.7873,0.7584,0.7444,0.714,0.6993,0.6993,0.6993,0.6993,0.6926,0.6459,0.6209,0.6162,0.5588,0.5309,0.5309,0.5309,0.5309,0.5309,0.5309,0.5309,0.5309,0.5309,0.5309,0.5309,0.5309,0.5309,0.5309,0.5309,0.5309,0.5309,0.5309,0.5309,0.5309,0.5309,0.5309,0.5325,0.5547,0.5554,0.5372,0.5467,0.5498,0.5325,0.5309,0.5309,0.5309,0.5309,0.5309,0.5309,0.5309,0.5309,0.5309,0.5309,0.5309,0.5309,0.5309,0.5309,0.5309,0.5309,0.5309,0.5309,0.5309,0.5309,0.5113,0.3788,0.2976,0.274,0.2679,0.2679,0.2679,0.2679,0.2679,0.2679,0.2679,0.2679,0.2679,0.2679,0.2679,0.0,0.0,0.0,0.0,0.0,0.0,0.0,0.0,0.0,-0.1204,-0.077,0.0,0.0,0.0,0.0,0.0,0.0,-0.0749,1.0586,1.0533,1.0247,1.0114,0.9943,0.9475,0.9216,0.9178,0.8924,0.8858,0.8838,0.8791,0.8778,0.8778,0.8778,0.8778,0.8798,0.8771,0.8637,0.8422,0.8056,0.7749,0.7524,0.7174,0.6993,0.6993,0.6993,0.6993,0.696,0.6506,0.6236,0.6131,0.5675,0.5429,0.5325,0.5356,0.534,0.5309,0.5309,0.5309,0.5309,0.5309,0.5309,0.5309,0.5309,0.5325,0.534,0.5325,0.5325,0.534,0.5309,0.5309,0.5309,0.5309,0.5309,0.5404,0.5991,0.6021,0.5585,0.5781,0.5703,0.5419,0.5309,0.5309,0.5309,0.5309,0.5309,0.5309,0.5309,0.5309,0.5316,0.5427,0.543,0.5309,0.5309,0.5309,0.5309,0.5309,0.5309,0.5309,0.5309,0.5309,0.5028,0.4289,0.3462,0.3144,0.2928,0.2797,0.2723,0.2679,0.2679,0.2723,0.2716,0.2679,0.2679,0.2679,0.2679,0.0,0.0,0.0,0.0,0.0,0.0,0.0,0.0,0.0,0.0,0.0,0.0,0.0,0.0,0.0,-0.0268,-0.0436,-0.1037,1.0586,1.0579,1.0492,1.0301,1.0083,0.9884,0.971,0.9491,0.9204,0.9084,0.9044,0.8865,0.8778,0.8778,0.8778,0.8778,0.8778,0.8778,0.8751,0.8591,0.8163,0.7889,0.7702,0.7261,0.6993,0.6993,0.6993,0.6993,0.6926,0.6633,0.6512,0.6499,0.6205,0.5897,0.574,0.5719,0.5601,0.534,0.5309,0.5309,0.5309,0.5309,0.5309,0.5309,0.5309,0.5412,0.5679,0.5451,0.5451,0.5688,0.5444,0.5309,0.5325,0.5309,0.5309,0.5331,0.5514,0.6199,0.6747,0.6044,0.5522,0.534,0.5316,0.5309,0.5309,0.5309,0.5329,0.5329,0.5316,0.5309,0.5414,0.6052,0.6092,0.5371,0.5309,0.5372,0.5449,0.5365,0.5309,0.5309,0.5309,0.5309,0.5365,0.4962,0.4955,0.4425,0.3965,0.3414,0.2852,0.27,0.2788,0.2924,0.2822,0.2737,0.2744,0.2727,0.2679,0.2679,0.1907,0.1188,0.1106,0.1088,0.092,0.0,0.0,0.0,0.0,0.0,0.0,0.0,0.0,0.0,0.0,-0.072,-0.1106,1.0586,1.0586,1.0586,1.0486,1.0267,1.0143,0.9953,0.9666,0.9344,0.9158,0.9024,0.8884,0.8778,0.8778,0.8778,0.8778,0.8778,0.8778,0.8778,0.8718,0.8337,0.8025,0.7846,0.7286,0.6993,0.6993,0.6993,0.6993,0.698,0.6754,0.6758,0.69,0.6523,0.6337,0.6277,0.602,0.575,0.5522,0.5395,0.5309,0.5325,0.5428,0.5529,0.5507,0.5388,0.5594,0.6037,0.6152,0.6145,0.6098,0.5867,0.5874,0.6137,0.6222,0.5936,0.5444,0.5609,0.6098,0.6656,0.6014,0.5498,0.5419,0.5851,0.5859,0.5514,0.5309,0.5407,0.5869,0.5983,0.595,0.6065,0.65,0.6607,0.6064,0.5972,0.5991,0.6104,0.6017,0.5678,0.5501,0.5309,0.5504,0.5923,0.6167,0.6362,0.587,0.4852,0.3715,0.3038,0.2805,0.2988,0.3164,0.3204,0.3078,0.2894,0.2802,0.269,0.2679,0.2543,0.2142,0.1942,0.2026,0.0,0.0,0.0,0.0,0.0,0.0,0.0,0.0,0.0,0.0,-0.0403,-0.0419,-0.0838,1.0586,1.0586,1.0586,1.0586,1.0533,1.0267,1.0013,0.9706,0.9384,0.9111,0.8884,0.8831,0.8778,0.8778,0.8778,0.8778,0.8778,0.8778,0.8778,0.8744,0.8497,0.8216,0.7696,0.7219,0.7006,0.6993,0.6993,0.6993,0.6986,0.678,0.6901,0.7307,0.6868,0.6651,0.6901,0.6372,0.6052,0.5835,0.557,0.5444,0.5419,0.5734,0.5929,0.5913,0.5688,0.5836,0.6488,0.7092,0.719,0.6624,0.6533,0.6844,0.7456,0.7695,0.6897,0.5757,0.6206,0.6175,0.5843,0.6021,0.589,0.5467,0.655,0.7064,0.5738,0.541,0.5682,0.6553,0.6794,0.688,0.6873,0.696,0.694,0.7001,0.7173,0.7472,0.776,0.7494,0.6897,0.5845,0.5474,0.5769,0.674,0.6886,0.6898,0.6619,0.5448,0.4301,0.3694,0.3617,0.3367,0.3368,0.3436,0.3372,0.3177,0.3116,0.3037,0.3037,0.2962,0.2754,0.2281,0.2242,0.194,0.0,0.0,0.0,0.0,0.0,0.0,0.0,0.0,0.0,0.0,0.0,-0.0654,1.0586,1.0586,1.0586,1.0586,1.0586,1.0499,1.0298,0.998,0.9686,0.9344,0.9091,0.8865,0.8778,0.8778,0.8778,0.8778,0.8778,0.8778,0.8778,0.8798,0.8744,0.811,0.7399,0.71,0.6993,0.6993,0.6993,0.6993,0.6993,0.6948,0.7245,0.7825,0.7637,0.7527,0.7487,0.738,0.6776,0.6075,0.6145,0.6014,0.5836,0.6137,0.6336,0.6328,0.6427,0.6601,0.694,0.7427,0.7427,0.6901,0.7187,0.7451,0.7666,0.7695,0.7451,0.7131,0.716,0.7309,0.7047,0.6783,0.6283,0.5554,0.6686,0.7158,0.6082,0.5541,0.5722,0.6332,0.6727,0.6993,0.6993,0.6993,0.6993,0.7203,0.8121,0.9154,0.9412,0.9459,0.8728,0.6974,0.6526,0.6693,0.6853,0.6993,0.6993,0.6805,0.6136,0.5261,0.4714,0.3971,0.3466,0.3497,0.3552,0.3542,0.3491,0.3436,0.3406,0.343,0.3324,0.312,0.2378,0.1638,0.1004,0.0,0.0,0.0,0.0,0.0,0.0,0.0,0.0,0.0,0.0,0.0,0.0,1.0586,1.0586,1.0586,1.0586,1.0586,1.0586,1.0352,0.996,0.9782,0.9439,0.9058,0.8891,0.8778,0.8778,0.8778,0.8778,0.8778,0.8778,0.8778,0.8751,0.8664,0.8132,0.7493,0.7158,0.6993,0.6993,0.6993,0.6993,0.7063,0.7231,0.7695,0.8193,0.832,0.8377,0.8512,0.8135,0.7618,0.6865,0.6758,0.6544,0.6229,0.654,0.673,0.682,0.7053,0.7261,0.7383,0.7583,0.753,0.7344,0.7515,0.7695,0.7695,0.7695,0.7695,0.7695,0.7695,0.7681,0.7613,0.727,0.6805,0.6374,0.6792,0.6682,0.6606,0.6268,0.6198,0.623,0.67,0.694,0.6993,0.6993,0.6993,0.7119,0.8162,0.9282,1.0137,1.0225,0.9233,0.775,0.6993,0.6993,0.6993,0.6993,0.6993,0.6846,0.6346,0.57,0.5157,0.4272,0.36,0.36,0.36,0.358,0.357,0.3529,0.3505,0.3552,0.3529,0.3365,0.27,0.1643,0.1027,0.0,0.0,0.0,0.0,0.0,0.0,0.0,0.0,0.0,0.0,0.0,0.0,1.0586,1.0586,1.0586,1.0586,1.0586,1.0579,1.0298,0.9836,0.9845,0.9554,0.9179,0.9042,0.9211,0.9015,0.9263,0.9087,0.9087,0.9211,0.9028,0.8945,0.8716,0.831,0.7782,0.7313,0.708,0.7013,0.6993,0.6993,0.7126,0.7579,0.8139,0.8556,0.8763,0.9105,0.922,0.8859,0.8323,0.7705,0.7412,0.7054,0.6753,0.694,0.7148,0.7201,0.7436,0.7598,0.7637,0.7695,0.7666,0.7681,0.7695,0.7695,0.7695,0.7695,0.7695,0.7695,0.7695,0.7695,0.7681,0.7472,0.737,0.7355,0.644,0.6269,0.7354,0.728,0.6693,0.6418,0.6734,0.6946,0.6993,0.6993,0.6993,0.7035,0.714,0.8018,0.941,1.0137,0.9441,0.7405,0.7014,0.6993,0.6993,0.6993,0.6993,0.6979,0.6522,0.6182,0.5389,0.4377,0.384,0.36,0.36,0.36,0.3597,0.3593,0.3583,0.3593,0.359,0.3453,0.3146,0.2338,0.1698,0.0,0.0,0.0,0.0,0.0,0.0,0.0,0.0,0.0,0.0,0.0,0.0,1.0586,1.0586,1.0586,1.0586,1.0586,1.0579,1.0385,1.0067,1.0364,1.0234,1.0102,1.0239,1.032,1.032,1.0236,1.0356,1.0218,1.0167,1.0115,0.957,0.9317,0.8661,0.8028,0.7544,0.7255,0.706,0.6993,0.6993,0.7147,0.7635,0.8172,0.8671,0.9154,0.9429,0.954,0.9434,0.879,0.8045,0.7971,0.7685,0.7155,0.7329,0.7515,0.7539,0.7652,0.7681,0.7695,0.7695,0.7695,0.7695,0.7695,0.7695,0.7695,0.7695,0.7695,0.7695,0.7695,0.7695,0.7758,0.8004,0.8114,0.7858,0.8003,0.8596,0.9356,0.7888,0.7086,0.684,0.6933,0.6993,0.6993,0.6993,0.6993,0.6993,0.7014,0.7182,0.7874,0.9293,0.9193,0.7688,0.6993,0.6993,0.6993,0.6993,0.6979,0.6958,0.681,0.6592,0.5733,0.4679,0.4294,0.41,0.3626,0.3711,0.4122,0.4122,0.4122,0.3774,0.36,0.3587,0.3279,0.3047,0.2415,0.1709,0.0,0.0,0.0,0.0,0.0,0.0,0.0,0.0,0.0,0.0,0.0,1.0586,1.0586,1.0586,1.0586,1.0586,1.0586,1.0629,1.0645,1.0646,1.0773,1.0816,1.085,1.0796,1.0813,1.0788,1.0636,1.0364,1.0338,1.0312,1.011,0.9806,0.9134,0.84,0.7868,0.7475,0.7073,0.6993,0.6993,0.7189,0.7814,0.8419,0.8777,0.9487,0.9877,0.9914,0.9893,0.9375,0.8639,0.8538,0.8258,0.7575,0.7583,0.7695,0.7695,0.7695,0.7695,0.7695,0.7944,0.8027,0.7988,0.7837,0.7705,0.7695,0.7695,0.7695,0.7695,0.7695,0.7695,0.7841,0.8467,0.8958,0.888,0.9043,0.9453,0.9543,0.8256,0.714,0.6993,0.6993,0.6993,0.6993,0.6993,0.6993,0.6993,0.6993,0.6993,0.7349,0.8913,0.9441,0.7675,0.6993,0.6993,0.6993,0.6993,0.6993,0.6979,0.6979,0.6782,0.6782,0.5819,0.5216,0.4766,0.3994,0.3884,0.4508,0.4722,0.477,0.425,0.36,0.36,0.3481,0.3334,0.3159,0.2509,0.1931,0.105,0.0,0.0,0.0,0.0,0.0,0.0,0.0,0.0,0.0,1.0586,1.0586,1.0586,1.0586,1.0586,1.0586,1.0874,1.1279,1.1,1.1229,1.1594,1.1277,1.1334,1.1174,1.1225,1.0804,1.0525,1.0448,1.0847,1.0855,1.0212,0.9516,0.8799,0.8094,0.7499,0.704,0.6993,0.6993,0.7287,0.8075,0.8594,0.8878,0.9755,1.0167,1.0283,1.0254,0.9845,0.9147,0.8933,0.8607,0.7899,0.7763,0.7695,0.7695,0.7695,0.7788,0.7905,0.8164,0.8395,0.8453,0.811,0.7929,0.787,0.7725,0.7695,0.7725,0.8026,0.8383,0.8548,0.9082,0.9717,1.0254,0.9687,0.9598,0.9656,0.8852,0.775,0.7119,0.6993,0.6993,0.6993,0.6993,0.6993,0.6993,0.6993,0.6993,0.7321,0.8711,0.8427,0.7543,0.6993,0.6993,0.6993,0.6993,0.6993,0.6993,0.6993,0.6993,0.6993,0.6846,0.614,0.5862,0.5243,0.5009,0.5518,0.4508,0.4639,0.436,0.36,0.36,0.36,0.3512,0.3413,0.3491,0.2908,0.2052,0.1336,0.0,0.0,0.0,0.0,0.0,0.0,0.0,0.0,1.0586,1.0586,1.0586,1.0586,1.0586,1.0586,1.1073,1.1623,1.161,1.1961,1.2582,1.2559,1.2446,1.2461,1.2544,1.2446,1.2132,1.195,1.1857,1.1504,1.0713,0.9835,0.8996,0.8042,0.7397,0.7093,0.7,0.7,0.7308,0.8082,0.8695,0.8947,0.9784,1.0283,1.0322,1.0273,1.0048,0.9456,0.9192,0.8779,0.834,0.8002,0.7822,0.7832,0.7851,0.7983,0.8223,0.8375,0.8561,0.8857,0.8828,0.8792,0.8675,0.8207,0.7929,0.8133,0.9004,0.9549,0.9667,0.9911,1.0175,1.0254,1.0097,1.0048,1.0147,0.9864,0.8772,0.7634,0.7119,0.6993,0.6993,0.6993,0.6993,0.6993,0.6993,0.6993,0.7105,0.7412,0.7758,0.7098,0.6993,0.6993,0.6993,0.6993,0.6993,0.6993,0.6993,0.6993,0.6993,0.6993,0.6761,0.6677,0.6677,0.6592,0.6747,0.5048,0.4144,0.4012,0.36,0.36,0.36,0.36,0.36,0.36,0.36,0.311,0.2491,0.191,0.0,0.0,0.0,0.0,0.0,0.0,0.0,1.0586,1.0586,1.0586,1.0586,1.0681,1.1045,1.1686,1.234,1.2347,1.2777,1.3207,1.3105,1.2915,1.2915,1.2915,1.2915,1.2856,1.2452,1.2344,1.2006,1.1042,1.0119,0.9267,0.8146,0.7396,0.7073,0.7,0.7168,0.751,0.8288,0.8777,0.9279,0.9942,1.0303,1.0322,1.0312,1.0058,0.9641,0.9396,0.9094,0.874,0.8441,0.8373,0.8353,0.8353,0.8506,0.8662,0.8955,0.9111,0.9309,0.9551,0.9639,0.9512,0.9324,0.9014,0.916,0.9823,1.0322,1.0322,1.0322,1.0293,1.0312,1.0322,1.0322,1.0322,1.0157,0.9746,0.8852,0.7328,0.6993,0.6993,0.6993,0.6993,0.6993,0.7033,0.7046,0.702,0.7026,0.708,0.7113,0.7093,0.7086,0.6993,0.6993,0.6993,0.6993,0.6993,0.6993,0.6993,0.6993,0.6993,0.6972,0.6958,0.6958,0.6831,0.554,0.4012,0.3689,0.36,0.36,0.36,0.36,0.36,0.36,0.36,0.36,0.3421,0.2786,0.2301,0.1831,0.0,0.0,0.0,0.0,0.0407,1.0586,1.0586,1.0586,1.0681,1.0926,1.15,1.2358,1.3109,1.3077,1.3387,1.3917,1.3389,1.3003,1.2925,1.2915,1.2905,1.2847,1.2286,1.2344,1.2137,1.1123,1.023,0.9493,0.8416,0.7348,0.7194,0.7013,0.7259,0.7627,0.8349,0.8898,0.9319,0.9893,1.0322,1.0322,1.0322,1.002,0.9845,0.9592,0.9406,0.9104,0.9036,0.9026,0.9004,0.9004,0.9004,0.9141,0.9348,0.9581,0.9795,1.0048,1.0283,1.0312,1.0312,1.0312,1.0322,1.0322,1.0322,1.0322,1.0322,1.0322,1.0322,1.0322,1.0322,1.0322,1.0322,1.0215,0.9952,0.8993,0.7467,0.7182,0.6993,0.6993,0.7086,0.7233,0.7399,0.7493,0.7552,0.7606,0.7546,0.7353,0.7219,0.7166,0.6993,0.6993,0.6993,0.6993,0.6993,0.6993,0.6993,0.6993,0.6993,0.6972,0.6972,0.6656,0.5969,0.4574,0.3667,0.36,0.36,0.36,0.36,0.36,0.36,0.36,0.36,0.36,0.36,0.3095,0.2622,0.2228,0.1958,0.175,0.1411,0.1325,1.0586,1.0586,1.0586,1.0982,1.1586,1.1772,1.2679,1.3903,1.366,1.3747,1.4075,1.3607,1.3203,1.2983,1.2915,1.2915,1.2856,1.2749,1.2486,1.2073,1.1042,1.0187,0.9405,0.8132,0.756,0.7362,0.715,0.7034,0.7482,0.8288,0.8736,0.9079,0.9834,1.0322,1.0322,1.0322,1.0283,1.0137,0.9834,0.9455,0.9189,0.9287,0.9258,0.9141,0.9111,0.9248,0.9503,0.9669,0.9814,1.0156,1.0244,1.0322,1.0322,1.0322,1.0322,1.0322,1.0322,1.0322,1.0332,1.0322,1.0322,1.0322,1.0322,1.0322,1.0596,1.0626,1.0596,1.0273,0.9948,0.9249,0.8066,0.7348,0.7118,0.751,0.8102,0.8344,0.8418,0.8079,0.8132,0.8199,0.8079,0.7652,0.7399,0.7173,0.6993,0.6993,0.7,0.7013,0.706,0.7106,0.7006,0.7006,0.7,0.6993,0.6548,0.5831,0.4843,0.3722,0.3626,0.36,0.36,0.36,0.36,0.36,0.36,0.36,0.36,0.36,0.36,0.3309,0.2746,0.2904,0.3236,0.2818,0.2227,1.0586,1.0586,1.0586,1.1076,1.1803,1.2266,1.3114,1.4064,1.4268,1.4201,1.4031,1.3691,1.3271,1.2974,1.2915,1.2915,1.2915,1.2915,1.2749,1.2245,1.1396,1.0527,0.9657,0.8596,0.7902,0.7499,0.7405,0.7558,0.7801,0.8255,0.8797,0.9239,0.9883,1.0322,1.0322,1.0322,1.0322,1.0234,1.0088,0.9922,0.9805,0.9824,0.9834,0.9735,0.9697,0.9805,0.9912,1.001,1.0068,1.0303,1.0322,1.0322,1.0322,1.0322,1.0322,1.0342,1.0802,1.0792,1.042,1.0371,1.0371,1.0342,1.044,1.0743,1.1398,1.1712,1.1712,1.18,1.1768,1.1146,1.0447,1.0372,1.0357,1.0231,0.9283,0.8789,0.8857,0.8804,0.8665,0.8745,0.8738,0.8252,0.7899,0.7879,0.7786,0.7772,0.7506,0.718,0.7286,0.7413,0.7239,0.7013,0.7006,0.6993,0.6383,0.5722,0.4711,0.3781,0.3604,0.3604,0.36,0.36,0.36,0.3622,0.3648,0.3626,0.3622,0.36,0.36,0.342,0.3195,0.3376,0.3534,0.3464,0.2824,1.0586,1.0586,1.0586,1.117,1.2143,1.2757,1.3575,1.4523,1.4802,1.4679,1.4202,1.375,1.3281,1.2983,1.2915,1.2915,1.2915,1.2915,1.2749,1.2377,1.1857,1.1036,1.0142,0.9174,0.8446,0.7802,0.7903,0.8106,0.8359,0.8721,0.9159,0.9527,1.002,1.0283,1.0322,1.0322,1.0322,1.0312,1.0273,1.0244,1.0234,1.0263,1.0263,1.0283,1.0322,1.0322,1.0322,1.0302,1.0293,1.0303,1.0322,1.0322,1.0322,1.0322,1.0322,1.0381,1.0772,1.1164,1.0958,1.0919,1.0713,1.083,1.0997,1.1633,1.2465,1.2915,1.2895,1.269,1.2709,1.2768,1.2706,1.2137,1.0995,1.0582,1.0519,0.9677,0.8982,0.8982,0.891,0.8778,0.8778,0.8778,0.8558,0.8658,0.8645,0.8598,0.8159,0.7526,0.7579,0.7819,0.7786,0.7606,0.7399,0.7421,0.7103,0.6189,0.4948,0.3924,0.3747,0.3621,0.3628,0.3614,0.36,0.3626,0.3721,0.3755,0.3799,0.3711,0.36,0.349,0.342,0.349,0.36,0.36,0.3173,1.0586,1.0586,1.0586,1.1483,1.2879,1.2978,1.3885,1.5206,1.5313,1.5068,1.4531,1.3887,1.3281,1.2993,1.2915,1.2915,1.2915,1.2915,1.2608,1.2178,1.1735,1.1398,1.0661,0.9987,0.9549,0.9595,0.912,0.8893,0.9109,0.9392,0.952,0.9578,1.0098,1.0264,1.0322,1.0322,1.0322,1.0322,1.0322,1.0322,1.0322,1.0322,1.0322,1.0322,1.0322,1.0322,1.0322,1.0322,1.0322,1.0322,1.0322,1.0322,1.0322,1.0322,1.0342,1.0792,1.089,1.1467,1.1878,1.1445,1.165,1.2279,1.2592,1.2465,1.2856,1.2915,1.2915,1.2915,1.2915,1.2915,1.2166,1.104,1.066,1.0762,1.12,1.1015,1.0123,0.929,0.9159,0.8883,0.8883,0.9035,0.9803,1.0002,0.9087,0.8933,0.8724,0.8099,0.8225,0.8418,0.8505,0.8378,0.8045,0.8021,0.8204,0.6985,0.4878,0.4126,0.3941,0.3791,0.3672,0.3648,0.3607,0.3921,0.4066,0.4017,0.3928,0.3733,0.36,0.36,0.36,0.36,0.36,0.36,0.2993,1.0586,1.0586,1.0586,1.1514,1.3009,1.3009,1.3906,1.5264,1.541,1.4972,1.4375,1.3769,1.3281,1.3013,1.2915,1.2915,1.2915,1.2915,1.2666,1.2584,1.2393,1.1951,1.129,1.081,1.0484,1.0235,0.9829,0.9691,0.9788,1.0148,1.013,1.0165,1.0303,1.0283,1.0322,1.0322,1.0322,1.0322,1.0322,1.0322,1.0322,1.0322,1.0322,1.0322,1.0322,1.0322,1.0322,1.0322,1.0322,1.0332,1.0332,1.0351,1.043,1.044,1.0909,1.1604,1.1721,1.2162,1.2367,1.1721,1.1338,1.2563,1.2886,1.2915,1.2915,1.2915,1.2915,1.2915,1.2915,1.2915,1.2603,1.2017,1.1735,1.1685,1.1701,1.1801,1.1417,1.0482,0.9847,0.9744,0.9595,0.9569,1.0533,1.1526,1.0285,0.9204,0.8982,0.8778,0.8778,0.8778,0.8778,0.8778,0.8452,0.8365,0.8534,0.6731,0.4654,0.4389,0.4269,0.404,0.3877,0.3648,0.371,0.4051,0.4378,0.4392,0.418,0.3779,0.3604,0.3607,0.3604,0.36,0.36,0.36,0.3015,1.0586,1.0586,1.0586,1.1514,1.2917,1.3009,1.3914,1.5235,1.542,1.5029,1.427,1.3887,1.3467,1.3145,1.2935,1.2915,1.2915,1.2915,1.2915,1.2856,1.2735,1.245,1.1973,1.1575,1.1268,1.0827,1.0695,1.0714,1.0845,1.1022,1.0924,1.078,1.0675,1.0625,1.0322,1.0322,1.0322,1.0322,1.0322,1.0322,1.0322,1.0322,1.0467,1.0448,1.0409,1.0428,1.0585,1.0743,1.0745,1.0558,1.044,1.0479,1.0684,1.1066,1.1741,1.2445,1.2915,1.2915,1.2543,1.2122,1.1643,1.2729,1.2915,1.2915,1.2915,1.2915,1.2915,1.2915,1.2915,1.2915,1.2915,1.2578,1.248,1.2372,1.2397,1.2471,1.2363,1.1726,1.1116,1.0685,1.0507,1.0328,1.1301,1.224,1.1701,1.0285,0.9271,0.9015,0.8778,0.8778,0.8778,0.8778,0.8705,0.8711,0.8666,0.7448,0.6296,0.5229,0.499,0.4393,0.4153,0.3914,0.387,0.4182,0.4471,0.4656,0.4447,0.3997,0.3748,0.3595,0.3634,0.3668,0.36,0.3578,0.3331,1.0624,1.0586,1.0624,1.1569,1.3009,1.3009,1.3906,1.5294,1.541,1.5146,1.4678,1.425,1.386,1.3486,1.3154,1.3032,1.2983,1.2944,1.2915,1.2915,1.2905,1.2817,1.2584,1.2231,1.2059,1.2406,1.1988,1.1654,1.1966,1.1674,1.1545,1.1449,1.1292,1.1085,1.042,1.0312,1.0312,1.0351,1.04,1.0312,1.0381,1.0371,1.0505,1.0725,1.0476,1.0448,1.0967,1.144,1.1397,1.0972,1.0655,1.0811,1.1312,1.2103,1.2631,1.2837,1.2915,1.2915,1.2856,1.2798,1.2798,1.2846,1.2915,1.2915,1.2915,1.2915,1.2915,1.2915,1.2915,1.2915,1.2915,1.2915,1.2915,1.2915,1.2915,1.2881,1.2749,1.2676,1.1983,1.1601,1.1309,1.1233,1.2132,1.2832,1.2725,1.1676,1.0061,0.9349,0.914,0.8778,0.8778,0.8778,0.8778,0.8778,0.8778,0.8778,0.7957,0.6745,0.5561,0.4752,0.4419,0.4293,0.4293,0.4422,0.4454,0.4602,0.4454,0.4206,0.4043,0.3907,0.3774,0.3747,0.3665,0.3556,0.3376,1.0895,1.1375,1.1382,1.2328,1.3606,1.3191,1.3936,1.5235,1.5391,1.5176,1.4824,1.46,1.4326,1.3896,1.3496,1.3271,1.3242,1.2964,1.2915,1.2915,1.2915,1.2905,1.2774,1.2691,1.2632,1.2745,1.2416,1.2125,1.2151,1.2051,1.1829,1.1672,1.1675,1.1449,1.1134,1.0958,1.0831,1.0998,1.0714,1.0391,1.0625,1.0508,1.0565,1.0995,1.0614,1.0734,1.1431,1.2017,1.1995,1.152,1.1197,1.1478,1.1795,1.2475,1.2886,1.2915,1.2915,1.2915,1.2915,1.2876,1.2895,1.2915,1.2915,1.2915,1.2915,1.2915,1.2915,1.2915,1.2915,1.2915,1.2915,1.2915,1.2915,1.2915,1.2915,1.2915,1.2832,1.2856,1.2603,1.252,1.2314,1.195,1.2421,1.2067,1.1909,1.1983,1.049,1.0277,1.0174,0.9211,0.8778,0.8778,0.8778,0.8778,0.8778,0.8778,0.8778,0.7883,0.6177,0.4666,0.4481,0.4491,0.4477,0.4443,0.4464,0.4481,0.4416,0.4358,0.4341,0.4258,0.4092,0.3979,0.3928,0.3774,0.3556,1.132,1.1834,1.2112,1.2962,1.4025,1.3636,1.4213,1.5264,1.541,1.5244,1.5019,1.4863,1.4639,1.4248,1.3799,1.348,1.3467,1.3086,1.2915,1.2915,1.2915,1.2915,1.2915,1.2915,1.2856,1.2915,1.2886,1.2715,1.2496,1.2447,1.2334,1.2142,1.191,1.1966,1.18,1.1604,1.1261,1.1351,1.1066,1.0939,1.1036,1.102,1.1035,1.1236,1.1196,1.1145,1.1881,1.2381,1.2616,1.2199,1.222,1.2345,1.2427,1.2494,1.2915,1.2915,1.2915,1.2915,1.2915,1.2915,1.2915,1.2915,1.2915,1.2915,1.2915,1.2915,1.2915,1.2915,1.2915,1.2944,1.2954,1.2954,1.2935,1.2935,1.2925,1.2925,1.2915,1.2915,1.2915,1.2881,1.2856,1.2627,1.1812,1.1326,1.077,1.0889,1.0889,1.0889,1.0787,0.9718,0.8804,0.8778,0.8778,0.8778,0.8778,0.8778,0.8778,0.8778,0.7337,0.5601,0.4491,0.4491,0.4491,0.4491,0.4491,0.4491,0.4491,0.446,0.4528,0.4501,0.4395,0.4293,0.4185,0.3982,0.3771,1.1795,1.195,1.2696,1.3515,1.4174,1.4264,1.4697,1.5391,1.542,1.54,1.5371,1.498,1.4862,1.4686,1.3965,1.3607,1.349,1.3145,1.2983,1.2925,1.2915,1.2915,1.2915,1.2915,1.2915,1.2915,1.2905,1.2886,1.2852,1.2773,1.2778,1.2729,1.2373,1.2432,1.2367,1.2155,1.1866,1.1957,1.2027,1.1887,1.1835,1.1742,1.1836,1.189,1.174,1.1821,1.2466,1.3162,1.3068,1.313,1.3558,1.3502,1.3304,1.292,1.2915,1.2915,1.2915,1.2915,1.2915,1.2915,1.2915,1.2915,1.2915,1.2915,1.2915,1.2915,1.2915,1.2915,1.2915,1.2983,1.3008,1.3003,1.2974,1.2964,1.2964,1.2944,1.2915,1.2915,1.2915,1.2915,1.2915,1.2268,1.0319,0.9544,1.0287,1.0086,1.0223,1.0161,0.9989,0.9562,0.8857,0.8778,0.8778,0.8778,0.8778,0.8778,0.8778,0.8778,0.8692,0.7331,0.6036,0.468,0.4491,0.4491,0.4491,0.4491,0.4491,0.4598,0.4752,0.4814,0.5574,0.4789,0.4756,0.428,0.4023,1.2143,1.2726,1.3515,1.4323,1.4991,1.505,1.5196,1.5381,1.542,1.542,1.5371,1.5293,1.5186,1.5166,1.4658,1.4248,1.3896,1.3535,1.3164,1.3052,1.3003,1.2944,1.2915,1.2925,1.2915,1.2915,1.2915,1.2915,1.2905,1.2915,1.2915,1.2846,1.2705,1.2783,1.2758,1.2665,1.2812,1.3011,1.3153,1.2984,1.2753,1.2671,1.2644,1.2398,1.2125,1.2272,1.2836,1.3523,1.34,1.3158,1.3998,1.4071,1.3051,1.2915,1.2915,1.2915,1.2915,1.2915,1.2915,1.2915,1.2993,1.3081,1.3071,1.2925,1.2915,1.3071,1.3111,1.3238,1.3306,1.3453,1.3564,1.3555,1.3477,1.3437,1.3359,1.3238,1.316,1.2915,1.2915,1.2915,1.2915,1.1703,0.9649,0.9593,1.0208,0.9755,0.95,0.9487,0.9378,0.9023,0.8883,0.8804,0.8778,0.8778,0.8778,0.8778,0.8778,0.8778,0.8692,0.8527,0.7498,0.6199,0.5034,0.4491,0.4491,0.4491,0.4491,0.4842,0.5655,0.6956,0.7664,0.6335,0.5249,0.4774,0.4346,1.2551,1.313,1.4204,1.4962,1.5352,1.542,1.542,1.542,1.542,1.542,1.542,1.54,1.541,1.5332,1.4951,1.4609,1.4338,1.3965,1.3633,1.3506,1.3203,1.3174,1.3125,1.2978,1.2915,1.2915,1.2915,1.2915,1.2915,1.2915,1.2915,1.2915,1.2915,1.2915,1.2949,1.313,1.3606,1.3996,1.4265,1.4156,1.3924,1.3616,1.3243,1.2892,1.2559,1.2669,1.2909,1.3517,1.3304,1.3089,1.3978,1.3954,1.3089,1.2915,1.2915,1.2974,1.3301,1.3145,1.2998,1.2915,1.3267,1.3672,1.3828,1.3955,1.3984,1.4131,1.4102,1.4121,1.4072,1.4089,1.418,1.4258,1.4143,1.4055,1.3848,1.3603,1.3316,1.2974,1.2915,1.2915,1.2274,1.125,1.052,1.0419,1.0208,0.9869,0.9522,0.9296,0.9166,0.8937,0.8831,0.8804,0.8778,0.8778,0.8778,0.8778,0.8778,0.8778,0.8778,0.856,0.8203,0.6902,0.4979,0.4491,0.4491,0.4491,0.4487,0.6036,0.709,0.8235,0.8778,0.7797,0.6389,0.5268,0.4857,1.3009,1.3122,1.4746,1.5381,1.542,1.5488,1.5497,1.5439,1.5604,1.5526,1.5468,1.542,1.542,1.5352,1.5068,1.4863,1.4639,1.4326,1.4065,1.4085,1.3685,1.3529,1.3412,1.3174,1.3086,1.2978,1.2925,1.2915,1.2915,1.2915,1.2915,1.2915,1.2915,1.2978,1.3166,1.3491,1.4003,1.4687,1.4971,1.4971,1.4721,1.4424,1.4063,1.3682,1.3311,1.305,1.2939,1.2929,1.2915,1.3152,1.3358,1.3515,1.3176,1.2915,1.2915,1.3135,1.3539,1.3734,1.3506,1.335,1.3994,1.4678,1.5391,1.5117,1.4922,1.4883,1.4824,1.4814,1.4766,1.4766,1.4853,1.4863,1.4795,1.4689,1.4551,1.4297,1.4004,1.3672,1.3473,1.3502,1.3349,1.2175,1.0388,1.0177,1.0251,0.9996,0.9874,0.9521,0.9138,0.8958,0.8811,0.8805,0.8778,0.8778,0.8778,0.8778,0.8778,0.8778,0.8778,0.8752,0.8533,0.6794,0.4625,0.4491,0.4491,0.4491,0.4787,0.6416,0.7744,0.8368,0.8778,0.8778,0.7771,0.6362,0.525,1.3009,1.3161,1.4717,1.542,1.5497,1.6007,1.5892,1.5517,1.6641,1.6386,1.5555,1.541,1.542,1.5371,1.5283,1.5107,1.4805,1.4707,1.4443,1.425,1.4007,1.3968,1.388,1.3574,1.3389,1.3242,1.3105,1.3018,1.3081,1.3013,1.2935,1.2959,1.3008,1.317,1.3553,1.3889,1.4395,1.5197,1.5454,1.5555,1.5387,1.5186,1.4903,1.4202,1.3647,1.331,1.3128,1.2915,1.2915,1.3002,1.3065,1.3041,1.2895,1.2905,1.2925,1.3071,1.3799,1.4192,1.4367,1.416,1.4482,1.4961,1.542,1.542,1.5391,1.542,1.542,1.542,1.542,1.542,1.541,1.5381,1.5352,1.5254,1.5196,1.4961,1.4707,1.4414,1.4102,1.416,1.4277,1.2882,1.0931,1.0124,1.0171,1.0251,1.0383,1.0151,0.9615,0.9272,0.8951,0.8898,0.8791,0.8778,0.8778,0.8778,0.8778,0.8778,0.8778,0.8778,0.8672,0.6578,0.4491,0.4491,0.4491,0.4736,0.5523,0.7063,0.8176,0.8639,0.8778,0.8778,0.8778,0.7717,0.6308,1.3009,1.3213,1.4717,1.542,1.5555,1.6208,1.6093,1.57,1.6602,1.6461,1.5584,1.569,1.5719,1.5468,1.5381,1.5332,1.5097,1.5068,1.4971,1.4728,1.4445,1.4406,1.4248,1.403,1.3831,1.3665,1.3564,1.3494,1.3516,1.3505,1.3498,1.3546,1.3566,1.3701,1.4136,1.435,1.4853,1.5555,1.5891,1.6013,1.5969,1.5678,1.5208,1.4457,1.3766,1.3406,1.3152,1.2915,1.2915,1.2915,1.2954,1.2954,1.2905,1.2915,1.334,1.3936,1.4541,1.4902,1.5079,1.505,1.4845,1.5254,1.542,1.542,1.542,1.542,1.542,1.542,1.542,1.542,1.542,1.54,1.5391,1.5352,1.5342,1.5205,1.5117,1.5,1.4814,1.4785,1.4506,1.3479,1.17,1.0378,1.0412,1.0412,1.0553,1.0566,1.0077,0.9715,0.9332,0.8985,0.8925,0.8811,0.8778,0.8778,0.8778,0.8778,0.8778,0.7904,0.7203,0.5737,0.4491,0.4814,0.5167,0.5496,0.647,0.7824,0.8342,0.8725,0.8778,0.8778,0.8778,0.8778,0.7717,1.3252,1.3524,1.4815,1.542,1.5526,1.6179,1.6093,1.5642,1.6293,1.6197,1.5613,1.6283,1.6112,1.5642,1.5555,1.5468,1.541,1.5303,1.5322,1.5234,1.499,1.4893,1.4753,1.458,1.446,1.4347,1.4264,1.4312,1.4405,1.4481,1.4584,1.4606,1.4573,1.4558,1.485,1.5253,1.588,1.6271,1.6581,1.6726,1.647,1.6013,1.5366,1.4571,1.3776,1.3143,1.3027,1.3062,1.3071,1.313,1.3213,1.3389,1.4018,1.4342,1.4539,1.5157,1.5088,1.5283,1.5381,1.5352,1.5322,1.542,1.542,1.5526,1.5584,1.5633,1.5633,1.5526,1.5526,1.542,1.542,1.542,1.542,1.542,1.542,1.542,1.542,1.542,1.5352,1.5225,1.428,1.3386,1.2297,1.0958,1.0649,1.0649,1.0618,1.0586,1.0499,1.0251,0.9963,0.9426,0.9078,0.8985,0.8811,0.8865,0.8918,0.8778,0.8586,0.7171,0.5928,0.5222,0.5062,0.5628,0.5982,0.6578,0.7257,0.8395,0.8752,0.8778,0.8778,0.8778,0.8778,0.8778,0.8778,1.4362,1.4962,1.5294,1.542,1.5526,1.6179,1.6054,1.569,1.6743,1.6659,1.5968,1.6641,1.6726,1.5439,1.6075,1.6036,1.541,1.542,1.542,1.5352,1.5369,1.5321,1.5346,1.5361,1.5271,1.5083,1.4905,1.4997,1.5228,1.5643,1.596,1.595,1.5973,1.6151,1.6645,1.6906,1.6979,1.7294,1.748,1.7654,1.744,1.6813,1.5715,1.5039,1.4502,1.3934,1.3681,1.3747,1.3821,1.387,1.3929,1.4267,1.5426,1.6472,1.6688,1.5477,1.542,1.542,1.542,1.542,1.542,1.542,1.5633,1.6319,1.6376,1.6433,1.6262,1.5911,1.5796,1.5468,1.542,1.542,1.542,1.542,1.542,1.542,1.542,1.542,1.5391,1.4553,1.3481,1.2687,1.1965,1.117,1.0982,1.0926,1.08,1.0737,1.0586,1.0533,1.0472,0.9983,0.9385,0.9005,0.8785,0.9038,0.9078,0.8931,0.8699,0.7877,0.6848,0.5523,0.555,0.6578,0.7364,0.8017,0.8725,0.8778,0.8778,0.8778,0.8778,0.8778,0.8778,0.8778,0.8778]}]]